     2.10           OBSERVATION DATA    G (GPS)             RINEX VERSION / TYPE
teqc 2005May6 SOPAC 20050707 00:40:29UTC                    PGM / RUN BY / DATE
Linux 2.4.20-8|Pentium IV|gcc|Linux|486/DX+                 COMMENT
BIT 2 OF LLI FLAGS DATA COLLECTED UNDER A/S CONDITION       COMMENT
941 6841 J TIDAL                                            MARKER NAME
6841                                                        MARKER NUMBER
Mike Paquin                                                 OBSERVER / AGENCY
0220308791 TRIMBLE 5700 2.01                                REC # / TYPE / VERS
12469278 TRM41249.00 NONE                                   ANT # / TYPE
 -2757467.0000 -4134340.0000  3984595.0000                  APPROX POSITION XYZ
        2.0000        0.0000        0.0000                  ANTENNA: DELTA H/E/N
     1     1                                                WAVELENGTH FACT L1/2
     6    L1    L2    C1    P2    P1    D1                  # / TYPES OF OBSERV
    15.0000                                                 INTERVAL
Northern California Height Modernization 2004               COMMENT
                                                            COMMENT
SOPAC - Scripps Orbit and Permanent Array Center            COMMENT
IGPP - Institute of Geophysics and Planetary Physics        COMMENT
SIO - Scripps Institution of Oceanography                   COMMENT
UCSD - University of California, San Diego                  COMMENT
                                                            COMMENT
email: archive@gpsmail.ucsd.edu                             COMMENT
ftp://garner.ucsd.edu                                       COMMENT
http://sopac.ucsd.edu                                       COMMENT
                                                            COMMENT
                                                            COMMENT
Approximate Lat, Lon : 38.911, -123.702                     COMMENT
                                                            COMMENT
SNR is mapped to RINEX snr flag value [0-9]                 COMMENT
L1 & L2: 2-19 dBHz = 1, 20-27 dBHz = 2, 28-31 dBHz = 3      COMMENT
32-35 dBHz = 4, 36-38 dBHz = 5, 39-41 dBHz = 6              COMMENT
42-44 dBHz = 7, 45-48 dBHz = 8, >= 49 dBHz = 9              COMMENT
  2004     9    14    14    47   30.0000000     GPS         TIME OF FIRST OBS
                                                            END OF HEADER
 04  9 14 14 47 30.0000000  0  7G 1G11G14G15G19G22G25
    -47660.89558    -33329.53554  21991895.2814   21991892.7704
    -33417.21959
    -24764.71555                  21860413.9384   21860410.6374

    102274.55158     59761.16455  21115708.2194   21115705.3324

    148448.53557     92051.69952  23207626.8204   23207626.1524

    120932.17257     68772.29353  23316666.8524   23316660.9654

    108192.90658     62179.79353  22922501.5704   22922497.3954
    -52047.64859
    -36744.99655                  21883648.9454   21883647.6884

 04  9 14 14 47 45.0000000  0  7G 1G11G14G15G19G22G25
    -68973.98049    -49937.14144  21987839.6564   21987837.2664
      1420.8724
    -48389.08649    -36431.12945  21857564.8984   21857561.6134
       998.1244
    146658.40248     94345.95745  21124154.6254   21124151.4024
     -2958.9234
    217902.46947    146171.61742  23220842.9454   23220843.1214
     -4630.2624
    173486.46148    109723.68043  23326666.8594   23326661.5904
     -3503.6194
    155951.69948     99394.41043  22931589.2584   22931584.6914
     -3183.9204
    -75805.98848    -55258.02744  21879128.1024   21879126.1054
      1583.8894
 04  9 14 14 48  0.0000000  0  7G 1G11G14G15G19G22G25
    -90279.29748    -66538.69944  21983785.1884   21983783.8404
      1420.3544
    -63325.53548    -48069.93745  21854722.7504   21854719.7194
       995.7634
    191042.05548    128930.58645  21132600.5474   21132597.0864
     -2958.9104
    287336.03547    200275.65243  23234055.6254   23234055.8984
     -4628.9044
    226031.80547    150668.05943  23336666.1804   23336660.3324
     -3503.0234
    203673.66848    136580.32043  22940670.8054   22940666.1644
     -3181.4654
    -99545.27749    -73756.17644  21874611.3054   21874608.2584
      1582.6194
 04  9 14 14 48 15.0000000  0  7G 1G11G14G15G19G22G25
   -111531.66048    -83098.98444  21979741.0474   21979739.9264
      1416.8244
    -78181.13348    -59645.73845  21851895.0944   21851892.4494
       990.3734
    235470.36348    163550.03545  21141054.9454   21141051.5394
     -2961.8874
    356794.03548    254398.70343  23247273.5704   23247273.5354
     -4630.5334
    278612.84847    191640.28142  23346671.6644   23346667.0664
     -3505.4034
    251403.82447    173772.61743  22949753.8364   22949750.1954
     -3182.0104
   -123220.10548    -92204.09044  21870105.4304   21870103.0824
      1578.3224
 04  9 14 14 48 30.0000000  0  7G 1G11G14G15G19G22G25
   -132709.99248    -99601.56644  21975710.9774   21975709.3524
      1411.8894
    -92934.52348    -71141.89545  21849088.2974   21849085.0354
       983.5594
    279964.05948    198220.42645  21149521.8284   21149518.1454
     -2966.2464
    426297.19548    308556.96543  23260499.2424   23260499.0554
     -4633.5444
    331250.12147    232656.28543  23356688.5474   23356684.0164
     -3509.1524
    299163.18047    210987.68442  22958842.0704   22958838.9534
     -3183.9574
   -146809.16848   -110585.19944  21865617.1414   21865614.4064
      1572.6044
 04  9 14 14 48 45.0000000  0  7G 1G11G14G15G19G22G25
   -153805.53548   -116039.64544  21971696.4774   21971694.6684
      1406.3704
   -107576.80548    -82551.47745  21846301.5704   21846298.6334
       976.1524
    324531.60948    232948.35945  21158002.8914   21157999.2154
     -2971.1704
    495853.96147    362757.00043  23273735.6094   23273735.1134
     -4637.1184
    383951.94547    273722.65243  23366717.3444   23366713.3754
     -3513.4554
    346960.40247    248232.26642  22967936.4924   22967933.1134
     -3186.4824
   -170303.56249   -128892.51645  21861146.5084   21861144.1564
      1566.2934
 04  9 14 14 49  0.0000000  0  7G 1G11G14G15G19G22G25
   -174812.56248   -132408.78544  21967699.5314   21967697.3794
      1400.4684
   -122101.98849    -93869.81245  21843537.5474   21843534.4774
       968.3464
    369178.42649    267738.07045  21166498.5704   21166495.0744
     -2976.4544
    565469.77048    417003.02343  23286983.3364   23286982.1564
     -4641.0544
    436723.69147    314843.41843  23376759.1644   23376756.0474
     -3518.1164
    394801.05948    285510.67642  22977040.5314   22977036.2034
     -3189.3774
   -193697.30549   -147121.41045  21856694.3524   21856692.1954
      1559.5834
 04  9 14 14 49 15.0000000  0  7G 1G11G14G15G19G22G25
   -195729.25448   -148707.51644  21963719.3284   21963716.8054
      1394.4464
   -136508.28948   -105095.52745  21840796.1884   21840792.9964
       960.4204
    413905.99648    302590.71145  21175009.6954   21175006.1884
     -2981.8384
    635145.93047    471296.06642  23300242.5234   23300241.2664
     -4645.0774
    489566.66447    356019.69943  23386814.3204   23386811.2814
     -3522.8654
    442686.92648    322824.29743  22986153.4844   22986148.9144
     -3192.3914
   -216988.48849   -165270.37945  21852262.5554   21852260.9384
      1552.7464
 04  9 14 14 49 30.0000000  0  7G 1G11G14G15G19G22G25
   -216556.28948   -164936.37144  21959755.7734   21959753.4104
      1388.4694
   -150796.11749   -116228.91845  21838077.4144   21838074.1024
       952.5224
    458713.35948    337505.52344  21183536.3204   21183532.9104
     -2987.1584
    704881.53947    525635.43842  23313512.3984   23313510.8954
     -4649.0414
    542479.71947    397250.67243  23396883.8204   23396880.2624
     -3527.5374
    490617.34047    360172.60942  22995274.1414   22995270.4694
     -3195.3614
   -240177.42249   -183339.67244  21847849.7114   21847847.1604
      1545.9294
 04  9 14 14 49 45.0000000  0  7G 1G11G14G15G19G22G25
   -237294.20348   -181095.77344  21955809.0234   21955806.8204
      1382.5284
   -164966.02349   -127270.41045  21835381.0864   21835376.7584
       944.6604
    503599.48848    372481.70344  21192077.5634   21192074.3164
     -2992.4094
    774675.67247    580020.42242  23326793.9144   23326793.0634
     -4652.9424
    595461.96947    438535.48843  23406965.9534   23406962.6054
     -3532.1504
    538591.51248    397555.04743  23004403.2974   23004399.2304
     -3198.2784
   -263264.47749   -201329.57444  21843456.1954   21843453.3094
      1539.1374
 04  9 14 14 50  0.0000000  0  7G 1G11G14G15G19G22G25
   -257945.21948   -197187.50044  21951879.2814   21951877.3914
      1376.7344
   -179019.81249   -138221.43745  21832706.6484   21832702.6844
       936.9194
    548562.04348    407517.43844  21200633.8984   21200630.2894
     -2997.5044
    844525.62147    634448.90642  23340085.7894   23340084.6804
     -4656.6634
    648510.63747    479872.07443  23417060.6804   23417057.5984
     -3536.5784
    586607.18048    434969.81343  23013540.4224   23013536.0594
     -3201.0454
   -286251.59049   -219241.61344  21839081.9694   21839079.2074
      1532.4744
 04  9 14 14 50 15.0000000  0  7G 1G11G14G15G19G22G25
   -278506.38749   -213209.18744  21947967.4064   21947965.2934
      1370.7454
   -192954.43749   -149079.61745  21830055.2034   21830050.8444
       928.9754
    593603.47349    442614.64544  21209205.1644   21209201.1764
     -3002.7624
    914434.09847    688923.00042  23353389.0554   23353387.8404
     -4660.5654
    701628.04346    521262.21143  23427168.9224   23427165.8444
     -3541.1604
    634667.33248    472419.20743  23022686.4144   23022681.8754
     -3204.0104
   -309135.63349   -237073.33645  21834726.8914   21834725.3874
      1525.6034
 04  9 14 14 50 30.0000000  0  7G 1G11G14G15G19G22G25
   -298980.40649   -229162.96144  21944071.1884   21944067.9844
      1364.9354
   -206772.50849   -159846.96545  21827425.2504   21827421.8094
       921.2054
    638720.89848    477771.06644  21217790.4844   21217786.7974
     -3007.8284
    984398.12947    743440.36742  23366702.2974   23366701.9304
     -4664.2694
    754811.17247    562703.57043  23437290.0944   23437286.4494
     -3545.5424
    682769.20748    509901.10943  23031839.8674   23031835.7154
     -3206.7924
   -331918.99249   -254826.61345  21830391.6484   21830390.0084
      1518.8914
 04  9 14 14 50 45.0000000  0  7G 1G11G14G15G19G22G25
   -319368.60548   -245049.87544  21940190.9924   21940188.3674
      1359.2134
   -220475.10949   -170524.32045  21824817.8914   21824813.7734
       913.5074
    683912.50049    512985.27344  21226390.4774   21226386.9144
     -3012.7734
   1054415.94947    797999.65642  23380026.2814   23380025.9844
     -4667.8554
    808058.31647    604194.79343  23447421.6804   23447419.3554
     -3549.8104
    730911.31347    547414.39143  23041000.5004   23040997.1334
     -3209.4744
   -354602.73448   -272502.26645  21826074.7504   21826073.5514
      1512.2494
 04  9 14 14 51  0.0000000  0  7G 1G11G14G15G19G22G25
   -339670.80548   -260869.77344  21936327.4774   21936324.9304
      1353.4804
   -234061.77349   -181111.34445  21822232.2974   21822228.7424
       905.7784
    729178.28948    548257.31644  21235004.7504   21235001.3404
     -3017.7194
   1124487.34047    852600.69142  23393360.9844   23393360.4614
     -4671.4264
    861369.08647    645735.62143  23457567.4924   23457564.1844
     -3554.0514
    779093.66847    584959.03943  23050169.4694   23050166.2974
     -3212.1574
   -377186.52748   -290100.03145  21821777.4384   21821775.8984
      1505.5864
 04  9 14 14 51 15.0000000  0  7G 1G11G14G15G19G22G25
   -359887.25049   -276622.85244  21932480.6484   21932478.4184
      1347.7634
   -247532.63749   -191608.12545  21819669.1024   21819665.4774
       898.0584
    774517.54749    583586.60544  21243632.5394   21243629.7034
     -3022.6174
   1194611.78947    907243.07042  23406706.0234   23406703.9964
     -4674.9634
    914742.85247    687325.55543  23467723.9694   23467720.2304
     -3558.2514
    827316.03948    622534.87943  23059346.6024   23059341.9614
     -3214.8254
   -399670.52748   -307620.03944  21817498.7114   21817496.9494
      1498.9334
 04  9 14 14 51 30.0000000  0  7G 1G11G14G15G19G22G25
   -380019.84849   -292310.59444  21928649.6254   21928647.9534
      1342.1734
   -260889.64549   -202016.19145  21817126.8054   21817123.9144
       890.4674
    819928.07048    618971.41044  21252273.1094   21252270.5554
     -3027.3684
   1264787.02747    961925.00442  23420060.0944   23420057.7234
     -4678.3494
    968177.23047    728962.69143  23477892.5084   23477888.0314
     -3562.2924
    875576.50048    660140.37943  23068530.2034   23068525.0084
     -3217.3644
   -422056.27749   -325063.48445  21813238.7344   21813236.9964
      1492.3834
 04  9 14 14 51 45.0000000  0  7G 1G11G14G15G19G22G25
   -400067.61749   -307932.23044  21924834.3674   21924833.0234
      1336.5184
   -274131.46549   -212334.49245  21814607.1484   21814604.2034
       882.7884
    865410.52048    654412.26644  21260928.6094   21260925.4414
     -3032.1634
   1335013.62947   1016646.99242  23433423.7894   23433420.9574
     -4681.7734
   1021672.71147    770647.46143  23488072.2114   23488067.8524
     -3566.3654
    923875.80547    697776.19943  23077720.5004   23077716.4454
     -3219.9544
   -444342.59849   -342429.44545  21808997.8134   21808995.3244
      1485.7554
 04  9 14 14 52  0.0000000  0  7G 1G11G14G15G19G22G25
   -420031.39849   -323488.42645  21921035.7584   21921034.0234
      1330.9194
   -287258.75049   -222563.58245  21812109.6564   21812106.0984
       875.1524
    910963.87548    689908.38744  21269596.9064   21269593.7544
     -3036.8904
   1405290.51646   1071408.16842  23446796.7424   23446794.7934
     -4685.1264
   1075228.05547    812378.86343  23498263.4454   23498259.4614
     -3570.3564
    972213.24647    735441.70743  23086918.6254   23086915.3674
     -3222.4964
   -466530.14549   -359718.44145  21804775.7194   21804773.9454
      1479.1704
 04  9 14 14 52 15.0000000  0  7G 1G11G14G15G19G22G25
   -439911.66448   -338979.54345  21917252.1724   21917251.0664
      1325.3514
   -300271.88349   -232703.69145  21809633.3444   21809629.5784
       867.5424
    956587.30149    725459.10244  21278279.0634   21278275.8404
     -3041.5624
   1475616.85546   1126207.84042  23460179.3754   23460178.2704
     -4688.4234
   1128842.34047    854156.20343  23508465.7974   23508461.5354
     -3574.2864
   1020588.25047    773136.46143  23096124.2344   23096120.7854
     -3225.0004
   -488619.12549   -376930.64144  21800572.6884   21800569.8594
      1472.5994
 04  9 14 14 52 30.0000000  0  7G 1G11G14G15G19G22G25
   -459709.84849   -354406.69544  21913484.8284   21913481.8874
      1319.8794
   -313172.03549   -242755.77745  21807178.4844   21807174.3364
       860.0104
   1002279.02349    761063.02044  21286973.8674   21286971.0354
     -3046.1154
   1545990.87946   1181044.68442  23473570.8914   23473570.4264
     -4691.6024
   1182513.71147    895978.04343  23518678.8674   23518675.7304
     -3578.0914
   1068999.29748    810859.30143  23105337.7814   23105332.9804
     -3227.4034
   -510610.68049   -394066.89845  21796388.0394   21796384.2274
      1466.1044
 04  9 14 14 52 45.0000000  0  7G 1G11G14G15G19G22G25
   -479426.48848   -369770.31644  21909732.5864   21909730.3094
      1314.4434
   -325959.80149   -252720.27345  21804744.9614   21804741.0514
       852.5184
   1048038.10549    796719.43844  21295681.7274   21295677.8404
     -3050.6054
   1616411.59446   1235917.94541  23486970.8914   23486970.9964
     -4694.7144
   1236241.21546    937843.59042  23528902.8594   23528900.3984
     -3581.8344
   1117445.73048    848609.69143  23114556.5004   23114551.5594
     -3229.7624
   -532505.18049   -411127.53945  21792221.1484   21792218.7894
      1459.6334
 04  9 14 14 53  0.0000000  0  7G 1G11G14G15G19G22G25
   -499063.08649   -385071.56644  21905996.3674   21905993.6994
      1309.1074
   -338636.25049   -262598.04345  21802332.8754   21802328.8674
       845.0974
   1093862.82849    832426.97744  21304401.7584   21304398.3914
     -3054.9824
   1686877.30145   1290826.19541  23500380.5394   23500379.6954
     -4697.7144
   1290022.68447    979751.19542  23539137.5084   23539133.9534
     -3585.4314
   1165926.01647    886386.50843  23123781.7974   23123777.6254
     -3232.0194
   -554303.86349   -428113.53145  21788072.8284   21788071.2974
      1453.2464
 04  9 14 14 53 15.0000000  0  7G 1G11G14G15G19G22G25
   -518618.48849   -400309.53944  21902275.1334   21902273.0514
      1303.6934
   -351200.25449   -272388.20345  21799942.7114   21799937.1844
       837.6004
   1139753.96549    868186.27745  21313134.8444   21313131.5434
     -3059.4094
   1757388.68046   1345770.13741  23513798.4694   23513796.6724
     -4700.7594
   1343858.97346   1021701.52743  23549381.5004   23549378.3054
     -3589.0864
   1214441.15647    924190.48843  23133013.7584   23133010.1604
     -3234.3434
   -576005.37549   -445023.79345  21783943.1024   21783941.7194
      1446.7674
 04  9 14 14 53 30.0000000  0  7G 1G11G14G15G19G22G25
   -538093.34848   -415484.76644  21898569.0704   21898567.7424
      1298.3244
   -363652.21149   -282091.03945  21797572.8524   21797568.0984
       830.1304
   1185710.50449    903996.54745  21321880.3834   21321876.3634
     -3063.7694
   1827944.74245   1400748.83241  23527225.2734   23527222.9844
     -4703.7374
   1397748.90647   1063693.68043  23559636.8984   23559633.3554
     -3592.6624
   1262990.46947    962021.06343  23142252.9454   23142248.7274
     -3236.6214
   -597610.18048   -461858.69945  21779831.9614   21779830.2974
      1440.3204
 04  9 14 14 53 45.0000000  0  7G 1G11G14G15G19G22G25
   -557489.68049   -430598.79745  21894878.2424   21894876.5784
      1293.0894
   -375993.93749   -291708.00445  21795224.2584   21795219.4774
       822.7824
   1231730.23849    939856.06644  21330637.2274   21330633.7074
     -3067.9824
   1898543.22346   1455760.55941  23540659.8054   23540658.3134
     -4706.5654
   1451690.12947   1105725.76643  23569901.5704   23569898.1214
     -3596.0824
   1311571.89547    999876.67643  23151498.0004   23151492.8874
     -3238.7624
   -619120.11749   -478619.68045  21775738.7344   21775738.0314
      1433.9964
 04  9 14 14 54  0.0000000  0  7G 1G11G14G15G19G22G25
   -576807.14549   -445651.38344  21891202.2664   21891200.1684
      1287.8314
   -388224.92249   -301238.67245  21792896.5704   21792892.1484
       815.3994
   1277813.10948    975764.78544  21339406.0474   21339402.8634
     -3072.1914
   1969184.21546   1510805.41441  23554104.4304   23554101.5004
     -4709.3994
   1505682.52746   1147797.71143  23580176.0234   23580172.9924
     -3599.4934
   1360185.69547   1037757.52343  23160747.6174   23160744.6644
     -3240.9204
   -640534.56249   -495306.29345  21771664.1174   21771662.4184
      1427.6304
 04  9 14 14 54 15.0000000  0  7G 1G11G14G15G19G22G25
   -596044.53949   -460641.55144  21887541.4924   21887539.2974
      1282.4934
   -400343.88349   -310682.03545  21790590.4924   21790586.8364
       807.9314
   1323959.94948   1011723.33244  21348187.2584   21348184.2624
     -3076.4564
   2039868.29344   1565883.81641  23567553.8524   23567553.1844
     -4712.2724
   1559726.74246   1189910.03143  23590460.2734   23590457.2154
     -3602.9484
   1408832.94547   1075664.48443  23170005.1724   23170001.5434
     -3243.1504
   -661852.13349   -511917.36745  21767607.4924   21767605.0744
      1421.1714
 04  9 14 14 54 30.0000000  0  7G 1G11G14G15G19G22G25
   -615203.25049   -475570.40644  21883895.0944   21883893.4614
      1277.2474
   -412351.99249   -320039.00444  21788304.7424   21788301.5704
       800.5414
   1370169.16048   1047730.48044  21356980.5084   21356977.7934
     -3080.6144
   2110593.89844   1620994.68841  23581011.6564   23581011.6994
     -4715.0404
   1613820.92247   1232061.31343  23600754.0234   23600750.8634
     -3606.2794
   1457512.35247   1113596.45343  23179268.8204   23179264.8164
     -3245.2944
   -683073.96149   -528453.86344  21763568.8834   21763566.8754
      1414.7894
 04  9 14 14 54 45.0000000  0  7G 1G11G14G15G19G22G25
   -634282.18449   -490437.11744  21880264.8134   21880262.5634
      1271.9294
   -424247.98849   -329308.61345  21786041.2814   21786037.5514
       793.0664
   1416441.47748   1083786.79344  21365786.5394   21365782.8244
     -3084.8214
   2181361.74643   1676138.39141  23594477.6724   23594478.7114
     -4717.8574
   1667965.83248   1274252.09043  23611058.0234   23611054.1214
     -3609.6614
   1506224.71548   1151554.10543  23188537.9774   23188535.0044
     -3247.4914
   -704198.62949   -544914.65245  21759548.8594   21759547.4344
      1408.3114
 04  9 14 14 55  0.0000000  0  7G 1G11G14G15G19G22G25
   -653282.35249   -505242.44544  21876649.4774   21876647.5434
      1266.6784
   -436032.72748   -338491.52045  21783798.2584   21783795.3284
       785.6494
   1462775.66848   1119891.34444  21374603.5554   21374600.0004
     -3088.9464
                                  23607950.273
     -4720.673
   1722159.97747   1316481.26243  23621370.5004   23621366.8094
     -3612.9434
   1554969.10547   1189536.72343  23197814.2194   23197811.1804
     -3249.6264
   -725227.03549   -561300.41445  21755547.0004   21755545.0394
      1401.8944
 04  9 14 14 55 15.0000000  0  7G 1G11G14G15G19G22G25
   -672203.07849   -519985.87944  21873049.2034   21873047.2664
      1261.3824
   -447705.43749   -347587.14845  21781577.5164   21781573.7504
       778.1814
   1509172.09849   1156044.38745  21383432.5004   21383429.2704
     -3093.0954
   2323020.215 3                  23621434.969
     -4723.325
   1776403.55547   1358748.96143  23631692.7814   23631689.5234
     -3616.2394
   1603746.05948   1227544.66443  23207096.9384   23207093.2034
     -3251.7974
   -746158.22349   -577610.42245  21751564.4614   21751562.6174
      1395.4124
 04  9 14 14 55 30.0000000  0  7G 1G11G14G15G19G22G25
   -691045.27749   -534668.09044  21869462.9384   21869461.4694
      1256.1474
   -459266.68449   -356595.92645  21779377.3444   21779374.2074
       770.7504
   1555629.57048   1192244.98444  21392273.0634   21392270.1334
     -3097.1654
   2393910.238 4                  23634925.867
     -4726.002
   1830695.18448   1401054.08244  23642024.2894   23642020.4144
     -3619.4424
   1652554.76647   1265577.37543  23216384.4064   23216380.1374
     -3253.9144
   -766992.82448   -593845.18045  21747599.5394   21747596.8554
      1388.9734
 04  9 14 14 55 45.0000000  0  7G 1G11G14G15G19G22G25
   -709810.00849   -549289.96945  21865892.4924   21865890.7344
      1250.9824
   -470717.51249   -365518.66045  21777198.6024   21777195.3404
       763.3894
   1602146.61349   1228492.00845  21401124.6094   21401121.8914
     -3101.1364
   2464838.840 4                  23648424.719
     -4728.573
   1885033.33648   1443395.47743  23652364.3284   23652360.7034
     -3622.5434
   1701393.85247   1303633.80942  23225678.4774   23225673.5394
     -3255.9394
   -787731.85549   -610005.46145  21743653.2894   21743651.1094
      1382.6024
 04  9 14 14 56  0.0000000  0  7G 1G11G14G15G19G22G25
   -728496.58649   -563850.94545  21862336.4224   21862334.7424
      1245.7724
   -482056.98449   -374354.60545  21775040.8204   21775037.0084
       755.9654
   1648723.66448   1264785.78144  21409987.8914   21409985.2274
     -3105.1374
   2535806.363 4                  23661931.242
     -4731.168
   1939418.30548   1485773.34443  23662713.8674   23662709.7074
     -3625.6654
   1750264.09847   1341714.44142  23234977.4694   23234973.8244
     -3258.0164
   -808374.43049   -626090.57845  21739725.0864   21739723.6254
      1376.1724
 04  9 14 14 56 15.0000000  0  7G 1G11G14G15G19G22G25
   -747105.52348   -578351.42645  21858795.0634   21858793.6954
      1240.5964
   -493285.47349   -383104.10245  21772904.4304   21772899.8794
       748.5664
   1695359.79348   1301125.59444  21418862.8284   21418859.7154
     -3109.0754
   2606811.78513                  23675444.859
     -4733.763
   1993849.06348   1528186.88343  23673071.8364   23673067.8404
     -3628.7174
   1799164.78547   1379818.82842  23244283.2274   23244278.9924
     -3260.0464
   -828920.66449   -642100.64145  21735815.4614   21735813.4414
      1369.7494
 04  9 14 14 56 30.0000000  0  6G 1G11G14G19G22G25
   -765634.85949   -592789.87945  21855269.3444   21855267.9384
      1235.2894
   -504401.00449   -391765.57845  21770788.7974   21770784.6254
       741.0354
   1742056.68848   1337512.73844  21427748.9304   21427745.5044
     -3113.1264
   2048327.07447   1570637.24643  23683438.4844   23683434.3594
     -3631.8674
   1848097.93047   1417948.53142  23253595.4064   23253591.7584
     -3262.2104
   -849368.41449   -658033.95745  21731924.3674   21731921.9304
      1363.1834
 04  9 14 14 56 45.0000000  0  6G 1G11G14G19G22G25
   -784086.33649   -607167.66045  21851758.1024   21851756.5634
      1230.0984
   -515405.05949   -400340.18045  21768695.0864   21768690.1374
       733.6044
   1788812.26248   1373945.65244  21436646.0474   21436642.6414
     -3117.0384
   2102850.28547   1613122.84843  23693813.6954   23693810.3204
     -3634.8814
   1897061.72347   1456102.10242  23262912.9454   23262909.3874
     -3264.2534
   -869719.16449   -673891.66045  21728051.3444   21728049.5084
      1356.7174
 04  9 14 14 57  0.0000000  0  6G 1G11G14G19G22G25
   -802459.52349   -621484.42244  21848262.2114   21848259.4064
      1224.8794
   -526296.97349   -408827.40245  21766621.9064   21766618.4694
       726.1284
   1835626.80949   1410424.51645  21445554.6334   21445551.5354
     -3120.9704
   2157418.69147   1655643.62942  23704197.8204   23704193.7504
     -3637.8944
   1946056.67247   1494279.91042  23272236.7894   23272231.7504
     -3266.3304
   -889972.29349   -689673.33645  21724197.5784   21724195.9654
      1350.2094
 04  9 14 14 57 15.0000000  0  6G 1G11G14G19G22G25
   -820755.06649   -635740.69945  21844780.6884   21844777.9884
      1219.7034
   -537077.11749   -417227.53545  21764570.8134   21764567.6804
       718.6764
   1882499.33648   1446948.52744  21454474.2894   21454471.7304
     -3124.8354
   2212031.26247   1698198.81342  23714590.5004   23714585.5634
     -3640.8384
   1995081.88347   1532481.36742  23281565.3364   23281560.9654
     -3268.3474
   -910128.26649   -705379.27345  21720361.8204   21720359.7384
      1343.7324
 04  9 14 14 57 30.0000000  0  6G 1G11G14G19G22G25
   -838973.24649   -649936.68044  21841313.6174   21841311.4614
      1214.5454
   -547745.63349   -425540.68445  21762541.2664   21762537.8954
       711.2344
   1929429.23848   1483517.24244  21463404.1954   21463402.2034
     -3128.6604
   2266687.15247   1740787.79742  23724991.0314   23724986.1134
     -3643.7264
   2044137.09047   1570706.17642  23290900.0084   23290897.0164
     -3270.3474
   -930186.97749   -721009.41845  21716544.7194   21716542.3054
      1337.2474
 04  9 14 14 57 45.0000000  0  6G 1G11G14G19G22G25
   -857114.13749   -664072.45745  21837861.6414   21837859.9144
      1209.3934
   -558302.58649   -433766.89845  21760532.0634   21760528.9614
       703.7974
   1976416.05148   1520130.33644  21472345.2584   21472343.4774
     -3132.4544
   2321385.80147   1783410.07842  23735399.8134   23735395.2274
     -3646.5774
   2093222.18047   1608954.25042  23300241.0944   23300237.6054
     -3272.3394
   -950148.39549   -736563.78145  21712745.8284   21712744.0984
      1330.7614
 04  9 14 14 58  0.0000000  0  6G 1G11G14G19G22G25
   -875178.32049   -678148.42245  21834423.5394   21834421.7344
      1204.2794
   -568748.30149   -441906.43445  21758544.1174   21758540.9734
       696.3814
   2023458.95748   1556787.11744  21481297.4144   21481295.1134
     -3136.1944
   2376126.29346   1826064.96942  23745816.0314   23745812.5354
     -3649.3664
   2142336.38346   1647225.03942  23309586.3134   23309582.6024
     -3274.2804
   -970012.99649   -752042.69145  21708965.9844   21708964.1644
      1324.3074
 04  9 14 14 58 15.0000000  0  6G 1G11G14G19G22G25
   -893164.87549   -692163.92645  21831001.3834   21830998.6804
      1199.1044
   -579081.91449   -449958.59444  21756577.4534   21756574.2274
       688.9084
   2070558.63348   1593488.15244  21490260.9844   21490258.0124
     -3139.9784
   2430908.97346   1868752.74642  23756241.4534   23756237.8284
     -3652.1794
   2191480.46546   1685519.06342  23318937.8914   23318933.9414
     -3276.2724
   -989779.71149   -767445.34045  21705204.4224   21705202.8524
      1317.7814
 04  9 14 14 58 30.0000000  0  6G 1G11G14G19G22G25
   -911074.42649   -706119.42244  21827592.7034   21827591.1644
      1193.9704
   -589303.70349   -457923.62945  21754632.1024   21754628.4414
       681.4534
   2117714.04348   1630232.62143  21499234.0944   21499230.8984
     -3143.6944
   2485732.97346   1911472.70742  23766674.2504   23766670.6374
     -3654.9334
   2240653.96947   1723836.04742  23328295.7034   23328292.7934
     -3278.2344
  -1009448.70349   -782771.82445  21701461.6644   21701459.1254
      1311.2664
 04  9 14 14 58 45.0000000  0  6G 1G11G14G19G22G25
   -928906.53549   -720014.59845  21824199.4304   21824198.3364
      1188.8074
   -599413.10549   -465801.09045  21752708.0234   21752704.6174
       673.9604
   2164925.33648   1667020.62943  21508218.3134   21508214.7154
     -3147.4204
   2540598.18447   1954224.77742  23777114.9774   23777111.0944
     -3657.6814
   2289857.22347   1762176.23442  23337659.6414   23337656.0474
     -3280.2174
  -1029019.42649   -798021.73845  21697737.7734   21697735.5984
      1304.7154
 04  9 14 14 59  0.0000000  0  6G 1G11G14G19G22G25
   -946660.77349   -733849.06245  21820821.5004   21820819.9924
      1183.6164
   -609409.37549   -473590.41045  21750806.0084   21750803.0204
       666.4184
   2212192.80547   1703852.39543  21517212.7894   21517209.8714
     -3151.1654
   2595504.57046   1997008.97742  23787562.4774   23787559.7154
     -3660.4264
   2339090.66847   1800539.90642  23347028.1484   23347023.8284
     -3282.2304
  -1048491.03549   -813194.40645  21694032.2584   21694029.4774
      1298.1074
 04  9 14 14 59 15.0000000  0  7G 1G11G14G15G19G22G25
   -964338.56249   -747623.95345  21817457.0784   21817455.4414
      1178.5194
   -619293.83649   -481292.60245  21748925.2344   21748921.4104
       658.9644
   2259514.57447   1740726.49642  21526217.6484   21526215.0434
     -3154.7854
     66676.24213                  23838134.461

   2650450.26245   2039823.77342  23798018.2504   23798015.3634
     -3663.0464
   2388352.74247   1838925.88742  23356402.4924   23356396.7974
     -3284.1384
  -1067864.94949   -828290.95345  21690345.3444   21690343.5044
      1291.5944
 04  9 14 14 59 30.0000000  0  7G 1G11G14G15G19G22G25
   -981939.78149   -761339.21544  21814108.0784   21814106.2504
      1173.4154
   -629066.25049   -488907.46545  21747065.7274   21747062.5124
       651.4944
   2306890.59046   1777642.84842  21535232.2424   21535229.9454
     -3158.4014
    138144.648 3                  23851732.977
     -4764.560
   2705435.03946   2082669.03942  23808482.7194   23808478.1804
     -3665.6524
   2437643.54345   1877334.25442  23365782.0234   23365777.6024
     -3286.0534
  -1087140.73049   -843311.05945  21686677.7194   21686675.4454
      1285.0524
 04  9 14 14 59 45.0000000  0  6G 1G11G14G19G22G25
   -999465.22349   -774995.39145  21810772.6334   21810771.0354
      1168.3634
   -638727.30949   -496435.56245  21745227.2504   21745224.5394
       644.0714
   2354319.52346   1814600.45342  21544258.8204   21544255.5044
     -3161.9294
   2760457.62545   2125543.70341  23818951.9064   23818948.4654
     -3668.1724
   2486962.19147   1915764.34442  23375167.6954   23375164.0594
     -3287.9104
  -1106318.99649   -858255.16045  21683028.2664   21683025.9144
      1278.5514
 04  9 14 15  0  0.0000000  0  6G 1G11G14G19G22G25
  -1016913.02049   -788591.07045  21807452.7504   21807450.5784
      1163.1864
   -648274.82449   -503875.20345  21743410.1254   21743406.9924
       636.5014
   2401803.30145   1851600.73842  21553294.8204   21553290.8444
     -3165.5854
   2815519.53145   2168449.01241  23829430.1564   23829425.9304
     -3670.7944
   2536310.57046   1954217.57442  23384557.5704   23384554.1564
     -3289.8924
  -1125397.64549   -873121.64145  21679397.6954   21679394.9184
      1271.9104
 04  9 14 15  0 15.0000000  0  6G 1G11G14G19G22G25
  -1034283.12549   -802126.22745  21804147.1024   21804144.8874
      1158.0074
   -657708.73849   -511226.33245  21741615.7424   21741611.8164
       628.9284
   2449341.35545   1888643.41042  21562340.1644   21562337.0274
     -3169.2044
   2870620.10545   2211384.48841  23839916.8594   23839910.9024
     -3673.3724
   2585688.52746   1992693.87142  23393953.8204   23393949.9924
     -3291.8644
  -1144376.37949   -887910.25045  21675786.3204   21675783.3984
      1265.2494
 04  9 14 15  0 30.0000000  0  7G 1G11G14G19G20G22G25
  -1051576.54749   -815601.62945  21800856.0704   21800854.4924
      1152.8954
   -667029.87549   -518489.56245  21739841.3834   21739838.4414
       621.4094
   2496932.66446   1925727.40242  21571397.7894   21571394.2544
     -3172.7544
   2925757.93044   2254349.03541  23850408.6024   23850403.3244
     -3675.8554
    -61001.56256    -46735.91852  24289931.0784   24289925.1604

   2635095.08647   2031192.46542  23403355.9774   23403352.2504
     -3293.7714
  -1163256.08649   -902621.68745  21672193.2194   21672190.7074
      1258.6474
 04  9 14 15  0 45.0000000  0  7G 1G11G14G19G20G22G25
  -1068794.22349   -829018.00845  21797579.7344   21797578.2034
      1147.8454
   -676238.99649   -525665.52045  21738089.2974   21738086.3164
       613.9414
   2544575.68046   1962851.81642  21580463.8524   21580460.5314
     -3176.2014
   2980931.94544   2297341.71541  23860908.2344   23860902.5784
     -3678.2684
    -89780.41047    -69160.98042  24284454.8054   24284449.4024
      1918.5904
   2684529.32047   2069712.59042  23412763.3594   23412760.1094
     -3295.6164
  -1182037.38749   -917256.47345  21668618.9064   21668616.1524
      1252.0874
 04  9 14 15  1  0.0000000  0  7G 1G11G14G19G20G22G25
  -1085935.94549   -842375.19145  21794318.0554   21794315.9064
      1142.7824
   -685335.68049   -532753.84846  21736358.4224   21736355.4264
       606.4464
   2592270.56647   2000016.61342  21589539.8834   21589536.8404
     -3179.6594
   3036141.828 3                  23871412.117
     -3680.659
   -118563.31647    -91589.21142  24278977.0864   24278972.9184
      1918.8604
   2733991.31646   2108254.34442  23422174.9064   23422171.7544
     -3297.4664
  -1200719.98049   -931814.34445  21665064.0944   21665061.8094
      1245.5064
 04  9 14 15  1 15.0000000  0  7G 1G11G14G19G20G22G25
  -1103003.00849   -855674.20345  21791070.5004   21791067.8054
      1137.8044
   -694321.15649   -539755.52045  21734648.4694   21734645.2814
       599.0324
   2640015.67247   2037220.57842  21598625.6024   21598622.3524
     -3183.0074
   3091385.543 4                  23881924.906
     -3682.914
   -147351.65246   -114021.66442  24273496.6334   24273494.8134
      1919.2224
   2783479.69147   2146816.67642  23431593.1024   23431589.5864
     -3299.2254
  -1219304.84849   -946296.05545  21661527.4064   21661526.1054
      1238.9914
 04  9 14 15  1 30.0000000  0  7G 1G11G14G19G20G22G25
  -1119993.24249   -868913.35545  21787837.3914   21787835.5514
      1132.6824
   -703192.89849   -546668.58245  21732960.0554   21732957.1374
       591.4494
   2687812.93846   2074465.16042  21607721.6644   21607717.3594
     -3186.4844
   3146665.203 4                  23892447.273
     -3685.311
   -176143.00445   -136456.47741  24268018.6954   24268015.3204
      1919.4234
   2832996.65246   2185401.26642  23441015.2584   23441011.9344
     -3301.1314
  -1237789.58649   -960699.74645  21658009.7974   21658008.6294
      1232.3164
 04  9 14 15  1 45.0000000  0  7G 1G11G14G19G20G22G25
  -1136909.80949   -882095.10245  21784617.9064   21784617.0704
      1127.7714
   -711954.15649   -553495.53945  21731292.8444   21731289.8364
       584.0844
   2735658.77045   2111747.62942  21616825.7664   21616822.2544
     -3189.7224
   3201976.902 4                  23902972.180
     -3687.447
   -204940.69147   -158896.26242  24262539.6414   24262535.2974
      1919.8464
   2882538.77747   2224005.46942  23450442.7974   23450438.6454
     -3302.8084
  -1256177.17649   -975027.74645  21654511.1954   21654508.5864
      1225.8394
 04  9 14 15  2  0.0000000  0  7G 1G11G14G19G20G22G25
  -1153751.12149   -895218.21545  21781413.8594   21781411.8954
      1122.7544
   -720603.08249   -560234.97745  21729647.1804   21729643.4384
       576.5954
   2783554.45345   2149068.94141  21625940.3364   21625936.4454
     -3193.0464
   3257321.852 4                  23913504.844
     -3689.663
   -233743.17647   -181339.76242  24257058.8204   24257053.9344
      1920.1664
   2932107.77747   2262630.61342  23459875.9844   23459870.6214
     -3304.6004
  -1274465.80549   -989278.59845  21651030.3754   21651028.2464
      1219.2424
 04  9 14 15  2 15.0000000  0  7G 1G11G14G19G20G22G25
  -1170515.05949   -908281.03145  21778223.2504   21778221.4024
      1117.5964
   -729137.40249   -566885.12545  21728023.0704   21728019.3954
       568.9554
   2831502.063 3                  21635066.289
     -3196.507
   3312702.063 4                  23924042.797
     -3692.014
   -262548.25847   -203785.27742  24251576.9844   24251572.9144
      1920.3394
   2981705.64847   2301278.28142  23469313.4614   23469310.4844
     -3306.5254
  -1292653.24249  -1003450.62545  21647569.7344   21647567.7544
      1212.4964
 04  9 14 15  2 30.0000000  0  6G 1G11G19G20G22G25
  -1187203.62949   -921285.11745  21775047.7504   21775045.7974
      1112.5714
   -737558.94949   -573447.38345  21726420.2194   21726416.9064
       561.4364
   3368114.828 4                  23934588.734
     -3694.184
   -291357.84046   -226234.34442  24246093.8674   24246091.4494
      1920.6394
   3031330.37547   2339946.88342  23478757.8284   23478753.8674
     -3308.3154
  -1310741.11749  -1017545.05545  21644128.3914   21644124.9774
      1205.8584
 04  9 14 15  2 45.0000000  0  6G 1G11G19G20G22G25
  -1203816.42249   -934230.13345  21771886.3054   21771884.0514
      1107.5204
   -745867.21149   -579921.37145  21724839.5314   21724835.9024
       553.8844
   3423559.97713                  23945135.406
     -3696.355
   -320171.55946   -248686.59041  24240610.3754   24240607.5824
      1920.9154
   3080982.35246   2378636.68842  23488205.2034   23488201.5004
     -3310.1324
  -1328728.86349  -1031561.47745  21640705.1484   21640702.5864
      1199.1834
 04  9 14 15  3  0.0000000  0  7G 1G11G14G19G20G22G25
  -1220352.28549   -947115.22744  21768739.3524   21768737.5394
      1102.3914
   -754060.71549   -586305.92245  21723280.2974   21723277.2114
       546.2344
     25022.26615                  21662493.758

   3479038.53913                  23955698.281

   -348988.15646   -271141.10242  24235127.8444   24235123.7304
      1921.1074
   3130662.62146   2417348.63342  23497659.8054   23497655.1724
     -3312.0184
  -1346615.09049  -1045498.81645  21637301.1954   21637298.9924
      1192.4154
 04  9 14 15  3 15.0000000  0  7G 1G11G14G19G20G22G25
  -1236811.75049   -959940.79745  21765607.3594   21765605.3594
      1097.2984
   -762139.82849   -592601.33245  21721742.6484   21721739.8284
       538.6084
     73169.094 6                  21671655.852
     -3209.789
   3534549.61713                  23966260.063
      3696.355
   -377808.12547   -293598.23842  24229644.4144   24229639.1804
      1921.3314
   3180370.68848   2456082.13342  23507118.8834   23507115.0594
     -3313.8714
  -1364400.10549  -1059357.26245  21633916.5394   21633915.9774
      1185.6684
 04  9 14 15  3 30.0010000  0  6G 1G11G14G20G22G25
  -1253194.40249   -972706.51645  21762490.6774   21762487.6064
      1092.1774
   -770103.45349   -598806.76645  21720227.3334   21720224.4664
       530.9084
    121370.121 5                  21680826.747
     -3213.402
   -406631.78947   -316058.18742  24224158.4974   24224154.2204
      1921.5784
   3230111.40248   2494841.10942  23516584.8104   23516579.5954
     -3316.0484
  -1382083.31649  -1073136.39845  21630551.8254   21630550.6344
      1178.8814
 04  9 14 15  3 45.0010000  0  6G 1G11G14G20G22G25
  -1269497.71949   -985410.38745  21759387.5604   21759384.7084
      1086.8884
   -777950.03549   -604920.98445  21718734.2554   21718731.3454
       523.1054
    169619.004 5                  21690009.224
     -3216.592
   -435454.96946   -338517.80942  24218673.2474   24218669.8374
      1921.5454
   3279878.32048   2533620.48842  23526054.7944   23526050.2864
     -3317.7954
  -1399661.85549  -1086833.93745  21627206.7864   21627203.8024
      1171.9034
 04  9 14 15  4  0.0010000  0  6G 1G11G14G20G22G25
  -1285723.96149   -998054.19545  21756299.5364   21756296.5714
      1081.7494
   -785681.07849   -610945.19145  21717262.7474   21717259.4854
       515.4034
    217917.379 5                  21699200.700
     -3219.892
   -464280.73846   -360979.45342  24213187.8884   24213186.0174
      1921.7184
   3329673.53548   2572421.92242  23535530.8724   23535526.7864
     -3319.6814
  -1417137.94149  -1100451.66445  21623881.0834   21623878.2434
      1165.0724
 04  9 14 15  4 15.0010000  0  6G 1G11G14G20G22G25
  -1301875.20749  -1010639.59445  21753226.0524   21753223.4464
      1076.7504
   -793298.68049   -616881.00045  21715813.3564   21715809.7004
       507.8404
    266262.83646   2390890.70351  21708399.4664   21708398.2084
     -3223.0304
   -493111.00846   -383444.62942  24207702.2084   24207699.9314
      1922.0184
   3379494.97747   2611243.76242  23545011.0604   23545007.3684
     -3321.4294
  -1434513.45349  -1113991.02045  21620574.5444   21620572.3964
      1158.3674
 04  9 14 15  4 30.0010000  0  7G 1G11G14G19G20G22G25
  -1317949.14549  -1023164.75045  21750167.4274   21750165.5874
      1071.5964
   -800800.27349   -622726.43445  21714386.1854   21714382.3254
       500.1064
    314657.51246   2428600.78141  21717608.3024   21717607.2434
     -3226.3124
     48253.87113                  24019198.521

   -521943.52747   -405911.55142  24202215.6384   24202212.6694
      1922.1684
   3429344.92647   2650087.82442  23554498.4584   23554493.1924
     -3323.3304
  -1451785.68049  -1127449.90245  21617287.8414   21617285.8844
      1151.4824
 04  9 14 15  4 45.0010000  0  7G 1G11G14G19G20G22G25
  -1333945.10549  -1035629.12945  21747123.2944   21747122.0214
      1066.3974
   -808184.93449   -628480.73445  21712981.0214   21712977.3724
       492.3114
    363101.77747   2466349.55941  21726827.2474   21726825.7714
     -3229.6184
                                  24029790.403

   -550777.59447   -428379.65242  24196728.2084   24196723.9624
      1922.2714
   3479224.02047   2688954.57041  23563989.2864   23563983.8804
     -3325.2734
  -1468953.74649  -1140827.60945  21614020.7944   21614018.9034
      1144.5384
 04  9 14 15  5  0.0010000  0  6G 1G11G14G20G22G25
  -1349862.60249  -1048032.39145  21744094.6144   21744092.4894
      1061.1664
   -815452.09049   -634143.45345  21711598.0134   21711595.0954
       484.4774
    411595.97747   2504137.21541  21736056.2314   21736052.6464
     -3232.9474
   -579612.59447   -450848.48842  24191241.7944   24191237.1924
      1922.3334
   3529132.53945   2727844.26241  23573486.1614   23573480.7554
     -3327.2354
  -1486017.02349  -1154123.67645  21610773.7474   21610771.3214
      1137.5524
 04  9 14 15  5 15.0010000  0  6G 1G11G14G20G22G25
  -1365701.60949  -1060374.47345  21741080.4354   21741078.1964
      1055.9344
   -822601.47349   -639714.40645  21710237.3104   21710234.0914
       476.6264
    460139.87147   2541963.67241  21745293.4424   21745289.3684
     -3236.2604
   -608448.50447   -473318.02042  24185753.9114   24185752.0094
      1922.3944
   3579070.68446   2766757.12141  23582988.4034   23582983.7864
     -3329.2104
  -1502975.27349  -1167337.88745  21607546.5754   21607543.7984
      1130.5504
 04  9 14 15  5 30.0010000  0  6G 1G11G14G20G22G25
  -1381465.27348  -1072657.85945  21738080.8414   21738078.5014
      1050.9114
   -829636.16449   -645195.97745  21708898.2004   21708895.2714
       468.9794
    508729.86346   2579824.94541  21754539.8644   21754534.5874
     -3239.3334
   -637288.60947   -495790.83642  24180265.8414   24180264.9814
      1922.6744
   3629035.09446   2805690.37141  23592495.1694   23592492.0794
     -3330.9614
  -1519831.47748  -1180472.58645  21604339.0214   21604337.1694
      1123.7474
 04  9 14 15  5 45.0010000  0  6G 1G11G14G20G22G25
  -1397150.50049  -1084880.11745  21735096.0054   21735094.0244
      1045.6824
   -836552.90249   -650585.65245  21707582.5604   21707578.7904
       461.1164
    557368.85247   2617725.85541  21763795.3334   21763790.2244
     -3242.5994
   -666129.52747   -518264.29342  24174777.8254   24174775.1774
      1922.7284
   3679028.86747   2844646.57441  23602011.1534   23602006.2944
     -3332.9184
  -1536582.31649  -1193525.18745  21601151.3564   21601149.8994
      1116.7234
 04  9 14 15  6  0.0010000  0  6G 1G11G14G20G22G25
  -1412754.99249  -1097039.44545  21732126.9504   21732124.5954
      1040.2994
   -843349.14849   -655881.43045  21706289.3494   21706285.9384
       453.0834
    606058.96147   2655666.28941  21773060.6144   21773056.2824
     -3246.0074
   -694968.92247   -540736.52042  24169289.2244   24169285.6184
      1922.6264
   3729054.39845   2883627.45341  23611529.8644   23611527.3174
     -3335.0354
  -1553225.15249  -1206493.62545  21597984.1224   21597982.1694
      1109.5224
 04  9 14 15  6 15.0010000  0  6G 1G11G14G20G22G25
  -1428279.02349  -1109136.11345  21729172.4894   21729170.8104
      1034.9354
   -850025.01649   -661083.43745  21705019.1384   21705015.3804
       445.0584
    654799.43447   2693645.83641  21782335.7944   21782332.3844
     -3249.3654
   -723807.15247   -563207.85942  24163801.2394   24163798.2244
      1922.5494
   3779111.04746   2922632.62941  23621055.6534   23621052.7784
     -3337.1104
  -1569760.26649  -1219378.11345  21594837.7084   21594835.8214
      1102.3414
 04  9 14 15  6 30.0010000  0  6G 1G11G14G20G22G25
  -1443723.98849  -1121171.14845  21726233.0214   21726231.7394
      1029.6644
   -856582.00049   -666192.78145  21703771.2474   21703768.0524
       437.1324
    703588.65247   2731663.43041  21791620.4034   21791618.3374
     -3252.6154
   -752645.49646   -585679.35942  24158314.8414   24158312.1064
      1922.5564
   3829197.63747   2961661.05942  23630587.9894   23630583.0794
     -3339.1064
  -1586188.73449  -1232179.52045  21591711.7394   21591710.2634
      1095.2314
 04  9 14 15  6 45.0010000  0  6G 1G11G14G20G22G25
  -1459089.47349  -1133144.25045  21723308.7164   21723307.7514
      1024.3664
   -863019.31649   -671208.87545  21702546.3804   21702543.0364
       429.1544
    752426.84447   2769719.19941  21800914.0134   21800911.2474
     -3255.8794
   -781483.65247   -608150.65642  24152826.2244   24152824.0364
      1922.5444
   3879314.53547   3000713.10541  23640123.7714   23640120.1344
     -3341.1274
  -1602509.85949  -1244897.27745  21588605.6144   21588603.8104
      1088.0754
 04  9 14 15  7  0.0010000  0  6G 1G11G14G20G22G25
  -1474375.65249  -1145055.57845  21720400.6534   21720398.9544
      1019.0794
   -869337.09049   -676131.83245  21701343.9584   21701340.3764
       421.1854
    801313.58647   2807812.79741  21810216.6464   21810212.9934
     -3259.1164
   -810321.59047   -630621.77342  24147339.0834   24147335.5244
      1922.5294
   3929461.46147   3039788.53541  23649666.9974   23649662.9584
     -3343.1284
  -1618723.62549  -1257531.38745  21585520.3494   21585518.7864
      1080.9184
 04  9 14 15  7 15.0010000  0  6G 1G11G14G20G22G25
  -1489582.13748  -1156904.78945  21717507.1694   21717505.3684
      1013.7664
   -875534.79749   -680961.20745  21700164.4664   21700160.8454
       413.1804
    850248.91847   2845944.23441  21819529.0054   21819524.7674
     -3262.3554
   -839158.77747   -653092.30942  24141851.7244   24141847.7674
      1922.4794
   3979638.78146   3078887.69942  23659214.7314   23659211.1964
     -3345.1554
  -1634829.50448  -1270081.43745  21582455.5754   21582454.3174
      1073.7254
 04  9 14 15  7 30.0010000  0  6G 1G11G14G20G22G25
  -1504708.74648  -1168691.76245  21714628.6694   21714625.7944
      1008.4414
   -881611.93049   -685696.63345  21699007.8804   21699004.4934
       405.1424
    899232.78547   2884113.46542  21828850.2474   21828845.9664
     -3265.5914
   -867995.10947   -675562.18442  24136364.4274   24136361.4114
      1922.4224
   4029846.65646   3118010.68842  23668769.2864   23668766.0284
     -3347.1924
  -1650827.06648  -1282547.06245  21579411.2314   21579410.0054
      1066.5044
 04  9 14 15  7 45.0010000  0  6G 1G11G14G20G22G25
  -1519757.71949  -1180418.24645  21711765.0364   21711762.5634
      1003.2654
   -887570.56249   -690339.75045  21697874.0834   21697870.6264
       397.2424
    948262.73047   2922318.59842  21838180.5994   21838177.0834
     -3268.6634
   -896832.67247   -698032.98042  24130876.2784   24130873.8884
      1922.5044
   4080082.69946   3157155.69942  23678329.2084   23678325.7204
     -3349.0704
  -1666718.30149  -1294929.84045  21576387.2714   21576385.0834
      1059.4164
 04  9 14 15  8  0.0010000  0  6G 1G11G14G20G22G25
  -1534728.74649  -1192083.98045  21708916.2474   21708913.5094
       998.0684
   -893410.32049   -694890.21545  21696762.9034   21696759.1264
       389.3174
    997338.91046   2960559.77341  21847519.0364   21847515.7284
     -3271.7454
   -925671.11347   -720504.50442  24125388.7864   24125385.3134
      1922.5634
   4130347.34846   3196322.89142  23687893.6614   23687890.9074
     -3350.9774
  -1682502.63749  -1307229.30545  21573384.0834   21573380.1924
      1052.2894
 04  9 14 15  8 15.0010000  0  6G 1G11G14G20G22G25
  -1549619.93749  -1203687.49645  21706081.7714   21706078.8494
       992.7464
   -899129.19549   -699346.50445  21695674.7084   21695671.5754
       381.2584
   1046462.71946   2998838.05541  21856866.9744   21856863.0994
     -3274.9214
   -954508.59047   -742975.24242  24119901.0994   24119896.0324
      1922.4984
   4180642.41046   3235513.84841  23697464.8564   23697461.7554
     -3353.0044
  -1698178.01249  -1319443.87545  21570401.0364   21570397.8764
      1045.0254
 04  9 14 15  8 30.0010000  0  6G 1G11G14G20G22G25
  -1564433.08649  -1215230.22745  21703263.6064   21703260.5874
       987.5434
   -904728.85949   -703709.88745  21694609.2944   21694605.5834
       373.3114
   1095632.16446   3037151.89841  21866223.6304   21866219.9234
     -3277.9634
   -983346.81647   -765446.62942  24114413.2944   24114408.7164
      1922.5484
   4230966.03145   3274726.97741  23707040.5604   23707038.1884
     -3354.9084
  -1713746.15249  -1331574.87545  21567438.4814   21567435.7164
      1037.8764
 04  9 14 15  8 45.0010000  0  6G 1G11G14G20G22G25
  -1579168.62949  -1226712.46145  21700459.3414   21700457.2514
       982.3704
   -910209.54349   -707980.55945  21693566.4664   21693562.7084
       365.3794
   1144846.49645   3075500.68841  21875588.7714   21875585.0214
     -3280.9554
  -1012186.15247   -787918.82842  24108925.6464   24108921.9624
      1922.6224
   4281317.68446   3313962.00841  23716622.3644   23716619.9544
     -3356.7774
  -1729207.09049  -1343622.34846  21564496.4424   21564494.7244
      1030.7294
 04  9 14 15  9  0.0010000  0  6G 1G11G14G20G22G25
  -1593825.12149  -1238133.09445  21697670.2164   21697668.1034
       977.0994
   -915569.61749   -712157.25045  21692546.0914   21692542.8564
       357.3384
   1194107.02745   3113885.50441  21884962.0994   21884959.2314
     -3284.0354
  -1041025.15647   -810390.77742  24103437.3024   24103434.9894
      1922.6004
   4331698.86746   3353220.02341  23726210.0524   23726206.9664
     -3358.7464
  -1744559.33249  -1355585.14546  21561575.1064   21561572.9664
      1023.4834
 04  9 14 15  9 15.0010000  0  6G 1G11G14G20G22G25
  -1608403.64149  -1249492.98045  21694895.7164   21694893.4584
       971.9014
   -920810.02349   -716240.68745  21691549.1774   21691545.5524
       349.3604
   1243412.26645   3152305.16041  21894345.1464   21894341.7714
     -3287.0164
  -1069864.75447   -832863.21942  24097949.5134   24097947.0284
      1922.6404
   4382108.40246   3392500.15241  23735801.9664   23735798.3994
     -3360.6364
  -1759803.73849  -1367463.90645  21558673.4354   21558671.9584
      1016.2944
 04  9 14 15  9 30.0010000  0  6G 1G11G14G20G22G25
  -1622903.86348  -1260791.88745  21692136.6224   21692134.4934
       966.6824
   -925930.44149   -720230.63345  21690574.7244   21690571.3064
       341.3614
   1292762.30144   3190759.66841  21903736.0444   21903732.3374
     -3290.0024
  -1098704.64847   -855335.87942  24092461.6224   24092459.6654
      1922.6604
   4432546.60945   3431802.56341  23745401.3334   23745396.2354
     -3362.5474
  -1774939.82849  -1379258.27745  21555793.8804   21555791.3374
      1009.0734
 04  9 14 15  9 45.0010000  0  6G 1G11G14G20G22G25
  -1637326.37148  -1272030.21545  21689392.5604   21689390.2744
       961.5014
   -930931.10949   -724127.26245  21689623.1694   21689619.5094
       333.3784
   1342156.41444   3229248.57441  21913135.9894   21913131.4074
     -3292.9414
  -1127545.26647   -877809.06642  24086973.2164   24086971.2084
      1922.7084
   4483012.76246   3471126.79741  23755003.7864   23754999.0284
     -3364.4104
  -1789967.84048  -1390968.40246  21552933.7714   21552931.9664
      1001.8674
 04  9 14 15 10  0.0010000  0  6G 1G11G14G20G22G25
  -1651670.29348  -1283207.29745  21686662.3884   21686660.9384
       956.2614
   -935810.94149   -727929.75445  21688694.5604   21688691.0014
       325.3224
   1391595.33244   3267772.35541  21922542.2314   21922540.0094
     -3295.9284
  -1156385.58646   -900282.04342  24081484.6464   24081481.9784
      1922.6884
   4533507.96145   3510473.51241  23764613.0214   23764608.4784
     -3366.3474
  -1804886.68448  -1402593.47345  21550095.1924   21550092.3534
       994.5904
 04  9 14 15 10 15.0010000  0  6G 1G11G14G20G22G25
  -1665937.17247  -1294324.34845  21683947.2394   21683945.2714
       951.1254
   -940571.49249   -731639.27345  21687788.4114   21687785.1034
       317.3704
   1441077.08644   3306329.37141  21931960.1384   21931956.1104
     -3298.7844
  -1185227.23846   -922756.02042  24075996.8494   24075993.7204
      1922.7774
   4584030.23845   3549841.61341  23774227.4354   23774222.4464
     -3368.1524
  -1819697.68048  -1414134.50846  21547276.5754   21547274.5244
       987.4004
 04  9 14 15 10 30.0010000  0  6G 1G11G14G20G22G25
  -1680125.19948  -1305379.94545  21681247.5284   21681245.4664
       945.8684
   -945210.71549   -735254.26645  21686905.9894   21686902.8644
       309.2824
   1490603.22344   3344921.21941  21941385.1774   21941380.7084
     -3301.7424
  -1214068.32446   -945229.60242  24070508.8494   24070506.0634
      1922.7394
   4634581.84046   3589232.40241  23783846.9424   23783842.0524
     -3370.1074
  -1834398.95348  -1425590.03145  21544478.8024   21544476.5674
       980.0854
 04  9 14 15 10 45.0010000  0  6G 1G11G14G20G22G25
  -1694233.91449  -1316373.74645  21678562.9664   21678561.4974
       940.5814
   -949727.95349   -738774.20345  21686046.0674   21686042.9504
       301.1494
   1540174.00445   3383547.81341  21950818.6854   21950814.0444
     -3304.7194
  -1242908.29746   -967702.28142  24065020.8024   24065017.2674
      1922.6654
   4685162.93046   3628646.15241  23793472.5524   23793466.8644
     -3372.0734
  -1848989.75849  -1436959.46945  21541702.2784   21541699.6924
       972.7204
 04  9 14 15 11  0.0010000  0  6G 1G11G14G20G22G25
  -1708264.37149  -1327306.60545  21675893.3724   21675891.0604
       935.3644
   -954124.27349   -742199.91845  21685209.6774   21685206.4744
       293.0884
   1589788.15244   3422208.18441  21960257.6534   21960255.0404
     -3307.6104
  -1271748.07846   -990174.83642  24059531.6304   24059528.5714
      1922.6524
   4735772.47745   3668082.08641  23803103.4814   23803098.5364
     -3373.9704
  -1863470.91849  -1448243.49645  21538946.6144   21538943.9354
       965.4114
 04  9 14 15 11 15.0010000  0  6G 1G11G14G20G22G25
  -1722217.29349  -1338179.00845  21673238.0524   21673235.1534
       930.1954
   -958400.12549   -745531.75045  21684396.0754   21684392.4314
       285.0574
   1639444.64144   3460901.50441  21969707.9974   21969704.1144
     -3310.4334
  -1300588.34846  -1012647.78942  24054044.3254   24054040.6064
      1922.6854
   4786409.66046   3707539.59841  23812739.2864   23812735.9424
     -3375.8124
  -1877842.96949  -1459442.49245  21536211.6304   21536209.0244
       958.1374
 04  9 14 15 11 30.0010000  0  6G 1G11G14G20G22G25
  -1736091.89849  -1348990.38345  21670597.4034   21670595.2984
       924.9744
   -962554.59849   -748769.01245  21683605.3644   21683602.0094
       276.9654
   1689144.01245   3499628.26241  21979164.9894   21979162.1654
     -3313.2914
  -1329428.22745  -1035120.42242  24048556.9504   24048553.1854
      1922.6594
   4837075.31647   3747019.24241  23822381.5524   23822377.4704
     -3377.7104
  -1892104.96549  -1470555.73445  21533498.1534   21533496.1104
       950.8004
 04  9 14 15 11 45.0010000  0  6G 1G11G14G20G22G25
  -1749888.57849  -1359741.04345  21667972.3644   21667970.7984
       919.7794
   -966587.94949   -751911.89145  21682837.4504   21682834.3884
       268.8904
   1738885.55945   3538387.90241  21988630.8804   21988628.0054
     -3316.1034
  -1358268.17246  -1057593.04742  24043067.4114   24043065.7044
      1922.6634
   4887768.93446   3786520.69142  23832027.7784   23832023.0014
     -3379.5744
  -1906257.02349  -1481583.32045  21530804.9114   21530803.0214
       943.4714
 04  9 14 15 12  0.0010000  0  6G 1G11G14G20G22G25
  -1763606.00049  -1370429.94945  21665361.6774   21665360.6614
       914.4954
   -970498.67249   -754959.19945  21682093.3334   21682089.9894
       260.7154
   1788670.53146   3577181.44941  21998104.4584   21998101.1814
     -3318.9984
  -1387106.59846  -1080064.56642  24037579.8804   24037576.3214
      1922.5624
   4938491.89146   3826045.01642  23841679.6534   23841675.9034
     -3381.5304
  -1920297.61749  -1492524.03945  21528132.8884   21528131.1884
       936.0404
 04  9 14 15 12 15.0010000  0  6G 1G11G14G20G22G25
  -1777244.47749  -1381057.33645  21662766.4814   21662764.5874
       909.2324
   -974286.97349   -757911.12145  21681372.1924   21681369.4584
       252.5534
   1838498.17245   3616008.19541  22007586.4974   22007584.1574
     -3321.8434
  -1415943.90646  -1102535.21542  24032092.3804   24032088.3294
      1922.4874
   4989243.77746   3865591.91841  23851337.1224   23851333.8564
     -3383.4594
  -1934226.89149  -1503377.99646  21525482.0754   21525479.9934
       928.6184
 04  9 14 15 12 30.0010000  0  6G 1G11G14G20G22G25
  -1790804.35549  -1391623.47745  21660186.3104   21660184.0754
       903.9924
   -977952.93449   -760767.71945  21680675.1774   21680671.8214
       244.3974
   1888368.01645   3654867.85942  22017076.7474   22017074.9744
     -3324.6564
  -1444780.24246  -1125005.09042  24026605.0054   24026602.3884
      1922.4224
   5040024.32046   3905161.20741  23861000.4114   23860997.7474
     -3385.3704
  -1948044.94949  -1514145.30945  21522852.6064   21522849.5284
       921.2044
 04  9 14 15 12 45.0010000  0  6G 1G11G14G20G22G25
  -1804285.84049  -1402128.53545  21657620.9114   21657618.7084
       898.7664
   -981496.76649   -763529.18045  21680000.5444   21679997.0444
       236.2554
   1938279.70344   3693760.04741  22026574.4814   22026572.3684
     -3327.4464
  -1473615.81646  -1147474.37142  24021117.6304   24021116.9544
      1922.3724
   5090833.25047   3944752.52041  23870669.0054   23870666.2634
     -3387.2624
  -1961751.73049  -1524825.92645  21520244.7164   21520241.5054
       913.7854
 04  9 14 15 13  0.0010000  0  6G 1G11G14G20G22G25
  -1817689.06249  -1412572.60545  21655070.0994   21655068.2394
       893.5484
   -984918.41049   -766195.39845  21679349.2084   21679346.3684
       228.1104
   1988232.72344   3732684.55941  22036080.5914   22036077.8414
     -3330.2014
  -1502450.60946  -1169943.08242  24015631.6304   24015630.4744
      1922.3204
   5141670.37147   3984365.77342  23880343.5754   23880340.6304
     -3389.1414
  -1975347.23449  -1535419.81646  21517657.6144   21517655.0524
       906.3674
 04  9 14 15 13 15.0010000  0  6G 1G11G14G20G22G25
  -1831012.12549  -1422954.21945  21652534.8644   21652532.8534
       888.2044
   -988215.91849   -768764.87945  21678721.9034   21678719.2124
       219.8344
                                  22045594.0214   22045591.7124
     -3332.9574
  -1531282.69946  -1192409.65242  24010144.2944   24010143.5444
      1922.1394
   5192537.52047   4024002.46142  23890023.4814   23890020.4544
     -3391.1434
  -1988829.36749  -1545925.37545  21515091.3964   21515088.8454
       898.8094
 04  9 14 15 13 30.0010000  0  5G 1G11G20G22G25
  -1844256.80149  -1433274.75445  21650014.8024   21650012.5564
       882.9784
   -991390.77049   -771238.80145  21678117.6224   21678114.5174
       211.6574
  -1560113.76247  -1214875.36342  24004657.4114   24004653.6654
      1922.0714
   5243433.03147   4063661.27042  23899708.2244   23899705.8024
     -3393.0344
  -2002199.81649  -1556343.90245  21512547.4034   21512544.4854
       891.3634
 04  9 14 15 13 45.0010000  0  5G 1G11G20G22G25
  -1857422.78149  -1443533.96945  21647509.4274   21647506.9234
       877.7324
   -994442.44549   -773616.73445  21677536.8964   21677533.9424
       203.4454
  -1588943.30547  -1237339.93442  23999172.3964   23999166.8644
      1921.9704
   5294357.15646   4103342.32042  23909398.7004   23909395.9854
     -3394.9424
  -2015457.94949  -1566674.91045  21510023.9894   21510021.9314
       883.8764
 04  9 14 15 14  0.0010000  0  6G 1G11G14G20G22G25
  -1870507.34449  -1453729.71945  21645018.9744   21645017.1344
       872.3044
   -997368.17249   -775896.53945  21676980.7164   21676977.2124
       195.0484
     50785.86314                  22074184.591

  -1617768.73447  -1259801.29342  23993686.3644   23993683.7554
      1921.6954
   5345312.57846   4143047.80141  23919094.4664   23919091.7744
     -3397.0284
  -2028600.85949  -1576916.14145  21507523.6534   21507521.1104
       876.1944
 04  9 14 15 14 15.0010000  0  6G 1G11G14G20G22G25
  -1883510.76249  -1463862.25445  21642544.9354   21642542.4314
       866.8954
  -1000168.14549   -778078.34445  21676447.9114   21676443.9544
       186.6654
    100950.676 4                  22083728.825
     -3344.321
  -1646590.21946  -1282259.56242  23988201.9034   23988199.0404
      1921.4324
   5396298.93846   4182777.36741  23928796.8724   23928795.2634
     -3399.0914
  -2041628.55149  -1587067.59046  21505043.9974   21505042.2594
       868.5134
 04  9 14 15 14 30.0010000  0  6G 1G11G14G20G22G25
  -1896433.10949  -1473931.61345  21640085.3174   21640083.2244
       861.4904
  -1002842.19549   -780162.02345  21675938.9354   21675935.0404
       178.2704
    151158.16013                  22093282.380
     -6688.642
  -1675407.57446  -1304714.65642  23982718.0134   23982715.8414
      1921.1574
   5447316.14846   4222530.98041  23938506.2164   23938502.0404
     -3401.1474
  -2054540.98449  -1597129.22745  21502586.6694   21502585.0054
       860.8294
 04  9 14 15 14 45.0010000  0  6G 1G11G14G20G22G25
  -1909276.15249  -1483939.17245  21637641.6224   21637639.5484
       856.2034
  -1005391.95749   -782148.85245  21675453.2784   21675450.0284
       169.9844
    201406.387 4                  22102846.661
     -3349.882
  -1704222.54346  -1327167.90642  23977234.6924   23977232.1654
      1920.9984
   5498362.37946   4262307.19542  23948219.7714   23948215.5134
     -3403.0824
  -2067339.68449  -1607102.21546  21500151.3644   21500149.3564
       853.2474
 04  9 14 15 15  0.0010000  0  6G 1G11G14G20G22G25
  -1922039.72349  -1493884.83645  21635213.2084   21635211.4814
       850.9054
  -1007817.10949   -784038.60245  21674992.4274   21674988.3454
       161.6774
    251695.160 4                  22112414.638
     -3352.585
  -1733034.95746  -1349619.15642  23971751.8964   23971749.7434
      1920.8284
   5549437.83246   4302106.18042  23957938.9744   23957936.8564
     -3405.0304
  -2080024.33649  -1616986.36346  21497737.7864   21497735.5564
       845.6434
 04  9 14 15 15 15.0010000  0  6G 1G11G14G20G22G25
  -1934723.14549  -1503768.02745  21632799.1304   21632798.0994
       845.5614
  -1010116.90249   -785830.66045  21674554.7084   21674550.7984
       153.3204
    302025.094 4                  22121992.653
     -3355.329
  -1761843.96146  -1372067.70742  23966269.2714   23966267.5754
      1920.6004
   5600543.16846   4341928.50842  23967663.7474   23967662.5754
     -3407.0224
  -2092594.04349  -1626780.95346  21495345.8254   21495343.1734
       837.9804
 04  9 14 15 15 30.0010000  0  6G 1G11G14G20G22G25
  -1947325.58649  -1513588.13345  21630401.4354   21630399.6344
       840.1634
  -1012290.29749   -787524.22745  21674141.3494   21674136.8214
       144.8934
    352396.848 5                  22131579.302
     -3358.117
  -1790648.67647  -1394513.00042  23960789.4034   23960786.7124
      1920.3144
   5651679.26246   4381774.78542  23977394.4504   23977393.2204
     -3409.0734
  -2105047.75849  -1636485.13745  21492975.6464   21492973.8644
       830.2484
 04  9 14 15 15 45.0010000  0  6G 1G11G14G20G22G25
  -1959848.49249  -1523346.23045  21628018.3564   21628016.5214
       834.8604
  -1014338.62949   -789120.35245  21673751.0754   21673747.5364
       136.5554
    402808.613 5                  22141171.067
     -3360.784
  -1819450.55947  -1416956.03542  23955309.4974   23955305.9784
      1920.1264
   5702844.61346   4421643.82842  23987132.1304   23987128.7554
     -3411.0234
  -2117386.89849  -1646100.05946  21490627.8254   21490625.9464
       822.6094
 04  9 14 15 16  0.0010000  0  6G 1G11G14G20G22G25
  -1972292.32049  -1533042.71145  21625650.1694   21625648.6464
       829.5894
  -1016262.12949   -790619.16445  21673385.5134   21673381.4034
       128.2334
    453260.016 4                  22150770.255
     -3363.427
  -1848249.80147  -1439396.96942  23949827.6854   23949823.8064
      1919.9494
   5754038.73047   4461535.24242  23996874.8494   23996869.4234
     -3412.9414
  -2129611.51649  -1655625.72746  21488301.6304   21488299.8254
       814.9744
 04  9 14 15 16 15.0010000  0  6G 1G11G14G20G22G25
  -1984656.27749  -1542676.96945  21623297.4424   21623295.8604
       824.2644
  -1018060.02349   -792020.12545  21673043.5284   21673039.5484
       119.8604
    503751.148 5                  22160381.396
     -3366.076
  -1877045.60247  -1461835.22742  23944347.8104   23944343.3764
      1919.7204
   5805262.44545   4501449.72741  24006621.5524   24006617.4784
     -3414.9144
  -2141720.65649  -1665061.42246  21485997.6224   21485995.8494
       807.2764
 04  9 14 15 16 30.0010000  0  6G 1G11G14G20G22G25
  -1996940.14849  -1552248.82845  21620959.7314   21620958.0714
       818.9254
  -1019731.89849   -793322.89546  21672725.2784   21672721.5284
       111.4584
    554282.180 4                  22169996.302
     -3368.735
  -1905837.58647  -1484270.51642  23938868.5054   23938864.7744
      1919.4664
   5856515.71944   4541387.36341  24016373.2554   24016370.5174
     -3416.8854
  -2153713.91049  -1674406.81245  21483715.2714   21483713.6264
       799.5504
 04  9 14 15 16 45.0010000  0  6G 1G11G14G20G22G25
  -2009144.64549  -1561758.81645  21618637.1854   21618635.0174
       813.6334
  -1021278.26249   -794527.86345  21672430.9354   21672427.3684
       103.0914
    604852.328 3                  22179617.927
     -3371.343
  -1934626.35947  -1506703.33242  23933391.3104   23933388.9664
      1919.2524
   5907797.94145   4581347.50041  24026131.6144   24026129.0674
     -3418.8154
  -2165591.78549  -1683662.28545  21481454.7864   21481452.4584
       791.8584
 04  9 14 15 17  0.0010000  0  6G 1G11G14G20G22G25
  -2021269.55949  -1571206.79345  21616330.0444   21616327.5674
       808.3284
  -1022698.82049   -795634.81245  21672160.3964   21672157.0324
        94.7044
    655461.40214                  22189257.817
     -3373.951
  -1963411.68447  -1529133.42642  23927912.4114   23927911.5564
      1919.0224
   5959109.49246   4621330.46542  24035898.3024   24035894.8964
     -3420.7704
  -2177353.93049  -1692827.59045  21479216.6384   21479214.4464
       784.1434
 04  9 14 15 17 15.0010000  0  5G 1G11G20G22G25
  -2033314.47349  -1580592.46145  21614038.5054   21614035.4894
       802.9944
  -1023993.08249   -796643.33645  21671914.1144   21671910.8884
        86.2844
  -1992193.09446  -1551560.52742  23922435.7784   23922433.7714
      1918.7614
   6010450.44945   4661336.40642  24045667.0754   24045665.2354
     -3422.7304
  -2188999.81649  -1701902.30145  21477000.4744   21476998.4934
       776.3924
 04  9 14 15 17 30.0010000  0  5G 1G11G20G22G25
  -2045280.88749  -1589916.93445  21611761.3724   21611759.2394
       797.7614
  -1025162.35549   -797554.46145  21671691.4114   21671688.1104
        77.9524
  -2020971.96547  -1573985.63342  23916958.8804   23916956.7784
      1918.5914
   6061819.43445   4701364.14841  24055442.7004   24055441.0244
     -3424.5994
  -2200530.60249  -1710887.32446  21474805.8494   21474804.2434
       768.7194
 04  9 14 15 17 45.0010000  0  5G 1G11G20G22G25
  -2057167.68749  -1599179.37145  21609498.8494   21609497.4234
       792.4534
  -1026205.40249   -798367.22345  21671493.0604   21671489.6304
        69.5364
  -2049747.12546  -1596407.85542  23911483.7864   23911481.6424
      1918.3444
   6113217.50445   4741414.57841  24065222.9274   24065221.1534
     -3426.5384
  -2211945.01649  -1719781.66446  21472633.9664   21472632.0954
       760.9614
 04  9 14 15 18  0.0010000  0  5G 1G11G20G22G25
  -2068975.04749  -1608379.92245  21607251.9194   21607250.7354
       787.1574
  -1027122.30149   -799081.69545  21671318.4974   21671315.1574
        61.1274
  -2078518.65647  -1618827.21942  23906009.8724   23906006.3294
      1918.1024
   6164644.45745   4781487.50441  24075008.8174   24075007.5094
     -3428.4644
  -2223243.15249  -1728585.40646  21470483.9194   21470481.7514
       753.2094
 04  9 14 15 18 15.0010000  0  5G 1G11G20G22G25
  -2080702.65648  -1617518.32045  21605020.4504   21605019.6814
       781.8414
  -1027912.55149   -799697.49645  21671168.8494   21671164.8764
        52.6834
  -2107286.12548  -1641243.40642  23900535.0524   23900531.4074
      1917.8314
   6216100.73845   4821583.25841  24084801.2554   24084799.3494
     -3430.4194
  -2234424.36748  -1737298.05146  21468356.6774   21468354.4074
       745.4144
 04  9 14 15 18 30.0010000  0  5G 1G11G20G22G25
  -2092351.73447  -1626595.51245  21602803.3564   21602802.3564
       776.6054
  -1028577.17249   -800215.39145  21671041.8494   21671038.2744
        44.3084
  -2136050.61748  -1663657.25842  23895060.8024   23895058.4784
      1917.6334
   6267585.14145   4861700.85541  24094599.2244   24094595.9624
     -3432.2934
  -2245489.75448  -1745920.42646  21466250.8174   21466249.1654
       737.6924
 04  9 14 15 18 45.0010000  0  5G 1G11G20G22G25
  -2103920.66847  -1635610.28145  21600602.1224   21600600.1104
       771.2624
  -1029114.64549   -800634.19545  21670939.4424   21670935.9784
        35.8324
  -2164810.43747  -1686067.54742  23889587.5604   23889585.4424
      1917.3214
   6319099.04744   4901841.46541  24104401.9584   24104398.5834
     -3434.2604
  -2256437.52748  -1754451.14846  21464167.3964   21464165.1654
       729.8524
 04  9 14 15 19  0.0010000  0  5G 1G11G20G22G25
  -2115409.16049  -1644562.35945  21598416.1854   21598413.7714
       765.8994
  -1029524.20349   -800953.33645  21670861.5134   21670858.4274
        27.3044
  -2193565.08647  -1708473.81242  23884117.3564   23884113.6924
      1916.9774
   6370642.77044   4942005.44941  24114209.3564   24114207.1694
     -3436.2484
  -2267267.12149  -1762889.77346  21462106.7474   21462104.1774
       721.9734
 04  9 14 15 19 15.0010000  0  5G 1G11G20G22G25
  -2126819.95749  -1653453.88345  21596244.9664   21596242.8174
       760.7204
  -1029808.60249   -801174.95345  21670807.7084   21670804.2594
        18.9604
  -2222317.25848  -1730878.09442  23878644.7634   23878640.8644
      1916.8114
   6422213.67245   4982190.50441  24124023.3724   24124020.4544
     -3438.0604
  -2277981.09449  -1771238.33246  21460067.5754   21460065.4584
       714.2654
 04  9 14 15 19 30.0010000  0  6G 1G11G14G20G22G25
  -2138151.96149  -1662284.01645  21594088.0994   21594086.6614
       755.4674
  -1029966.53149   -801298.02746  21670777.4664   21670774.2354
        10.5294
     52342.69914                  22285951.153

  -2251065.69947  -1753279.49242  23873174.7164   23873170.6854
      1916.5634
   6473812.77345   5022397.60241  24133840.0604   24133839.8174
     -3439.9404
  -2288578.07849  -1779495.73046  21458051.2244   21458049.0214
       706.4664
 04  9 14 15 19 45.0010000  0  6G 1G11G14G20G22G25
  -2149404.33249  -1671052.08645  21591946.5754   21591945.1614
       750.1584
  -1029997.26649   -801321.98845  21670771.4274   21670768.8994
         2.0494
    103362.414 4                  22295660.583
     -3401.314
  -2279809.51247  -1775677.25442  23867704.2634   23867701.5364
      1916.2544
   6525440.87145   5062627.26641  24143666.4894   24143664.9194
     -3441.8734
  -2299057.05549  -1787661.16846  21456057.2944   21456054.9704
       698.5984
 04  9 14 15 20  0.0010000  0  6G 1G11G14G20G22G25
  -2160577.79349  -1679758.69545  21589820.8174   21589818.6424
       744.8974
  -1029901.36349   -801247.25445  21670789.1304   21670787.0014
        -6.3934
    154417.840 3                  22305378.216
     -3403.695
  -2308549.33648  -1798071.93742  23862235.7314   23862233.3534
      1915.9884
   6577097.25045   5102878.89141  24153497.7784   24153493.8104
     -3443.7594
  -2309418.74249  -1795735.20746  21454085.9814   21454083.3214
       690.7794
 04  9 14 15 20 15.0010000  0  6G 1G11G14G20G22G25
  -2171671.66049  -1688403.26246  21587709.9424   21587708.3724
       739.5914
  -1029677.78149   -801073.01645  21670831.7004   21670829.3994
       -14.9054
                                  22315104.364
     -3406.076
  -2337284.46148  -1820462.93442  23856768.3414   23856765.0634
      1915.6754
   6628782.64146   5143153.10541  24163333.2244   24163329.2284
     -3445.6934
  -2319662.12549  -1803717.05546  21452136.4744   21452134.3414
       682.8924
 04  9 14 15 20 30.0010000  0  5G 1G11G20G22G25
  -2182686.11749  -1696985.96146  21585613.8964   21585612.4894
       734.2974
  -1029326.62549   -800799.39845  21670898.9664   21670895.8454
       -23.4104
  -2366014.78948  -1842850.19542  23851300.2084   23851296.8334
      1915.3554
   6680496.85546   5183449.84041  24173174.3414   24173171.0134
     -3447.6144
  -2329787.18049  -1811606.69946  21450209.3804   21450207.5834
       675.0044
 04  9 14 15 20 45.0010000  0  5G 1G11G20G22G25
  -2193620.25449  -1705506.06645  21583532.6384   21583531.4504
       728.9424
  -1028846.98449   -800425.68745  21670990.2554   21670986.1694
       -31.9764
  -2394739.37947  -1865232.98042  23845834.0914   23845829.8994
      1914.9734
   6732240.73445   5223769.67641  24183020.2164   24183016.1064
     -3449.5924
  -2339792.80149  -1819403.28546  21448305.4974   21448303.0834
       667.0414
 04  9 14 15 21  0.0010000  0  5G 1G11G20G22G25
  -2204474.96148  -1713964.28545  21581466.8724   21581465.6304
       723.6474
  -1028239.47349   -799952.32045  21671106.1144   21671102.5634
       -40.5014
  -2423458.94147  -1887611.87542  23840369.0444   23840365.7044
      1914.6384
   6784013.32845   5264111.94541  24192871.6384   24192867.5524
     -3451.5064
  -2349679.72348  -1827107.37546  21446423.9894   21446421.7314
       659.1284
 04  9 14 15 21 15.0010000  0  5G 1G11G20G22G25
  -2215250.24249  -1722360.61345  21579417.1144   21579415.3214
       718.3524
  -1027504.06649   -799379.27045  21671246.2244   21671243.2944
       -49.0274
  -2452173.44547  -1909986.84442  23834904.0914   23834902.8174
      1914.3004
   6835814.65646   5304476.55941  24202729.1304   24202726.7394
     -3453.4224
  -2359447.85249  -1834718.89846  21444565.1144   21444563.1034
       651.2094
 04  9 14 15 21 30.0010000  0  5G 1G11G20G22G25
  -2225946.04349  -1730694.99245  21577381.8884   21577379.7824
       713.0534
  -1026640.51649   -798706.37546  21671410.5834   21671408.2554
       -57.5704
  -2480882.62146  -1932357.67242  23829442.4424   23829439.5214
      1913.9454
   6887644.88746   5344863.68442  24212592.6064   24212590.5634
     -3455.3494
  -2369096.97349  -1842237.67645  21442728.9114   21442726.6924
       643.2754
 04  9 14 15 21 45.0010000  0  5G 1G11G20G22G25
  -2236562.02349  -1738967.16045  21575360.8334   21575359.3494
       707.7324
  -1025648.44149   -797933.32845  21671599.0444   21671596.5094
       -66.1384
  -2509586.25847  -1954724.14542  23823980.4194   23823976.2864
      1913.5764
   6939504.21546   5385273.47341  24222461.3964   24222458.4154
     -3457.2894
  -2378626.50049  -1849663.29746  21440915.5674   21440913.1694
       635.3024
 04  9 14 15 22  0.0010000  0  5G 1G11G20G22G25
  -2247099.39149  -1747178.12145  21573356.2864   21573354.3924
       702.4914
  -1024528.93049   -797060.99245  21671811.8884   21671808.9624
       -74.6344
  -2538285.30547  -1977087.05142  23818519.0754   23818515.4784
      1913.2704
   6991391.40246   5425704.93441  24232335.1144   24232332.4234
     -3459.1464
  -2388037.66449  -1856996.65646  21439124.5524   21439122.3964
       627.4114
 04  9 14 15 22 15.0010000  0  6G 1G11G14G20G22G25
  -2257556.70349  -1755326.67246  21571366.0754   21571365.1854
       697.1544
  -1023280.29749   -796088.06645  21672049.9034   21672045.7084
       -83.2424
     34241.59414                  22393121.286

  -2566978.14847  -1999445.11342  23813058.3174   23813054.2714
      1912.8564
   7043307.87145   5466159.29341  24242213.8254   24242211.2004
     -3461.0984
  -2397328.59049  -1864236.35546  21437356.7634   21437355.7714
       619.3954
 04  9 14 15 22 30.0010000  0  6G 1G11G14G20G22G25
  -2267935.02049  -1763413.66845  21569391.4034   21569389.8294
       691.8884
  -1021903.59449   -795015.32845  21672311.9424   21672308.2824
       -91.7804
     85647.863 4                  22402901.950
     -3427.085
  -2595665.75447  -2021799.08642  23807598.8174   23807595.7354
      1912.5074
   7095252.51245   5506635.60941  24252098.9974   24252095.1854
     -3462.9764
  -2406500.22349  -1871383.05946  21435611.4114   21435610.2674
       611.4424
 04  9 14 15 22 45.0010000  0  6G 1G11G14G20G22G25
  -2278233.68049  -1771438.61345  21567431.6774   21567429.8454
       686.5774
  -1020397.97349   -793842.13345  21672598.6384   21672595.6854
      -100.3754
    137088.246 4                  22412690.200
     -3429.359
  -2624347.40647  -2044148.44142  23802140.8104   23802138.0564
      1912.1104
   7147226.05546   5547134.43441  24261990.1534   24261985.8764
     -3464.9034
  -2415551.75449  -1878436.19546  21433888.6144   21433886.5634
       603.4354
 04  9 14 15 23  0.0010000  0  6G 1G11G14G20G22G25
  -2288453.27049  -1779401.92245  21565486.5284   21565484.8334
       681.3064
  -1018763.83249   -792568.77046  21672909.0834   21672906.6224
      -108.9434
    188562.105 4                  22422485.591
     -3431.591
  -2653023.46546  -2066493.44542  23796684.9354   23796681.2744
      1911.7374
   7199228.08244   5587655.41041  24271885.2714   24271882.1184
     -3466.8024
  -2424483.52749  -1885396.03946  21432189.6924   21432187.0244
       595.4524
 04  9 14 15 23 15.0010000  0  6G 1G11G14G20G22G25
  -2298593.39849  -1787303.32045  21563556.9974   21563555.5014
       676.0094
  -1017000.80549   -791194.99645  21673244.8414   21673241.8174
      -117.5354
    240069.35915                  22432288.708
     -3433.822
  -2681693.57847  -2088833.77742  23791228.5754   23791225.8884
      1911.3414
   7251258.65244   5628198.60541  24281785.7554   24281784.0754
     -3468.7054
  -2433295.16449  -1892262.23445  21430512.0994   21430509.5634
       587.4424
 04  9 14 15 23 30.0010000  0  6G 1G11G14G20G22G25
  -2308654.73049  -1795143.32846  21561642.4194   21561640.9624
       670.7554
  -1015109.40649   -789721.18745  21673604.8884   21673601.0174
      -126.0934
    291609.230 5                  22442095.739
     -3435.991
  -2710358.12947  -2111169.80543  23785774.5604   23785771.4384
      1910.9704
   7303317.32844   5668763.85541  24291690.9034   24291690.7244
     -3470.5784
  -2441986.91049  -1899034.99245  21428857.9974   21428855.3254
       579.4504
 04  9 14 15 23 45.0010000  0  6G 1G11G14G20G22G25
  -2318637.34449  -1802921.98845  21559742.9744   21559741.2284
       665.5084
  -1013089.47749   -788147.22345  21673989.1614   21673985.5014
      -134.6624
    343181.453 5                  22451910.505
     -3438.148
  -2739017.16047  -2133501.52343  23780320.9974   23780318.1494
      1910.6024
   7355403.79744   5709350.73441  24301603.4744   24301602.3924
     -3472.4314
  -2450558.74649  -1905714.34446  21427227.2784   21427224.8564
       571.4564
 04  9 14 15 24  0.0010000  0  6G 1G11G14G20G22G25
  -2328540.49249  -1810638.70746  21557858.6144   21557856.3334
       660.2104
  -1010940.23049   -786472.48845  21674397.9194   21674394.8494
      -143.2834
    394786.531 4                  22461730.021
     -3440.339
  -2767669.68448  -2155828.15643  23774868.8254   23774865.4074
      1910.1684
   7407519.06645   5749960.03141  24311521.7784   24311518.4854
     -3474.3514
  -2459009.73849  -1912299.54346  21425619.3334   21425617.3174
       563.3994
 04  9 14 15 24 15.0010000  0  5G 1G11G20G22G25
  -2338365.43049  -1818294.49646  21555988.6224   21555987.3994
       654.9964
  -1008662.80549   -784697.88745  21674831.6224   21674828.8534
      -151.8284
  -2796316.91048  -2178150.66443  23769417.0524   23769413.6464
      1909.8154
   7459661.80946   5790590.66041  24321445.5604   24321440.7084
     -3476.1834
  -2467340.86749  -1918791.32446  21424033.6144   21424031.6614
       555.4094
 04  9 14 15 24 30.0010000  0  5G 1G11G20G22G25
  -2348110.94549  -1825888.43446  21554134.5994   21554132.3764
       649.7014
  -1006255.74249   -782822.27345  21675289.5524   21675286.7824
      -160.4714
  -2824957.49647  -2200468.00042  23763965.2004   23763963.2084
      1909.3724
   7511833.04745   5831243.48441  24331372.5524   24331368.5914
     -3478.0834
  -2475550.95349  -1925188.79746  21422471.1144   21422468.7714
       547.3394
 04  9 14 15 24 45.0010000  0  5G 1G11G20G22G25
  -2357776.83649  -1833420.29346  21552295.0754   21552293.0014
       644.3934
  -1003718.86749   -780845.48445  21675772.0524   21675769.5914
      -169.1254
  -2853591.16047  -2222779.97742  23758517.1304   23758514.7514
      1908.9114
   7564032.98845   5871918.71141  24341304.6224   24341300.9354
     -3479.9964
  -2483639.46149  -1931491.53546  21420932.2314   21420930.1464
       539.2344
 04  9 14 15 25  0.0010000  0  5G 1G11G20G22G25
  -2367363.26249  -1840890.23846  21550470.9894   21550468.9744
       639.0954
  -1001052.23849   -778767.58645  21676279.6144   21676276.7904
      -177.7754
  -2882217.92647  -2245086.54342  23753070.2944   23753066.7004
      1908.4514
   7616261.55145   5912616.17241  24351244.6694   24351240.8214
     -3481.9044
  -2491606.43749  -1937699.57046  21419416.3024   21419414.0404
       531.1324
 04  9 14 15 25 15.0010000  0  6G 1G11G14G20G22G25
  -2376870.45349  -1848298.43446  21548661.9584   21548659.4194
       633.8134
   -998255.94949   -776588.68045  21676812.2944   21676808.3994
      -186.4194
     64179.49613                  22510922.075

  -2910837.87947  -2267387.82042  23747624.8804   23747620.8414
      1907.9974
   7668518.55544   5953335.86741  24361187.7164   24361185.7554
     -3483.8004
  -2499451.84849  -1943812.86746  21417923.0914   21417921.0754
       523.0274
 04  9 14 15 25 30.0010000  0  5G 1G11G20G22G25
  -2386298.34449  -1855644.83245  21546867.3644   21546865.4664
       628.5264
   -995329.68749   -774308.48845  21677368.7864   21677365.3924
      -195.0844
  -2939450.84848  -2289683.59842  23742178.4744   23742176.1424
      1907.5314
   7720804.03145   5994077.81341  24371137.5834   24371136.8994
     -3485.6984
  -2507175.57449  -1949831.35245  21416453.4114   21416450.9314
       514.9154
 04  9 14 15 25 45.0010000  0  5G 1G11G20G22G25
  -2395646.46149  -1862929.08246  21545088.3884   21545086.4424
       623.2084
   -992272.85949   -771926.56245  21677950.2784   21677946.3334
      -203.7894
  -2968056.13746  -2311973.44142  23736735.2944   23736732.0174
      1907.0194
   7773118.57445   6034842.33641  24381093.1384   24381091.4934
     -3487.6364
  -2514776.90249  -1955754.44546  21415007.0444   21415004.8454
       506.7554
 04  9 14 15 26  0.0010000  0  5G 1G11G20G22G25
  -2404915.25049  -1870151.53146  21543324.9664   21543322.5954
       617.9194
   -989085.97349   -769443.27745  21678556.6534   21678553.7204
      -212.4594
  -2996654.15248  -2334257.64543  23731294.6304   23731290.1924
      1906.5344
   7825461.49244   6075629.05941  24391053.5214   24391050.9114
     -3489.5284
  -2522256.05149  -1961582.35246  21413583.7634   21413581.2904
       498.6104
 04  9 14 15 26 15.0010000  0  5G 1G11G20G22G25
  -2414103.78149  -1877311.43746  21541577.0134   21541574.4354
       612.5694
   -985767.87549   -766857.73845  21679188.0914   21679185.8134
      -221.2074
  -3025243.75048  -2356535.25443  23725853.9664   23725850.8414
      1905.9734
   7877833.78945   6116438.60941  24401019.2634   24401016.6694
     -3491.4864
  -2529612.03149  -1967314.28546  21412184.0604   21412181.8214
       490.3994
 04  9 14 15 26 30.0010000  0  6G 1G11G14G20G22G25
  -2423213.44949  -1884409.85546  21539842.9114   21539841.2634
       607.3114
   -982319.85949   -764170.98846  21679844.3414   21679841.7554
      -229.8684
     45682.79314                  22560265.685

  -3053826.17248  -2378807.28543  23720413.6694   23720413.2784
      1905.4954
   7930234.20745   6157270.09841  24410990.9894   24410988.2944
     -3493.3614
  -2536845.86349  -1972951.03146  21410807.7004   21410804.7944
       482.2554
 04  9 14 15 26 45.0010000  0  6G 1G11G14G20G22G25
  -2432243.53149  -1891446.29746  21538124.5364   21538122.8604
       602.0054
   -978741.12549   -761382.38346  21680525.6464   21680522.3534
      -238.5824
     97636.188 2                  22570150.864
     -3463.560
  -3082400.59447  -2401073.08643  23714976.9114   23714975.2594
      1904.9614
   7982663.30945   6198123.89541  24420968.4584   24420965.0014
     -3495.2734
  -2543956.88349  -1978492.08246  21409453.7004   21409452.0994
       474.0684
 04  9 14 15 27  0.0010000  0  5G 1G11G20G22G25
  -2441193.89149  -1898420.59846  21536420.9664   21536419.4704
       596.6914
   -975031.37149   -758491.68045  21681231.3104   21681227.5794
      -247.3174
  -3110966.71948  -2423332.39542  23709540.7164   23709536.9814
      1904.4084
   8035121.24645   6239000.12141  24430950.9974   24430946.9624
     -3497.1964
  -2550944.69549  -1983937.12546  21408124.5604   21408121.9544
       465.8544
 04  9 14 15 27 15.0010000  0  6G 1G11G14G20G22G25
  -2450065.45749  -1905333.51646  21534732.9354   21534731.1964
       591.4384
   -971191.48449   -755499.55545  21681962.1924   21681958.9544
      -255.9924
    201634.68413                  22589945.122

  -3139525.42247  -2445585.91842  23704106.0604   23704102.2984
      1903.9144
   8087607.10945   6279898.12941  24440938.4894   24440934.8334
     -3499.0584
  -2557810.16049  -1989286.84446  21406818.2714   21406815.4664
       457.6984
 04  9 14 15 27 30.0010000  0  6G 1G11G14G20G22G25
  -2458857.41849  -1912184.39845  21533059.9194   21533057.8454
       586.1314
   -967220.35249   -752405.18745  21682717.7244   21682714.9114
      -264.7424
    253678.977 3                  22599845.583
     -3469.620
  -3168075.64147  -2467832.83242  23698673.0604   23698669.8454
      1903.3484
   8140121.66046   6320818.51241  24450931.5754   24450927.9034
     -3500.9704
  -2564552.30549  -1994540.45346  21405534.8724   21405532.9154
       449.4764
 04  9 14 15 27 45.0010000  0  5G 1G11G20G22G25
  -2467570.65649  -1918973.93445  21531402.0674   21531399.1814
       580.8834
   -963118.93049   -749209.28545  21683498.3644   21683495.6264
      -273.4284
  -3196618.28148  -2490073.83243  23693241.6144   23693238.3214
      1902.8434
   8192664.15245   6361760.69541  24460929.6694   24460926.7824
     -3502.8334
  -2571171.69149  -1999698.41446  21404275.3174   21404273.6734
       441.2924
 04  9 14 15 28  0.0010000  0  5G 1G11G20G22G25
  -2476204.41049  -1925701.52746  21529759.2554   21529757.1224
       575.5844
   -958886.35949   -745911.17645  21684303.4114   21684300.2864
      -282.1714
  -3225152.36747  -2512308.17642  23687811.2394   23687809.2674
      1902.2724
   8245235.18845   6402725.07441  24470933.3564   24470931.1264
     -3504.7364
  -2577667.34049  -2004759.95346  21403039.1924   21403038.1734
       433.0434
 04  9 14 15 28 15.0010000  0  5G 1G11G20G22G25
  -2484757.67649  -1932366.40646  21528130.8884   21528130.0284
       570.2184
   -954521.47749   -742509.98045  21685134.4504   21685130.2394
      -290.9924
  -3253676.62547  -2534534.90242  23682384.0604   23682380.7284
      1901.6174
   8297835.73045   6443712.45341  24480943.8174   24480941.3964
     -3506.7034
  -2584038.17649  -2009724.24246  21401827.2784   21401825.3414
       424.7224
 04  9 14 15 28 30.0010000  0  6G 1G11G14G20G22G25
  -2493232.52349  -1938970.19946  21526518.8334   21526517.3604
       564.9904
   -950026.32049   -739007.27345  21685990.2084   21685985.7434
      -299.6774
                                  22639517.786

  -3282193.16847  -2556755.59043  23676957.6304   23676954.3104
      1901.1034
   8350463.84846   6484721.26641  24490959.3024   24490955.8214
     -3508.5414
  -2590286.31649  -2014592.90646  21400638.0754   21400635.5994
       416.5434
 04  9 14 15 28 45.0010000  0  6G 1G11G14G20G22G25
  -2501628.56249  -1945512.56646  21524921.2314   21524919.5714
       559.7364
   -945400.19149   -735402.51645  21686870.1464   21686866.3104
      -308.4094
    109909.777 4                  22649448.903
     -3479.399
  -3310701.33647  -2578969.75442  23671532.8494   23671529.7394
      1900.5454
   8403119.91846   6525751.82841  24500979.5134   24500976.2634
     -3510.4054
  -2596410.84449  -2019365.26646  21399472.8494   21399470.6424
       408.3024
 04  9 14 15 29  0.0010000  0  6G 1G11G14G20G22G25
  -2509945.02349  -1951992.91046  21523338.0674   21523336.7634
       554.4314
   -940642.30549   -731695.07845  21687775.3564   21687772.7474
      -317.1924
    162130.555 4                  22659385.489
     -3481.385
  -3339200.18747  -2601176.64843  23666109.3414   23666107.1464
      1899.9234
   8455804.59845   6566804.82041  24511005.9274   24511002.1964
     -3512.3124
  -2602410.99649  -2024040.70746  21398330.8024   21398328.8564
       400.0104
 04  9 14 15 29 15.0010000  0  6G 1G11G14G20G22G25
  -2518181.60949  -1958411.03546  21521770.5364   21521768.7314
       549.1064
   -935752.34449   -727884.73045  21688706.0364   21688703.3644
      -325.9974
    214380.90213                  22669328.153
     -3483.371
  -3367689.40247  -2623376.04343  23660687.7474   23660686.2204
      1899.2814
   8508518.46545   6607880.49241  24521036.1144   24521032.8134
     -3514.2584
  -2608286.36349  -2028618.91046  21397212.4584   21397210.0874
       391.6914
 04  9 14 15 29 30.0010000  0  6G 1G11G14G20G22G25
  -2526340.31649  -1964768.46545  21520218.3414   21520215.9974
       543.9144
   -930732.21149   -723972.95345  21689661.9664   21689658.1144
      -334.6764
    266658.20713                  22679275.427
     -3485.357
  -3396170.71547  -2645569.26243  23655267.6384   23655265.2164
      1898.7544
   8561259.14844   6648977.09441  24531071.6694   24531069.0524
     -3516.0464
  -2614038.74649  -2033101.29346  21396117.9274   21396115.3644
       383.4924
 04  9 14 15 29 45.0010000  0  6G 1G11G14G20G22G25
  -2534419.35949  -1971063.83646  21518681.3174   21518678.9784
       538.6034
   -925579.84849   -719958.13746  21690641.9354   21690637.9464
      -343.4914
    318964.55113                  22689228.075
     -3487.342
  -3424642.30547  -2667754.93442  23649850.0994   23649846.6614
      1898.1064
   8614028.64145   6690096.13341  24541112.6534   24541110.4074
     -3517.9664
  -2619666.21949  -2037486.31246  21395046.9354   21395044.4784
       375.1654
 04  9 14 15 30  0.0010000  0  6G 1G11G14G20G22G25
  -2542418.09449  -1977296.60946  21517159.1464   21517156.3604
       533.2494
   -920294.65249   -715839.82845  21691647.8804   21691644.0284
      -352.3464
    371300.23413                  22699190.489
     -3489.328
  -3453103.38748  -2689932.39543  23644434.2784   23644430.7394
      1897.4054
   8666827.55146   6731238.07841  24551161.2784   24551157.2354
     -3519.9274
  -2625167.88349  -2041773.32446  21394000.1144   21393997.6184
       366.7784
 04  9 14 15 30 15.0010000  0  6G 1G11G14G20G22G25
  -2550337.97749  -1983467.94146  21515652.2944   21515649.5014
       527.9924
   -914877.97349   -711619.05545  21692678.4814   21692674.7244
      -361.1124
    423663.58214                  22709153.255
     -3491.314
  -3481555.18448  -2712102.60943  23639019.3254   23639017.9744
      1896.7864
   8719654.33245   6772401.77041  24561212.8884   24561211.5324
     -3521.7854
  -2630545.10249  -2045963.35946  21392977.1304   21392974.2204
       358.4814
 04  9 14 15 30 30.0010000  0  6G 1G11G14G20G22G25
  -2558178.95749  -1989577.78946  21514159.4274   21514157.9114
       522.7324
   -909329.64849   -707295.67645  21693733.8174   21693730.3104
      -369.8884
    476054.543 4                  22719125.403
     -3492.731
  -3509997.49648  -2734265.48443  23633608.2554   23633605.6854
      1896.1544
   8772509.18045   6813587.35241  24571271.1464   24571271.0994
     -3523.6574
  -2635797.71949  -2050056.28546  21391977.5444   21391975.5564
       350.1744
 04  9 14 15 30 45.0010000  0  6G 1G11G14G20G22G25
  -2565940.78949  -1995625.96946  21512682.2944   21512681.3134
       517.4554
   -903649.20749   -702869.36345  21694815.0524   21694811.9894
      -378.6964
    528473.012 5                  22729100.731
     -3494.565
  -3538429.91048  -2756420.62543  23628197.5604   23628194.8024
      1895.4944
   8825392.44145   6854795.02742  24581334.9664   24581333.4814
     -3525.5514
  -2640925.37149  -2054051.87146  21391001.6064   21390999.6694
       341.8434
 04  9 14 15 31  0.0010000  0  6G 1G11G14G20G22G25
  -2573623.08649  -2001612.19146  21511220.8254   21511219.7944
       512.1534
   -897836.28149   -698339.82846  21695921.1384   21695918.6774
      -387.5284
    580919.336 4                  22739079.708
     -3496.422
  -3566851.96548  -2778567.66043  23622788.9424   23622785.8534
      1894.8044
   8878304.23845   6896024.90641  24591403.1694   24591400.0794
     -3527.4534
  -2645927.53549  -2057949.66446  21390049.5914   21390047.7354
       333.4784
 04  9 14 15 31 15.0010000  0  5G 1G11G20G22G25
  -2581226.37949  -2007536.83246  21509773.9274   21509772.5674
       506.8864
   -891891.17649   -693707.28945  21697052.5604   21697050.2864
      -396.3404
  -3595264.02048  -2800706.92243  23617382.6144   23617379.3644
      1894.1374
   8931244.14845   6937276.66041  24601477.3884   24601473.8724
     -3529.3274
  -2650804.55149  -2061749.94146  21389121.6224   21389119.6964
       325.1344
 04  9 14 15 31 30.0010000  0  5G 1G11G20G22G25
  -2588752.50849  -2013401.34046  21508341.4504   21508339.9584
       501.7424
   -885815.71549   -688973.16445  21698208.5674   21698205.6614
      -405.0314
  -3623667.63348  -2822839.58243  23611975.9664   23611973.6464
      1893.5744
   8984210.38345   6978549.01241  24611556.7784   24611553.8994
     -3531.0824
  -2655557.98849  -2065453.90245  21388217.0604   21388214.8134
       316.8964
 04  9 14 15 31 45.0020000  0  5G 1G11G20G22G25
  -2596200.21549  -2019204.75046  21506924.4324   21506923.0684
       496.5144
   -879607.64149   -684135.71145  21699390.0104   21699385.8224
      -413.8724
  -3652062.85947  -2844965.76243  23606573.8774   23606570.8694
      1893.0154
   9037208.08646   7019845.88742  24621642.5494   24621640.4984
     -3533.1804
  -2660186.31649  -2069060.37546  21387336.2604   21387333.4754
       308.5554
 04  9 14 15 32  0.0020000  0  5G 1G11G20G22G25
  -2603568.83249  -2024946.52746  21505522.7134   21505520.3344
       491.2414
   -873268.10949   -679195.84045  21700596.6434   21700592.0844
      -422.6354
  -3680446.16448  -2867082.63743  23601172.6894   23601170.0254
      1892.2204
   9090229.99646   7061161.64841  24631731.0884   24631730.1624
     -3534.7944
  -2664688.92649  -2072568.89546  21386479.3774   21386476.4084
       300.1744
 04  9 14 15 32 15.0020000  0  5G 1G11G20G22G25
  -2610856.71549  -2030625.37945  21504135.6824   21504132.9124
       485.8594
   -866794.31649   -674151.33645  21701828.7834   21701824.4714
      -431.5864
  -3708817.13748  -2889189.86743  23595773.6114   23595770.5764
      1891.3984
   9143281.69145   7102500.55941  24641827.2214   24641825.7954
     -3536.7804
  -2669063.96549  -2075978.00046  21385646.8614   21385644.6544
       291.6694
 04  9 14 15 32 30.0020000  0  5G 1G11G20G22G25
  -2618066.39149  -2036243.31246  21502762.9394   21502761.5884
       480.6454
   -860188.86349   -669004.24645  21703085.4324   21703082.2254
      -440.3644
  -3737178.19148  -2911289.39143  23590376.2834   23590373.5494
      1890.7374
   9196360.66045   7143860.79742  24651927.6194   24651927.2214
     -3538.5984
  -2673313.77049  -2079289.52346  21384838.0334   21384835.8894
       283.3204
 04  9 14 15 32 45.0020000  0  5G 1G11G20G22G25
  -2625197.37949  -2041799.92246  21501406.4714   21501404.9284
       475.3994
   -853451.03549   -663754.00445  21704367.5414   21704364.2014
      -449.1894
  -3765528.43448  -2933380.49243  23584981.9164   23584978.1784
      1890.0164
   9249467.50846   7185242.71541  24662033.2134   24662033.5374
     -3540.4574
  -2677437.70349  -2082502.98446  21384053.5024   21384051.3224
       274.9294
 04  9 14 15 33  0.0020000  0  5G 1G11G20G22G25
  -2632249.48849  -2047295.07046  21500064.2684   21500062.5804
       470.1414
   -846580.68749   -658400.47345  21705674.6044   21705671.1234
      -458.0234
  -3793867.65248  -2955462.98443  23579588.9864   23579585.5374
      1889.2814
   9302602.21146   7226646.36741  24672145.8694   24672144.4394
     -3542.3144
  -2681435.54349  -2085618.18446  21383292.5724   21383290.7254
       266.5234
 04  9 14 15 33 15.0020000  0  5G 1G11G20G22G25
  -2639224.13349  -2052729.87145  21498736.8694   21498734.9984
       464.9764
   -839578.95349   -652944.60545  21707007.1894   21707004.2254
      -466.7824
  -3822197.07048  -2977537.86343  23574198.0024   23574195.8464
      1888.6284
   9355763.56346   7268070.73441  24682262.2054   24682259.1934
     -3544.0904
  -2685308.39849  -2088636.00046  21382555.8074   21382553.6354
       258.1904
 04  9 14 15 33 30.0020000  0  4G 1G11G20G25
  -2646120.62948  -2058103.76246  21497425.0414   21497422.6624
       459.7664
   -832445.10549   -647385.77746  21708364.7914   21708362.1504
      -475.5904
  -3850515.89848  -2999604.50043  23568809.8614   23568808.0574
      1887.9224
  -2689055.64149  -2091555.90646  21381842.6114   21381840.2364
       249.8164
 04  9 14 15 33 45.0020000  0  4G 1G11G20G25
  -2652940.10949  -2063417.62946  21496126.8544   21496125.5294
       454.6324
   -825180.16049   -641724.77745  21709747.2364   21709744.4204
      -484.3304
  -3878825.04348  -3021663.57443  23563422.9944   23563420.1894
      1887.2764
  -2692678.05949  -2094378.57846  21381153.5644   21381151.2714
       241.4954
 04  9 14 15 34  0.0020000  0  4G 1G11G20G25
  -2659682.26249  -2068671.27046  21494844.1894   21494842.6154
       449.4774
   -817783.64849   -635961.26245  21711154.6504   21711152.0334
      -493.1014
  -3907123.97348  -3043714.68743  23558037.2684   23558034.3694
      1886.5954
  -2696175.26649  -2097103.66446  21380487.6824   21380485.8544
       233.1474
 04  9 14 15 34 15.0020000  0  4G 1G11G20G25
  -2666346.22348  -2073863.96146  21493576.3464   21493574.2794
       444.2644
   -810255.02048   -630094.81646  21712587.8224   21712584.7564
      -501.9094
  -3935411.89848  -3065757.23443  23552653.6354   23552650.8184
      1885.8624
  -2699546.23449  -2099730.39146  21379846.2054   21379843.9634
       224.7314
 04  9 14 15 34 30.0020000  0  4G 1G11G20G25
  -2672931.84448  -2078995.60946  21492323.4084   21492321.2014
       439.0414
   -802593.59049   -624124.88746  21714045.7604   21714042.9394
      -510.7624
  -3963688.25048  -3087790.76643  23547272.7524   23547270.8224
      1885.0904
  -2702790.70749  -2102258.54746  21379228.8074   21379226.4594
       216.2984
 04  9 14 15 34 45.0020000  0  4G 1G11G20G25
  -2679440.18749  -2084067.03146  21491084.3544   21491082.7954
       433.8904
   -794800.49249   -618052.35245  21715528.2054   21715525.7054
      -519.5404
  -3991954.02748  -3109816.08243  23541894.2294   23541891.9244
      1884.3854
  -2705909.56649  -2104688.80946  21378635.8074   21378633.4434
       207.9244
 04  9 14 15 35  0.0020000  0  4G 1G11G20G25
  -2685870.75449  -2089077.86746  21489860.4554   21489858.8574
       428.7044
   -786875.10549   -611876.73445  21717036.3384   21717033.1824
      -528.3594
  -4020208.71148  -3131832.70743  23536517.6894   23536514.5454
      1883.6464
  -2708902.30949  -2107020.80546  21378066.0104   21378064.0534
       199.5164
 04  9 14 15 35 15.0020000  0  4G 1G11G20G25
  -2692224.61748  -2094028.93046  21488651.4084   21488649.8224
       423.5914
   -778818.53148   -605598.88345  21718569.9634   21718565.8504
      -537.1054
  -4048453.00848  -3153841.23443  23531143.2604   23531139.6624
      1882.9534
  -2711769.72349  -2109255.17246  21377520.0964   21377517.8424
       191.1614
 04  9 14 15 35 30.0020000  0  4G 1G11G20G25
  -2698501.25048  -2098919.81646  21487457.2604   21487455.3464
       418.4424
   -770630.02049   -599218.23045  21720127.8774   21720124.1934
      -545.9014
  -4076686.13348  -3175841.07843  23525770.0414   23525767.9674
      1882.2084
  -2714511.01649  -2111391.22346  21376999.0334   21376996.2054
       182.7534
 04  9 14 15 35 45.0020000  0  4G 1G11G20G25
  -2704700.99649  -2103750.77346  21486277.7364   21486275.4164
       413.3164
   -762309.84049   -592734.99245  21721710.9084   21721707.6074
      -554.6794
  -4104908.36348  -3197832.43043  23520400.6274   23520398.2684
      1881.4824
  -2717126.43049  -2113429.18446  21376500.7524   21376498.7754
       174.3614
 04  9 14 15 36  0.0020000  0  4G 1G11G20G25
  -2710825.30949  -2108522.94946  21485111.6664   21485110.5764
       408.2884
   -753859.37949   -586150.22345  21723319.3614   21723315.3774
      -563.3644
  -4133121.00848  -3219816.32043  23515031.9164   23515030.1784
      1880.8434
  -2719617.25449  -2115370.09046  21376026.9474   21376025.1624
       166.0554
 04  9 14 15 36 15.0020000  0  4G 1G11G20G25
  -2716874.34448  -2113236.48446  21483960.9794   21483959.6044
       403.2694
   -745278.78548   -579464.05945  21724951.9554   21724948.0064
      -572.0404
  -4161324.04348  -3241792.73843  23509664.9004   23509662.3074
      1880.2024
  -2721983.66049  -2117214.05146  21375577.0574   21375575.2134
       157.7604
 04  9 14 15 36 30.0020000  0  4G 1G11G20G25
  -2722846.65648  -2117890.23846  21482824.9634   21482822.4594
       398.1544
   -736566.51649   -572675.28545  21726609.9164   21726606.3934
      -580.8184
  -4189515.90248  -3263760.42243  23504299.3384   23504297.6464
      1879.4574
  -2724224.19949  -2118959.89846  21375150.2054   21375148.3734
       149.3694
 04  9 14 15 36 45.0020000  0  4G 1G11G20G25
  -2728742.91049  -2122484.71946  21481702.5494   21481700.9674
       393.0844
   -727723.12149   -565784.32845  21728292.5494   21728290.0184
      -589.5604
  -4217697.05148  -3285719.77043  23498936.2914   23498934.8934
      1878.7434
  -2726339.11349  -2120607.90646  21374747.9164   21374745.5494
       140.9944
 04  9 14 15 37  0.0020000  0  5G 1G11G23G20G25
  -2734566.86749  -2127022.86346  21480594.1744   21480592.8614
       388.2644
   -718752.25049   -558794.03946  21729999.6824   21729997.4364
      -598.0584
    -95113.37557    -63128.49652  24648919.0964   24648914.6234

  -4245871.03148  -3307673.53943  23493575.7444   23493572.3574
      1878.2654
  -2728332.22749  -2122160.97746  21374368.6274   21374366.0724
       132.8744
 04  9 14 15 37 15.0020000  0  5G 1G11G23G20G25
  -2740317.66449  -2131504.00046  21479499.7214   21479497.9434
       383.3864
   -709653.05949   -551703.77345  21731731.3304   21731728.6434
      -606.6134
   -125849.05947    -87078.37942  24643070.6114   24643066.7094
      2049.0464
  -4274036.84448  -3329620.93443  23488215.6664   23488211.5684
      1877.7214
  -2730202.53149  -2123618.33246  21374012.5724   21374009.9364
       124.6874
 04  9 14 15 37 30.0020000  0  5G 1G11G23G20G25
  -2745995.64149  -2135928.40246  21478419.6824   21478417.4754
       378.5324
   -700425.71149   -544513.65245  21733487.3854   21733483.3144
      -615.1574
   -156557.72347   -111007.21942  24637226.9244   24637223.2564
      2047.2444
  -4302194.57048  -3351562.02042  23482858.3224   23482853.7484
      1877.1824
  -2731950.10549  -2124980.09446  21373679.9474   21373677.3264
       116.5054
 04  9 14 15 37 45.0020000  0  5G 1G11G23G20G25
  -2751601.96549  -2140296.95746  21477352.4004   21477350.5374
       373.7554
   -691071.35549   -537224.55945  21735267.4864   21735263.7484
      -623.6244
   -187240.52347   -134915.89142  24631387.7364   24631384.2754
      2045.5204
  -4330345.34048  -3373497.68043  23477500.8304   23477497.9364
      1876.7184
  -2733575.99649  -2126247.00046  21373370.6044   21373368.3144
       108.3934
 04  9 14 15 38  0.0020000  0  5G 1G11G23G20G25
  -2757135.34049  -2144608.67246  21476299.4244   21476297.3614
       368.8924
   -681588.52749   -529835.34445  21737071.9164   21737068.6894
      -632.1894
   -217895.94146   -158803.25042  24625554.8074   24625551.1744
      2043.6954
  -4358487.57448  -3395426.70743  23472145.7754   23472142.2564
      1876.1494
  -2735078.91849  -2127418.08246  21373084.4244   21373081.5924
       100.1954
 04  9 14 15 38 15.0020000  0  5G 1G11G23G20G25
  -2762596.84449  -2148864.39846  21475260.5644   21475258.2134
       364.1004
   -671978.25449   -522346.83245  21738900.8384   21738897.4324
      -640.6854
   -248524.78947   -182669.90242  24619726.6744   24619722.7364
      2041.9234
  -4386622.01648  -3417349.66043  23466791.4164   23466788.2094
      1875.6294
  -2736459.57049  -2128493.93446  21372821.7054   21372819.4004
        92.0434
 04  9 14 15 38 30.0020000  0  6G 1G11G14G23G20G25
  -2767985.99249  -2153063.72746  21474234.8934   21474233.8114
       359.2774
   -662240.02049   -514758.59845  21740753.7994   21740750.7604
      -649.2164
     58780.13714                  23040633.885

   -279126.64847   -206515.50443  24613902.9394   24613899.1314
      2040.1244
  -4414748.03948  -3439266.04343  23461439.6044   23461436.4904
      1875.0684
  -2737717.44949  -2129474.09046  21372582.4554   21372579.8544
        83.8594
 04  9 14 15 38 45.0020000  0  6G 1G11G14G23G20G25
  -2773301.74249  -2157205.87546  21473222.9164   21473221.6704
       354.3834
   -652372.66849   -507069.76646  21742631.5414   21742629.0614
      -657.8234
    111913.016 4                  23050744.791
     -3542.192
   -309700.46946   -230339.26642  24608085.2684   24608080.3424
      2038.2554
  -4442864.57848  -3461175.03543  23456088.6824   23456085.9714
      1874.4364
  -2738851.29349  -2130357.59846  21372366.4714   21372364.1784
        75.5904
 04  9 14 15 39  0.0020000  0  6G 1G11G14G23G20G25
  -2778543.72749  -2161290.53146  21472225.7994   21472223.1864
       349.4664
   -642375.82449   -499280.00846  21744534.1584   21744531.6154
      -666.4564
    165063.195 4                  23060858.439
     -3543.345
   -340245.59047   -254140.64842  24602272.2364   24602267.7324
      2036.3414
  -4470971.02348  -3483076.14843  23450740.2684   23450737.7954
      1873.7634
  -2739860.70749  -2131144.14846  21372174.6434   21372172.3614
        67.2944
 04  9 14 15 39 15.0020000  0  6G 1G11G14G23G20G25
  -2783713.15649  -2165318.66846  21471241.6894   21471239.5254
       344.6294
   -632250.68749   -491390.30145  21746460.4474   21746457.5724
      -675.0094
    218229.301 3                  23070974.604
     -3544.407
   -370763.21546   -277920.62942  24596465.8464   24596460.1194
      2034.5084
  -4499068.43447  -3504970.24243  23445393.4164   23445390.9554
      1873.1614
  -2740746.89849  -2131834.68446  21372005.8544   21372003.1114
        59.0794
 04  9 14 15 39 30.0020000  0  5G 1G11G23G20G25
  -2788808.70349  -2169289.21946  21470272.8384   21470270.3654
       339.7034
   -621995.93749   -483399.60246  21748412.1974   21748409.1664
      -683.6504
   -401251.82846   -301677.97342  24590663.2134   24590658.3694
      2032.5744
  -4527155.24248  -3526856.09843  23440049.6584   23440046.1784
      1872.4544
  -2741508.28949  -2132427.96146  21371861.3384   21371859.5334
        50.7594
 04  9 14 15 39 45.0020000  0  5G 1G11G23G20G25
  -2793833.21149  -2173204.41046  21469316.0644   21469314.4984
       334.9674
   -611613.89848   -475309.71946  21750387.8464   21750385.0724
      -692.1364
   -431714.14846   -325414.84842  24584866.9084   24584862.1314
      2030.8214
  -4555234.08248  -3548735.70343  23434706.1664   23434702.9474
      1871.9234
  -2742147.52049  -2132926.06646  21371739.7994   21371738.2684
        42.6154
 04  9 14 15 40  0.0020000  0  5G 1G11G23G20G25
  -2798784.11349  -2177062.23446  21468373.7914   21468372.0724
       330.0604
   -601102.24249   -467118.82046  21752388.1504   21752384.9394
      -700.7774
   -462147.40246   -349129.08642  24579075.4714   24579071.1934
      2028.8844
  -4583302.30948  -3570607.02043  23429364.5254   23429361.4794
      1871.2154
  -2742661.96549  -2133326.94546  21371641.6744   21371639.9944
        34.2964
 04  9 14 15 40 15.0020000  0  5G 1G11G23G20G25
  -2803661.98048  -2180863.18046  21467445.7444   21467444.1154
       325.1914
   -590461.49648   -458827.34045  21754412.7914   21754408.8654
      -709.3834
   -492552.23446   -372821.18742  24573290.1974   24573285.6274
      2026.9894
  -4611360.26648  -3592470.35243  23424025.3694   23424022.1974
      1870.5304
  -2743052.14549  -2133630.96946  21371567.0574   21371564.6704
        26.0124
 04  9 14 15 40 30.0020000  0  6G 1G11G14G23G20G25
  -2808467.00049  -2184607.35246  21466531.5494   21466529.4284
       320.3354
   -579691.65649   -450435.27345  21756462.4164   21756458.5844
      -717.9894
     56106.28915                  23121611.283

   -522928.64146   -396491.10242  24567509.2524   24567504.5964
      2025.0944
  -4639407.82048  -3614325.60243  23418687.9864   23418685.9594
      1869.8374
  -2743318.09849  -2133838.19146  21371516.6504   21371514.3544
        17.7304
 04  9 14 15 40 45.0020000  0  6G 1G11G14G23G20G25
  -2813200.32448  -2188295.65246  21465630.5184   21465629.0024
       315.5554
   -568793.86748   -441943.51245  21758536.2214   21758532.9794
      -726.5194
    109365.703 5                  23131744.760
     -3550.628
   -553277.67646   -420139.71542  24561734.5024   24561729.4124
      2023.2694
  -4667446.12948  -3636173.66443  23413352.2834   23413350.9714
      1869.2214
  -2743460.84449  -2133949.42646  21371489.6354   21371487.2714
         9.5164
 04  9 14 15 41  0.0020000  0  6G 1G11G14G23G20G25
  -2817861.10949  -2191927.44146  21464743.4634   21464742.0104
       310.7194
   -557767.24249   -433351.34046  21760634.6114   21760632.0214
      -735.1084
    162640.055 4                  23141880.705
     -3551.623
   -583598.38346   -443766.23842  24555964.2834   24555959.6624
      2021.3804
  -4695474.03948  -3658013.57443  23408018.9324   23408017.7874
      1868.5274
  -2743479.32049  -2133963.80546  21371486.2364   21371483.1974
         1.2324
 04  9 14 15 41 15.0020000  0  6G 1G11G14G23G20G25
  -2822448.77348  -2195502.24646  21463870.9794   21463869.4944
       305.8444
   -546611.14848   -424658.28545  21762757.2054   21762754.6664
      -743.7404
                                  23152036.541
     -3552.619
   -613890.02047   -467370.12942  24550200.0254   24550195.1274
      2019.4424
  -4723490.73448  -3679844.77043  23402688.3384   23402685.2714
      1867.7804
  -2743372.84449  -2133880.84446  21371506.4394   21371504.1354
        -7.0984
 04  9 14 15 41 30.0020000  0  6G 1G11G14G23G20G25
  -2826965.32449  -2199021.62546  21463011.5964   21463009.6974
       301.1034
   -535327.66449   -415865.97746  21764904.6584   21764901.5804
      -752.2324
                                  23162175.471
     -3553.615
   -644154.46146   -490952.82842  24544440.3544   24544436.1584
      2017.6294
  -4751498.07448  -3701668.66043  23397358.8384   23397354.8424
      1867.1564
  -2743143.31249  -2133701.98846  21371550.3464   21371548.2954
       -15.3024
 04  9 14 15 41 45.0020000  0  5G 1G11G23G20G25
  -2831411.96549  -2202486.52746  21462164.8614   21462162.9944
       296.4434
   -523917.70749   -406975.11345  21767076.1274   21767072.4244
      -760.6644
   -674392.79746   -514515.15642  24538686.9554   24538681.2834
      2015.8894
  -4779497.09448  -3723486.06643  23392029.8934   23392027.5254
      1866.6014
  -2742791.96549  -2133428.21146  21371616.9004   21371614.4904
       -23.4234
 04  9 14 15 42  0.0020000  0  5G 1G11G23G20G25
  -2835787.17649  -2205895.79746  21461332.5414   21461330.5574
       291.6814
   -512379.67249   -397984.43745  21769271.5414   21769268.6894
      -769.2024
   -704603.44947   -538055.98442  24532938.4474   24532932.6624
      2014.0434
  -4807485.98848  -3745295.60243  23386704.2294   23386701.9244
      1865.9264
  -2742317.06649  -2133058.15646  21371707.0644   21371705.1664
       -31.6604
 04  9 14 15 42 15.0020000  0  5G 1G11G23G20G25
  -2840093.00849  -2209250.98846  21460513.3464   21460511.7014
       287.0554
   -500715.64549   -388895.59845  21771490.9084   21771488.1974
      -777.6024
   -734788.35247   -561576.70342  24527193.7994   24527189.3304
      2012.3274
  -4835466.64148  -3767098.70344  23381379.5184   23381376.9794
      1865.3774
  -2741720.46949  -2132593.25846  21371820.6894   21371818.4904
       -39.7734
 04  9 14 15 42 30.0020000  0  6G 1G11G14G23G20G25
  -2844326.60549  -2212549.89546  21459707.1354   21459706.3304
       282.2404
   -488922.80149   -379706.38345  21773735.4944   21773732.0254
      -786.1904
     47674.60915                  23202759.635

   -764944.52747   -585074.98842  24521454.6894   24521450.4124
      2010.4124
  -4863436.09448  -3788893.09443  23376056.9084   23376054.1314
      1864.6304
  -2740999.18449  -2132031.21146  21371957.9634   21371955.7644
       -48.0864
 04  9 14 15 42 45.0020000  0  6G 1G11G14G23G20G25
  -2848491.30149  -2215795.12146  21458915.3614   21458913.5144
       277.6464
   -477004.33649   -370419.27345  21776003.0254   21775999.8854
      -794.5644
    101038.266 4                  23212915.799
     -3557.577
   -795075.15247   -608553.42642  24515721.7524   24515716.1934
      2008.7084
  -4891397.48447  -3810681.20743  23370735.8304   23370733.6274
      1864.0934
  -2740156.53149  -2131374.60246  21372117.8854   21372116.4084
       -56.1774
 04  9 14 15 43  0.0020000  0  5G 1G11G23G20G25
  -2852584.85949  -2218984.89546  21458135.9554   21458134.4164
       272.9044
   -464957.89549   -361032.44945  21778295.6664   21778292.6234
      -803.0964
   -825177.89847   -632010.08642  24509992.1664   24509988.7364
      2006.8504
  -4919348.29347  -3832461.08643  23365417.5884   23365414.9474
      1863.3874
  -2739190.00849  -2130621.46946  21372302.5414   21372300.5064
       -64.4354
 04  9 14 15 43 15.0020000  0  5G 1G11G23G20G25
  -2856609.49249  -2222120.96146  21457370.0964   21457368.0924
       268.3094
   -452785.50049   -351547.46945  21780611.8774   21780609.2054
      -811.4934
   -855254.85247   -655446.68442  24504269.1824   24504267.1274
      2005.1304
  -4947290.55148  -3854234.26243  23360100.6664   23360096.7294
      1862.8174
  -2738101.89149  -2129773.57046  21372509.3304   21372507.1974
       -72.5414
 04  9 14 15 43 30.0020000  0  5G 1G11G23G20G25
  -2860564.51249  -2225202.80546  21456617.3614   21456615.5144
       263.6684
   -440486.66449   -341963.97745  21782952.5104   21782949.3184
      -819.9224
   -885305.25047   -678862.59842  24498551.0574   24498548.8734
      2003.3604
  -4975223.41847  -3876000.10543  23354784.0414   23354781.7054
      1862.1914
  -2736891.30549  -2128830.26246  21372740.2364   21372738.0684
       -80.7064
 04  9 14 15 43 45.0020000  0  5G 1G11G23G20G25
  -2864451.01249  -2228231.25046  21455878.2444   21455875.4324
       259.1004
   -428062.43049   -332282.77045  21785316.7994   21785312.7914
      -828.2824
   -915330.10247   -702258.60242  24492837.5804   24492834.4204
      2001.6574
  -5003147.66047  -3897759.24643  23349470.5804   23349468.7014
      1861.6164
  -2735559.18449  -2127792.24246  21372993.2364   21372991.2684
       -88.8084
 04  9 14 15 44  0.0020000  0  6G 1G11G14G23G20G25
  -2868269.21549  -2231206.45746  21455151.2754   21455148.6664
       254.5474
   -415512.80549   -322503.87145  21787704.7604   21787701.4044
      -836.6424
     52003.18014                  23263723.182

   -945329.40247   -725634.65642  24487129.3464   24487125.2484
      1999.9534
  -5031063.26647  -3919511.67243  23344158.3304   23344156.1934
      1861.0404
  -2734105.67249  -2126659.62146  21373269.8144   21373267.7954
       -96.9014
 04  9 14 15 44 15.0020000  0  6G 1G11G14G23G20G25
  -2872018.73049  -2234128.15246  21454438.1584   21454436.3344
       249.9684
   -402837.39549   -312626.93045  21790116.9164   21790113.4944
      -845.0274
    105428.563 4                  23273892.189
     -3561.692
   -975302.61347   -748990.40642  24481425.2524   24481421.6274
      1998.2144
  -5058969.68047  -3941256.93043  23338847.9944   23338845.5574
      1860.4284
  -2732530.20749  -2125431.98446  21373569.5184   21373567.6864
      -105.0314
 04  9 14 15 44 30.0020000  0  5G 1G11G23G20G25
  -2875699.50049  -2236996.29346  21453737.6434   21453735.7754
       245.3854
   -390036.02749   -302651.84445  21792552.5254   21792549.2214
      -853.4244
  -1005249.56247   -772325.71142  24475726.7444   24475722.4594
      1996.4634
  -5086866.72748  -3962994.89143  23333539.7294   23333536.4164
      1859.8034
  -2730832.70349  -2124109.25446  21373892.3694   21373890.7604
      -113.1674
 04  9 14 15 44 45.0020000  0  5G 1G11G23G20G25
  -2879311.80549  -2239811.07846  21453049.5964   21453048.4394
       240.8204
   -377108.91449   -292578.79745  21795012.5964   21795009.3264
      -861.8084
  -1035170.40647   -795640.66042  24470032.9864   24470028.7254
      1994.7234
  -5114754.41048  -3984725.52743  23328232.1354   23328228.5064
      1859.1794
  -2729013.35549  -2122691.57446  21374239.1584   21374236.8034
      -121.2904
 04  9 14 15 45  0.0020000  0  5G 1G11G23G20G25
  -2882855.35249  -2242572.29746  21452375.7604   21452374.6784
       236.2364
   -364055.82049   -282407.57845  21797496.7994   21797493.1544
      -870.2064
  -1065064.85947   -818935.05942  24464344.3934   24464340.3894
      1992.9644
  -5142632.35248  -4006448.58643  23322927.9164   23322923.9864
      1858.5294
  -2727071.79349  -2121178.66046  21374608.5414   21374605.8934
      -129.4374
 04  9 14 15 45 15.0020000  0  5G 1G11G23G20G25
  -2886331.96949  -2245281.35246  21451713.9714   21451712.6864
       231.7744
   -350878.60949   -272139.62545  21800004.0574   21800001.4004
      -878.4814
  -1094934.54347   -842210.13742  24458660.1664   24458656.7174
      1991.3124
  -5170502.04747  -4028165.26243  23317624.4474   23317622.1824
      1857.9804
  -2725009.61349  -2119571.75846  21375000.8384   21374998.4984
      -137.4794
 04  9 14 15 45 30.0020000  0  5G 1G11G23G20G25
  -2889742.33249  -2247938.78146  21451065.3384   21451063.4794
       227.3584
   -337577.90249   -261775.46145  21802535.2214   21802532.3894
      -886.7144
  -1124780.19947   -865466.47342  24452980.7524   24452977.2954
      1989.7104
  -5198364.10548  -4049875.94144  23312322.5254   23312320.9204
      1857.4714
  -2722827.53149  -2117871.44946  21375416.0494   21375414.2644
      -145.4724
 04  9 14 15 45 45.0020000  0  5G 1G11G23G20G25
  -2893085.60249  -2250543.91846  21450429.0644   21450427.2524
       222.8854
   -324152.75049   -251314.30946  21805089.8304   21805087.1314
      -895.0104
  -1154600.64846   -888703.21542  24447306.3694   24447302.2364
      1988.0304
  -5226217.36348  -4071579.77344  23307022.2214   23307020.0374
      1856.8844
  -2720524.47349  -2116076.85946  21375854.4244   21375851.3774
      -153.5374
 04  9 14 15 46  0.0020000  0  5G 1G11G23G20G25
  -2896361.44949  -2253096.53146  21449805.6824   21449803.7874
       218.3904
   -310602.73449   -240755.88345  21807668.3774   21807665.1704
      -903.3344
  -1184395.59447   -911920.06242  24441636.8544   24441631.8384
      1986.3304
  -5254061.16448  -4093276.26244  23301723.2054   23301720.6464
      1856.2534
  -2718100.03149  -2114187.67646  21376315.4394   21376312.5924
      -161.6294
 04  9 14 15 46 15.0020000  0  5G 1G11G23G20G25
  -2899569.41449  -2255596.23446  21449195.1274   21449192.8814
       213.8644
   -296927.35549   -230099.75446  21810271.1194   21810268.4794
      -911.6924
  -1214164.30947   -935116.46942  24435972.0494   24435967.0574
      1984.5814
  -5281894.96147  -4114964.94943  23296427.1434   23296424.7134
      1855.5864
  -2715553.62549  -2112203.46546  21376800.2294   21376797.6044
      -169.7604
 04  9 14 15 46 30.0020000  0  5G 1G11G23G20G25
  -2902710.16049  -2258043.57846  21448597.3384   21448595.6004
       209.3834
   -283127.23849   -219346.42646  21812896.8074   21812894.3574
      -920.0084
  -1243907.39847   -958292.88342  24430311.5964   24430307.3464
      1982.8734
  -5309719.16448  -4136646.13743  23291132.0104   23291129.7644
      1854.9474
  -2712885.89149  -2110124.70746  21377307.6044   21377305.6004
      -177.8494
 04  9 14 15 46 45.0020000  0  5G 1G11G23G20G25
  -2905786.08249  -2260440.39546  21448012.2754   21448010.6704
       205.0614
   -269204.78949   -208497.78145  21815546.3694   21815543.7794
      -928.1634
  -1273627.16047   -981451.15642  24424656.3464   24424652.1394
      1981.3174
  -5337536.04347  -4158321.62543  23285838.6664   23285836.5884
      1854.4594
  -2710099.15649  -2107953.22346  21377838.2294   21377835.6314
      -185.7824
 04  9 14 15 47  0.0020000  0  5G 1G11G23G20G25
  -2908794.69149  -2262784.76246  21447439.5494   21447437.9164
       200.5744
   -255157.48449   -197551.83246  21818219.6114   21818216.5374
      -936.4874
  -1303320.99647  -1004589.20342  24419005.4554   24419001.9794
      1979.5894
  -5365342.75047  -4179989.17643  23280547.1504   23280544.5964
      1853.7804
  -2707190.72749  -2105686.89546  21378391.5574   21378389.2364
      -193.8954
 04  9 14 15 47 15.0020000  0  5G 1G11G23G20G25
  -2911737.34449  -2265077.73046  21446879.0644   21446877.4364
       196.1774
   -240986.60949   -186509.61345  21820915.9084   21820913.2054
      -944.7254
  -1332990.05147  -1027707.94142  24413358.9554   24413355.6664
      1977.9374
  -5393140.60247  -4201649.85943  23275256.9474   23275254.4984
      1853.1904
  -2704161.81249  -2103326.69946  21378968.1744   21378965.6274
      -201.9284
 04  9 14 15 47 30.0020000  0  5G 1G11G23G20G25
  -2914614.26649  -2267319.49245  21446331.9004   21446329.8614
       191.7954
   -226692.33249   -175371.20745  21823636.2294   21823633.0804
      -952.9524
  -1362634.59446  -1050807.59842  24407717.8694   24407714.0534
      1976.3034
  -5420929.50448  -4223303.55143  23269969.4944   23269965.7324
      1852.5934
  -2701012.71149  -2100872.84846  21379567.2524   21379564.8074
      -209.9404
 04  9 14 15 47 45.0020000  0  5G 1G11G23G20G25
  -2917426.44149  -2269510.81646  21445796.9324   21445795.5414
       187.4784
   -212275.61749   -164137.43445  21826379.7684   21826376.2994
      -961.1144
  -1392255.35546  -1073888.70342  24402081.9084   24402077.3694
      1974.7174
  -5448710.26648  -4244950.87542  23264682.7994   23264678.3614
      1852.0514
  -2697744.21549  -2098325.96546  21380189.3464   21380187.2324
      -217.9004
 04  9 14 15 48  0.0020000  0  5G 1G11G23G20G25
  -2920173.28149  -2271651.20346  21445274.4634   21445273.3114
       183.1234
   -197735.63749   -152807.60245  21829146.2444   21829142.8074
      -969.3324
  -1421851.58247  -1096950.71142  24396449.7684   24396444.8034
      1973.0824
  -5476481.93048  -4266591.12143  23259397.3854   23259394.7714
      1851.4444
  -2694355.53549  -2095685.42246  21380833.8464   21380831.7994
      -225.9124
 04  9 14 15 48 15.0020000  0  5G 1G11G23G20G25
  -2922855.37949  -2273741.16046  21444764.0254   21444762.2754
       178.8074
   -183073.16849   -141382.31245  21831936.3934   21831933.9754
      -977.4984
  -1451423.79747  -1119993.99642  24390823.0104   24390817.7094
      1971.4814
  -5504244.94548  -4288224.65242  23254114.6894   23254111.3464
      1850.8684
  -2690847.27749  -2092951.73046  21381501.6194   21381499.4824
      -233.8844
 04  9 14 15 48 30.0020000  0  5G 1G11G23G20G25
  -2925471.24649  -2275779.49246  21444265.8544   21444264.5924
       174.3914
   -168286.70349   -129860.39545  21834750.3224   21834747.4044
      -985.7644
  -1480970.47347  -1143017.39142  24385200.9324   24385195.5644
      1969.7784
  -5531997.55948  -4309850.08643  23248833.5024   23248831.2324
      1850.1744
  -2687217.90649  -2090123.64146  21382191.8544   21382189.2484
      -241.9584
 04  9 14 15 48 45.0020000  0  5G 1G11G23G20G25
  -2928021.64849  -2277766.84046  21443780.5884   21443779.1504
       170.0274
   -153376.88349   -118242.37145  21837587.4004   21837584.5724
      -993.9884
  -1510492.15646  -1166021.29742  24379581.6114   24379578.1784
      1968.1124
  -5559740.48848  -4331467.96943  23243554.9634   23243552.5184
      1849.5294
  -2683468.11749  -2087201.73446  21382905.4474   21382903.5334
      -249.9864
 04  9 14 15 49  0.0020000  0  6G 1G11G14G23G20G25
  -2930506.61749  -2279703.17246  21443307.6504   21443306.1624
       165.6654
   -138343.65249   -106528.18045  21840448.1434   21840445.4554
     -1002.2154
     60672.79314                  23467309.158

  -1539988.83646  -1189005.72742  24373969.0334   24373966.0334
      1966.4454
  -5587473.40648  -4353078.05943  23238277.2684   23238274.9824
      1848.8614
  -2679597.77349  -2084185.89846  21383642.1664   21383640.7564
      -258.0234
 04  9 14 15 49 15.0020000  0  6G 1G11G14G23G20G25
  -2932927.02749  -2281589.19146  21442847.4634   21442845.1744
       161.3614
   -123187.99649    -94718.58245  21843332.1894   21843329.2404
     -1010.3774
    114220.535 4                  23477499.424
     -3569.849
  -1569461.32447  -1211971.30542  24368360.6664   24368357.0644
      1964.8334
  -5615197.07848  -4374680.92643  23233002.5804   23232998.4204
      1848.2454
  -2675607.71149  -2081076.75846  21384401.8694   21384399.6504
      -266.0044
 04  9 14 15 49 30.0020000  0  6G 1G11G14G23G20G25
  -2935282.90649  -2283424.95746  21442398.9864   21442397.3114
       157.0594
   -107909.95349    -82813.63345  21846239.8614   21846235.9124
     -1018.5364
    167771.406 4                  23487688.893
     -3570.058
  -1598909.45347  -1234917.89142  24362757.0334   24362752.6784
      1963.2094
  -5642911.31248  -4396276.42643  23227727.7684   23227724.1274
      1847.6164
  -2671497.82849  -2077874.23846  21385183.7214   21385181.3854
      -273.9924
 04  9 14 15 49 45.0020000  0  6G 1G11G14G23G20G25
  -2937574.03549  -2285210.24646  21441963.2444   21441960.8734
       152.7424
    -92509.16049    -70813.03145  21849171.0494   21849167.5454
     -1026.7204
    221325.379 4                  23497880.104
     -3570.265
  -1628332.88746  -1257845.24642  24357157.1194   24357153.6044
      1961.5624
  -5670615.63748  -4417864.19143  23222455.6974   23222453.2054
      1846.9554
  -2667267.78549  -2074578.09846  21385988.4554   21385986.3734
      -282.0034
 04  9 14 15 50  0.0020000  0  6G 1G11G14G23G20G25
  -2939799.91049  -2286944.69946  21441539.4394   21441537.4474
       148.3924
    -76985.03149    -58716.32445  21852124.9474   21852121.5574
     -1034.9424
    274883.039 5                  23508072.299
     -3570.511
  -1657731.03946  -1280752.91042  24351563.6824   24351559.3934
      1959.8774
  -5698309.13348  -4439443.57044  23217185.7914   23217184.3654
      1846.2334
  -2662917.02349  -2071187.90646  21386816.7364   21386814.1664
      -290.0514
 04  9 14 15 50 15.0020000  0  6G 1G11G14G23G20G25
  -2941960.52349  -2288628.28546  21441128.3774   21441126.2644
       144.0414
    -61337.70749    -46523.61345  21855102.2754   21855099.4634
     -1043.1554
    328444.359 5                  23518265.564
     -3570.755
  -1687103.78545  -1303640.72342  24345973.6434   24345970.9594
      1958.1834
  -5725991.73048  -4461014.41444  23211918.4164   23211915.7294
      1845.5074
  -2658445.50449  -2067703.59046  21387667.4714   21387664.3814
      -298.1014
 04  9 14 15 50 30.0020000  0  6G 1G11G14G23G20G25
  -2944058.70349  -2290263.25846  21440729.5254   21440727.2444
       139.8794
    -45569.91449    -34237.02746  21858102.6114   21858100.4794
     -1051.1864
    382006.203 4                  23528456.400
     -3570.790
  -1716453.71946  -1326510.85542  24340389.3854   24340384.6234
      1956.6624
  -5753666.01648  -4482578.78144  23206651.8614   23206649.3574
      1844.9524
  -2653855.98449  -2064127.33646  21388540.6824   21388538.0884
      -305.9684
 04  9 14 15 50 45.0020000  0  6G 1G11G14G23G20G25
  -2946092.37949  -2291847.92246  21440342.2444   21440339.8814
       135.5784
    -29679.54349    -21854.93446  21861126.8544   21861124.0454
     -1059.3584
    435570.578 4                  23538648.049
     -3570.958
  -1745778.75845  -1349361.48042  24334808.2294   24334805.0574
      1955.0034
  -5781329.62148  -4504134.83244  23201387.3224   23201385.7834
      1844.2404
  -2649146.23449  -2060457.40646  21389437.1584   21389434.1394
      -313.9834
 04  9 14 15 51  0.0020000  0  6G 1G11G14G23G20G25
  -2948060.83649  -2293381.77346  21439967.9474   21439966.3894
       131.2304
    -13665.74249     -9376.66845  21864174.1664   21864171.0214
     -1067.5874
    489138.414 5                  23548842.877
     -3571.189
  -1775078.03947  -1372192.07042  24329232.8464   24329229.9004
      1953.2854
  -5808981.72348  -4525681.91043  23196125.3614   23196123.1314
      1843.4734
  -2644315.56249  -2056693.23446  21390355.8074   21390354.3114
      -322.0454
 04  9 14 15 51 15.0020000  0  6G 1G11G14G23G20G25
  -2949965.27049  -2294865.76246  21439604.7684   21439603.4594
       126.9624
      2470.24249      3196.82845  21867244.2684   21867241.2524
     -1075.7324
    542708.105 4                  23559038.088
     -3571.313
  -1804352.57846  -1395003.41043  24323662.1044   24323659.2404
      1951.6364
  -5836623.09848  -4547220.67644  23190865.8224   23190862.0534
      1842.7584
  -2639365.01649  -2052835.68446  21391298.3854   21391296.8464
      -330.0364
 04  9 14 15 51 30.0020000  0  6G 1G11G14G23G20G25
  -2951806.80549  -2296300.73046  21439254.4004   21439252.4944
       122.7694
     18727.33249     15864.67246  21870338.3464   21870334.9554
     -1083.8064
    596278.430 3                  23569230.229
     -3571.355
  -1833603.37946  -1417796.27042  24318095.9794   24318092.0574
      1950.0534
  -5864254.78948  -4568751.86744  23185607.8384   23185605.0374
      1842.1134
  -2634295.56649  -2048885.46946  21392263.3854   21392260.6584
      -337.9634
 04  9 14 15 51 45.0020000  0  5G 1G11G23G20G25
  -2953582.67649  -2297684.52046  21438916.4714   21438914.6434
       118.3914
     35108.39549     28629.11745  21873455.3774   21873452.3034
     -1092.0714
  -1862827.67647  -1440568.46142  24312535.4634   24312530.4084
      1948.2864
  -5891873.79748  -4590273.16444  23180352.1824   23180349.3344
      1841.2674
  -2629104.25449  -2044840.27746  21393250.9084   21393248.3894
      -346.0874
 04  9 14 15 52  0.0020000  0  5G 1G11G23G20G25
  -2955294.31649  -2299018.27346  21438591.3694   21438589.3074
       114.1094
     51611.81349     41488.90245  21876595.7134   21876592.5534
     -1100.2284
  -1892026.71547  -1463320.94142  24306978.9554   24306974.2214
      1946.6034
  -5919481.23048  -4611785.47744  23175098.6504   23175096.1894
      1840.4964
  -2623792.56249  -2040701.29346  21394261.6434   21394259.5104
      -354.1134
 04  9 14 15 52 15.0020000  0  5G 1G11G23G20G25
  -2956944.29349  -2300303.96146  21438276.9324   21438275.3184
       109.9984
     68235.10249     54442.10945  21879759.5104   21879756.6934
     -1108.2194
  -1921202.86747  -1486055.60242  24301427.0724   24301422.9594
      1945.0774
  -5947079.54748  -4633290.63344  23169846.1044   23169843.4324
      1839.8884
  -2618362.95349  -2036470.42646  21395294.9634   21395292.7564
      -361.9744
 04  9 14 15 52 30.0020000  0  5G 1G11G23G20G25
  -2958529.37149  -2301539.09846  21437975.4554   21437973.7014
       105.6724
     84981.53149     67491.25446  21882946.5024   21882943.0494
     -1116.4294
  -1950352.84047  -1508769.86342  24295879.9634   24295875.4824
      1943.3324
  -5974665.19947  -4654785.95344  23164596.4324   23164594.0494
      1839.0434
  -2612812.25449  -2032145.20746  21396350.8224   21396348.7294
      -370.0474
 04  9 14 15 52 45.0020000  0  5G 1G11G23G20G25
  -2960050.58649  -2302724.46546  21437685.9084   21437684.6934
       101.4144
    101850.22749     80635.68445  21886156.0104   21886153.0414
     -1124.5804
  -1979477.46547  -1531464.37143  24290336.9864   24290333.7214
      1941.6424
  -6002238.91448  -4676271.96143  23159349.2834   23159347.7994
      1838.2484
  -2607141.10549  -2027726.13746  21397430.3464   21397428.4554
      -378.0774
 04  9 14 15 53  0.0020000  0  5G 1G11G23G20G25
  -2961508.18749  -2303860.24646  21437408.4244   21437407.5104
        97.1734
    118840.78549     93875.06345  21889389.2214   21889385.9634
     -1132.7044
  -2008577.07047  -1554139.40643  24284799.4084   24284796.2714
      1939.9744
  -6029800.78148  -4697748.74244  23154104.8614   23154102.5294
      1837.4584
  -2601349.91049  -2023213.52346  21398532.5254   21398530.4084
      -386.0804
 04  9 14 15 53 15.0020000  0  5G 1G11G23G20G25
  -2962901.28149  -2304945.80146  21437143.3304   21437141.7174
        92.8734
    135954.03949    107210.05945  21892645.4944   21892643.1274
     -1140.8844
  -2037650.50047  -1576793.99243  24279267.2994   24279263.9714
      1938.2294
  -6057349.64848  -4719215.40243  23148863.6894   23148859.5644
      1836.5914
  -2595437.73849  -2018606.63346  21399657.2214   21399654.6114
      -394.1454
 04  9 14 15 53 30.0020000  0  5G 1G11G23G20G25
  -2964229.37549  -2305980.67246  21436891.0724   21436888.2604
        88.5404
    153190.65249    120641.18045  21895925.7994   21895922.8114
     -1149.1084
  -2066697.13748  -1599427.74243  24273740.5964   24273736.2364
      1936.4424
  -6084884.87948  -4740671.41444  23143623.4324   23143619.5884
      1835.6824
  -2589403.98449  -2013904.99646  21400805.8304   21400803.2684
      -402.2504
 04  9 14 15 53 45.0020000  0  5G 1G11G23G20G25
  -2965495.41449  -2306967.18446  21436649.6354   21436648.0064
        84.4034
    170547.60249    134166.06345  21899228.1974   21899225.4864
     -1157.1304
  -2095719.90647  -1622042.88743  24268217.1584   24268214.0414
      1934.8514
  -6112409.19548  -4762118.89843  23138384.6274   23138381.7294
      1834.9544
  -2583251.46549  -2009110.82046  21401976.3304   21401974.9594
      -410.1684
 04  9 14 15 54  0.0020000  0  6G 1G11G14G23G20G25
  -2966698.46949  -2307904.61746  21436420.9474   21436418.7794
        80.2044
    188025.84849    147785.45746  21902554.6114   21902551.6044
     -1165.2164
                                  23671190.307

  -2124717.73047  -1644638.57042  24262698.8074   24262696.1314
      1933.1884
  -6139921.28548  -4783556.90643  23133149.5254   23133147.8544
      1834.1394
  -2576979.35249  -2004223.46546  21403169.7914   21403167.9164
      -418.1414
 04  9 14 15 54 15.0020000  0  6G 1G11G14G23G20G25
  -2967838.58649  -2308793.02346  21436204.2994   21436202.1354
        76.0084
    205625.36349    161499.34845  21905903.8464   21905900.3734
     -1173.3014
     69293.852 3                  23681384.525
     -3572.117
  -2153690.50847  -1667214.74643  24257184.5334   24257182.1664
      1931.5184
  -6167421.09048  -4804985.34444  23127917.0254   23127915.1894
      1833.3204
  -2570587.45349  -1999242.76246  21404386.4864   21404383.7444
      -426.1274
 04  9 14 15 54 30.0020000  0  6G 1G11G14G23G20G25
  -2968916.28149  -2309632.79746  21435999.1354   21435997.5024
        71.8464
    223345.80949    175307.47345  21909275.9474   21909272.4794
     -1181.3634
    122875.281 3                  23691581.502
     -3572.095
  -2182638.54747  -1689771.62943  24251677.1354   24251673.1624
      1929.8694
  -6194908.87948  -4826404.39844  23122686.2604   23122684.6784
      1832.5194
  -2564076.22749  -1994169.07446  21405625.5104   21405622.8964
      -434.0824
 04  9 14 15 54 45.0020000  0  5G 1G11G23G20G25
  -2969930.01249  -2310422.72346  21435806.0574   21435804.7834
        67.5824
    241188.58649    189210.91445  21912670.9084   21912668.2484
     -1189.5184
  -2211560.18448  -1712307.94943  24246172.8614   24246168.7364
      1928.1094
  -6222382.76248  -4847812.60944  23117457.9394   23117456.1934
      1831.5924
  -2557444.17649  -1989001.23446  21406887.5334   21406884.8344
      -442.1374
 04  9 14 15 55  0.0020000  0  5G 1G11G23G20G25
  -2970879.55949  -2311162.62946  21435624.9864   21435623.3694
        63.3034
    259153.84849    203209.82046  21916090.1824   21916086.9674
     -1197.6844
  -2240455.09848  -1734823.45743  24240675.1354   24240671.2094
      1926.3284
  -6249842.21548  -4869209.57844  23112233.2754   23112229.6504
      1830.6304
  -2550690.98449  -1983739.00446  21408172.6274   21408170.2404
      -450.2134
 04  9 14 15 55 15.0020000  0  5G 1G11G23G20G25
  -2971768.54749  -2311855.35546  21435455.5024   21435454.3424
        59.2664
    277238.11349    217301.43446  21919531.2054   21919528.7714
     -1205.6184
  -2269326.94148  -1757320.98843  24235180.5964   24235176.3264
      1924.7904
  -6277290.78948  -4890598.04743  23107009.3774   23107005.2834
      1829.9054
  -2543820.05149  -1978385.02746  21409479.9554   21409477.4634
      -458.0624
 04  9 14 15 55 30.0020000  0  5G 1G11G23G20G25
  -2972593.57849  -2312498.23846  21435298.8384   21435297.2484
        55.0024
    295444.79349    231488.44946  21922996.1044   21922992.6194
     -1213.7794
  -2298172.06648  -1779797.73442  24229692.5254   24229686.9864
      1923.0084
  -6304724.57848  -4911975.04344  23101789.3614   23101785.7254
      1828.9194
  -2536827.81649  -1972936.52346  21410810.5964   21410808.5764
      -466.1494
 04  9 14 15 55 45.0020000  0  5G 1G11G23G20G25
  -2973354.18449  -2313090.93446  21435154.5104   21435152.7364
        50.7074
    313774.25049    245771.14146  21926483.7604   21926481.3964
     -1221.9644
  -2326989.91447  -1802253.22743  24224208.2754   24224202.8654
      1921.1904
  -6332143.07848  -4933340.09444  23096571.8304   23096568.3734
      1827.9004
  -2529713.94149  -1967393.26646  21412163.8774   21412161.9794
      -474.2584
 04  9 14 15 56  0.0020000  0  5G 1G11G23G20G25
  -2974052.04349  -2313634.69946  21435021.3694   21435019.8264
        46.5244
    332224.88349    260148.23446  21929994.9394   21929992.8424
     -1230.0424
  -2355782.06248  -1824688.65243  24218729.3464   24218725.7054
      1919.4774
  -6359547.67248  -4954694.32444  23091356.3544   23091354.1004
      1826.9734
  -2522480.21949  -1961756.58246  21413540.5334   21413538.2644
      -482.2484
 04  9 14 15 56 15.0020000  0  6G 1G11G14G23G20G25
  -2974687.96549  -2314130.23046  21434900.5414   21434897.8964
        42.3954
    350795.82049    274619.08246  21933529.0494   21933526.9514
     -1238.0624
                                  23762957.557

  -2384549.14548  -1847104.53543  24213254.4324   24213250.9864
      1917.8054
  -6386938.96148  -4976038.21544  23086143.5644   23086141.6894
      1826.0864
  -2515127.24249  -1956026.98446  21414939.8614   21414938.1934
      -490.1984
 04  9 14 15 56 30.0020000  0  6G 1G11G14G23G20G25
  -2975262.50049  -2314577.92646  21434791.4244   21434788.8964
        38.3024
    369486.86749    289183.52346  21937086.0024   21937083.4754
     -1246.0704
                                  23773150.049

  -2413291.57448  -1869501.23043  24207784.8854   24207780.5214
      1916.1624
  -6414317.25448  -4997371.95344  23080933.7994   23080931.4594
      1825.2204
  -2507655.43049  -1950204.80546  21416361.7604   21416360.1744
      -498.1214
 04  9 14 15 56 45.0020000  0  5G 1G11G23G20G25
  -2975773.48849  -2314976.08646  21434693.8854   21434692.1234
        34.0664
    388299.68849    303842.86345  21940665.5414   21940663.2874
     -1254.1884
  -2442007.14847  -1891876.96543  24202320.4004   24202316.2994
      1914.3724
  -6441680.06248  -5018693.61744  23075727.1114   23075725.2134
      1824.1874
  -2500062.56249  -1944288.29746  21417806.2294   21417804.2364
      -506.1914
 04  9 14 15 57  0.0020000  0  5G 1G11G23G20G25
  -2976221.99249  -2315325.57046  21434608.6114   21434606.6744
        29.9004
    407233.41849    318596.41445  21944268.4864   21944265.7014
     -1262.2494
  -2470696.74247  -1914232.50442  24196862.0804   24196856.9824
      1912.6404
  -6469028.31648  -5040003.94544  23070522.4244   23070519.6664
      1823.2174
  -2492349.68749  -1938278.25046  21419274.3224   21419271.8814
      -514.1924
 04  9 14 15 57 15.0020000  0  5G 1G11G23G20G25
  -2976608.34849  -2315626.62946  21434535.0104   21434533.1704
        25.7574
    426287.62149    333443.82045  21947894.6504   21947891.7684
     -1270.2804
  -2499360.68747  -1936568.04742  24191406.5104   24191402.1464
      1910.9304
  -6496361.93448  -5061302.87544  23065321.5644   23065318.3464
      1822.2414
  -2484517.14549  -1932174.97746  21420765.1354   21420762.5144
      -522.1704
 04  9 14 15 57 30.0020000  0  5G 1G11G23G20G25
  -2976933.66049  -2315880.12946  21434473.0184   21434472.0104
        21.6884
    445461.25849    348384.31645  21951542.8304   21951540.6314
     -1278.2424
  -2527999.82847  -1958884.23042  24185956.3144   24185952.1704
      1909.2764
  -6523681.90648  -5082591.16844  23060122.7444   23060120.0024
      1821.3324
  -2476565.94549  -1925979.23446  21422277.8464   21422276.0764
      -530.0804
 04  9 14 15 57 45.0020000  0  5G 1G11G23G20G25
  -2977195.80949  -2316084.38746  21434423.3614   21434421.7484
        17.4774
    464756.45349    363419.51245  21955214.5414   21955212.2794
     -1286.3464
  -2556611.98048  -1981179.41443  24180512.2134   24180507.6154
      1907.4774
  -6550985.89849  -5103866.98444  23054927.6044   23054923.9634
      1820.2664
  -2468494.01649  -1919689.41046  21423813.9244   21423811.9984
      -538.1294
 04  9 14 15 58  0.0020000  0  5G 1G11G23G20G25
  -2977395.36349  -2316239.88346  21434385.0804   21434383.4594
        13.3044
    484172.58249    378548.96145  21958909.8464   21958906.1624
     -1294.4094
  -2585197.60547  -2003453.91843  24175072.0414   24175068.0214
      1905.7084
  -6578274.19949  -5125130.58244  23049734.2834   23049731.8424
      1819.2204
  -2460301.64849  -1913305.75046  21425373.3074   21425370.7214
      -546.1584
 04  9 14 15 58 15.0020000  0  6G 1G11G14G23G20G25
  -2977532.67649  -2316346.89146  21434359.1894   21434357.7564
         9.1544
    503709.33649    393772.38345  21962627.4004   21962624.5614
     -1302.4504
     44999.25813                  23844508.135

  -2613756.94948  -2025707.95743  24169638.3464   24169633.5764
      1903.9564
  -6605546.81648  -5146381.96144  23044543.8074   23044542.3734
      1818.1744
  -2451989.21949  -1906828.52346  21426954.1194   21426952.6464
      -554.1624
 04  9 14 15 58 30.0020000  0  6G 1G11G14G23G20G25
  -2977607.28549  -2316405.01246  21434345.3464   21434343.0804
         4.9744
    523367.31649    409090.27045  21966368.3144   21966365.7134
     -1310.5324
     98563.254 3                  23854702.885
     -3570.933
  -2642289.37948  -2047941.00443  24164209.0804   24164204.0924
      1902.1624
  -6632803.01248  -5167620.57844  23039357.8934   23039354.7524
      1817.0804
  -2443556.21949  -1900257.35946  21428559.0414   21428557.5294
      -562.2004
 04  9 14 15 58 45.0020000  0  6G 1G11G14G23G20G25
  -2977618.86349  -2316414.03946  21434342.3464   21434340.7794
         0.7724
    543146.71549    424502.78545  21970132.0024   21970129.5844
     -1318.6274
    152125.80514                  23864897.791
     -7141.866
  -2670794.48848  -2070152.74243  24158783.6434   24158780.2754
      1900.3414
  -6660042.26648  -5188846.00043  23034174.5184   23034170.4244
      1815.9504
  -2435002.37949  -1893592.03546  21430187.1974   21430185.2834
      -570.2564
 04  9 14 15 59  0.0020000  0  6G 1G11G14G23G20G25
  -2977567.25449  -2316373.82846  21434352.4634   21434350.6314
        -3.4414
    563047.63349    440009.98845  21973919.0884   21973916.4394
     -1326.7284
                                  23875088.205
    -10712.799
  -2699271.96948  -2092342.97743  24153364.7754   24153360.6584
      1898.4994
  -6687264.13749  -5210057.84044  23028994.6434   23028990.6314
      1814.7914
  -2426327.29749  -1886832.23046  21431838.2994   21431835.9364
      -578.3394
 04  9 14 15 59 15.0020000  0  6G 1G11G14G23G20G25
  -2977453.42249  -2316285.12146  21434374.6504   21434372.7014
        -7.5894
    583069.17249    455611.16845  21977729.1274   21977726.2604
     -1334.7694
                                  23885278.494
    -14283.732
  -2727722.57447  -2114512.23843  24147950.1434   24147948.0534
      1896.7074
  -6714469.28548  -5231256.64844  23023817.1354   23023814.2364
      1813.6774
  -2417531.93749  -1879978.69146  21433511.7054   21433509.4364
      -586.3574
 04  9 14 15 59 30.0020000  0  6G 1G11G14G23G20G25
  -2977276.94549  -2316147.61746  21434407.6824   21434406.0884
       -11.7654
    603211.71549    471306.64545  21981562.1584   21981559.5964
     -1342.8364
                                  23895471.721
    -17854.665
  -2756145.73448  -2136660.15243  24142541.3854   24142538.5574
      1894.8774
  -6741657.16049  -5252441.99644  23018643.6274   23018640.3774
      1812.5254
  -2408615.75849  -1873030.99646  21435208.2684   21435205.8694
      -594.4124
 04  9 14 15 59 45.0020000  0  6G 1G11G14G23G20G25
  -2977037.59449  -2315961.10946  21434453.4164   21434451.3034
       -15.9574
    623475.38349    487096.51245  21985418.0104   21985415.2444
     -1350.9114
                                  23905661.604
    -21425.598
  -2784541.23048  -2158786.53543  24137138.1894   24137134.0104
      1893.0334
  -6768827.28548  -5273613.51244  23013473.0964   23013470.3854
      1811.3424
  -2399578.71149  -1865989.15246  21436927.6504   21436925.5844
      -602.4704
 04  9 14 16  0  0.0020000  0  6G 1G11G14G23G20G25
  -2976737.11349  -2315726.95346  21434510.6194   21434508.1704
       -20.0324
    643858.52049    502979.45745  21989296.9864   21989294.2794
     -1358.8764
    419909.293 3                  23915851.736
     -3570.108
  -2812910.65248  -2180892.59443  24131740.7134   24131734.8424
      1891.2954
  -6795981.07048  -5294772.29344  23008305.4944   23008302.9474
      1810.2524
  -2390422.43049  -1858854.39146  21438670.0724   21438667.8074
      -610.4194
 04  9 14 16  0 15.0020000  0  6G 1G11G14G23G20G25
  -2976373.85949  -2315443.90646  21434579.8144   21434577.1274
       -24.2174
    664362.77349    518956.78145  21993199.1354   21993196.1004
     -1366.9504
    473458.98413                  23926043.283
     14285.382
  -2841252.41448  -2202977.07443  24126346.7834   24126342.0374
      1889.4514
  -6823116.56248  -5315916.81244  23003142.0334   23003139.8144
      1809.0334
  -2381145.14149  -1851625.34046  21440436.0184   21440433.1154
      -618.4864
 04  9 14 16  0 30.0020000  0  6G 1G11G14G23G20G25
  -2975948.99649  -2315112.83646  21434660.6974   21434658.9204
       -28.3244
    684987.00449    535027.60945  21997123.3074   21997120.7054
     -1374.9494
    527005.520 4                  23936232.564
     -3569.769
  -2869567.28547  -2225040.60942  24120959.0184   24120954.6704
      1887.6584
  -6850234.63348  -5337047.76644  22997981.2754   22997978.7364
      1807.8714
  -2371747.91049  -1844302.81646  21442224.0724   21442222.3384
      -626.4824
 04  9 14 16  0 45.0020000  0  6G 1G11G14G23G20G25
  -2975461.10249  -2314732.64846  21434752.9244   21434751.9204
       -32.5264
    705732.50049    551192.91845  22001070.9084   22001068.5334
     -1383.0334
    580550.180 3                  23946420.494
     -3569.644
  -2897853.79747  -2247082.00043  24115574.8614   24115573.0884
      1885.7674
  -6877333.69548  -5358163.93744  22992825.1044   22992822.2254
      1806.6044
  -2362229.47749  -1836885.84846  21444035.0574   21444033.1704
      -634.5624
 04  9 14 16  1  0.0020000  0  6G 1G11G14G23G20G25
  -2974910.71949  -2314303.78546  21434857.2524   21434856.3184
       -36.6924
    726598.65649    567452.24245  22005042.1274   22005038.7254
     -1391.0774
    634092.348 3                  23956611.643
     -3569.478
  -2926112.43447  -2269101.69943  24110197.9864   24110194.8774
      1883.9094
  -6904414.02048  -5379265.49244  22987672.6744   22987668.6074
      1805.3554
  -2352590.25849  -1829374.78146  21445869.4794   21445867.0254
      -642.6154
 04  9 14 16  1 15.0020000  0  6G 1G11G14G23G20G25
  -2974297.40249  -2313825.88746  21434974.7444   21434973.1704
       -40.8884
    747585.98449    583805.98445  22009036.2214   22009032.8574
     -1399.1554
    687632.438 3                  23966800.299
     -3569.339
  -2954342.67648  -2291099.26243  24104826.0024   24104821.4944
      1882.0164
  -6931475.03148  -5400351.98044  22982522.5334   22982519.3184
      1804.0674
  -2342829.86349  -1821769.27346  21447727.2214   21447725.2644
      -650.6934
 04  9 14 16  1 30.0020000  0  5G 1G11G23G20G25
  -2973622.19149  -2313299.75046  21435103.1824   21435101.5684
       -45.0144
    768693.41849    600253.34446  22013051.9634   22013049.9004
     -1407.1624
  -2982545.21547  -2313075.28143  24099459.6434   24099455.0294
      1880.1694
  -6958517.45348  -5421423.97344  22977376.1194   22977373.9514
      1802.8284
  -2332949.16849  -1814070.02046  21449607.2754   21449605.0804
      -658.7134
 04  9 14 16  1 45.0020000  0  5G 1G11G23G20G25
  -2972886.60949  -2312726.56246  21435243.2214   21435241.5884
       -49.0394
    789919.46549    616793.11746  22017091.2754   22017089.0684
     -1415.0704
  -3010721.76647  -2335031.02343  24094098.1974   24094093.6824
      1878.4374
  -6985542.41448  -5442482.37944  22972233.7754   22972231.7834
      1801.6644
  -2322949.61749  -1806278.14546  21451509.4084   21451507.8934
      -666.6374
 04  9 14 16  2  0.0030000  0  5G 1G11G23G20G25
  -2972088.03549  -2312104.30946  21435395.6164   21435393.5654
       -53.2384
    811268.01249    633428.34446  22021153.7264   22021151.5114
     -1423.2364
  -3038871.30947  -2356965.72343  24088741.7334   24088737.0504
      1876.6364
  -7012548.91448  -5463526.39844  22967093.8824   22967092.2924
      1800.4334
  -2312827.94549  -1798391.13746  21453435.9214   21453434.2574
      -674.7784
 04  9 14 16  2 15.0030000  0  5G 1G11G23G20G25
  -2971226.44549  -2311432.92646  21435559.0774   21435557.0894
       -57.4394
    832736.37549    650156.92245  22025239.2654   22025236.8974
     -1431.2244
  -3066989.80947  -2378876.21943  24083390.6634   24083386.0854
      1874.5674
  -7039532.90648  -5484552.91444  22961959.7964   22961957.9014
      1798.9334
  -2302585.28149  -1790409.84846  21455385.3274   21455383.0194
      -682.8444
 04  9 14 16  2 30.0030000  0  5G 1G11G23G20G25
  -2970304.05149  -2310714.16846  21435734.6014   21435732.1714
       -61.4934
    854323.78149    666978.28145  22029346.9054   22029345.1124
     -1439.1604
  -3095081.38748  -2400765.72343  24078045.1324   24078040.5774
      1872.7724
  -7066498.28548  -5505564.89144  22956828.5074   22956826.8824
      1797.6924
  -2292223.25449  -1782335.52346  21457357.2264   21457354.0264
      -690.8024
 04  9 14 16  2 45.0030000  0  5G 1G11G23G20G25
  -2969317.72349  -2309945.59446  21435922.4604   21435920.6084
       -65.7554
    876033.20749    683894.68845  22033478.4834   22033475.2184
     -1447.2954
  -3123142.74247  -2422631.70743  24072704.7724   24072701.5584
      1870.7574
  -7093441.53948  -5526559.65244  22951700.6794   22951699.7654
      1796.2174
  -2281738.71149  -1774165.73046  21459352.2884   21459350.0974
      -698.9704
 04  9 14 16  3  0.0030000  0  5G 1G11G23G20G25
  -2968269.64549  -2309128.91446  21436121.4214   21436120.3434
       -69.8724
    897862.43849    700904.46545  22037632.3904   22037629.1834
     -1455.2824
  -3151175.87148  -2444475.68443  24067370.0774   24067366.1634
      1868.8754
  -7120364.71148  -5547538.74644  22946577.2884   22946575.7534
      1794.8784
  -2271133.76249  -1765902.13346  21461369.9524   21461368.4374
      -706.9974
 04  9 14 16  3 15.0030000  0  5G 1G11G23G20G25
  -2967159.17649  -2308263.60246  21436333.2574   21436331.3234
       -74.0314
    919812.10249    718008.09845  22041809.0224   22041806.0034
     -1463.3114
  -3179180.06647  -2466297.11343  24062040.9294   24062036.5194
      1866.9464
  -7147266.81248  -5568501.41444  22941458.1634   22941454.7574
      1793.4734
  -2260407.78949  -1757544.24646  21463410.5154   21463409.3974
      -715.0654
 04  9 14 16  3 30.0030000  0  5G 1G11G23G20G25
  -2965986.31649  -2307349.68046  21436555.7654   21436554.8664
       -78.1914
    941882.30549    735205.64145  22046008.9294   22046005.8944
     -1471.3474
  -3207155.20347  -2488095.91043  24056717.3274   24056713.0114
      1865.0094
  -7174147.63348  -5589447.48444  22936342.1324   22936339.7294
      1792.0554
  -2249560.82449  -1749092.08246  21465475.0854   21465474.0584
      -723.1314
 04  9 14 16  3 45.0030000  0  5G 1G11G23G20G25
  -2964752.39149  -2306388.19146  21436791.1554   21436790.3044
       -82.2624
    964071.63749    752496.02045  22050231.6084   22050228.2844
     -1479.2894
  -3235102.42247  -2509872.93743  24051398.9054   24051394.9404
      1863.1484
  -7201008.13348  -5610377.73844  22931231.6014   22931228.5424
      1790.7004
  -2238593.98049  -1740546.48846  21467562.6874   21467560.2414
      -731.1234
 04  9 14 16  4  0.0030000  0  5G 1G11G23G20G25
  -2963455.07449  -2305377.30946  21437038.3664   21437036.0734
       -86.4884
    986382.21949    769880.87545  22054476.6944   22054474.1634
     -1487.3724
  -3263019.37147  -2531626.42243  24046087.1554   24046083.2694
      1861.1304
  -7227845.66448  -5631290.09444  22926124.9294   22926121.8004
      1789.1694
  -2227504.97749  -1731905.69546  21469672.6554   21469669.6364
      -739.2674
 04  9 14 16  4 15.0030000  0  5G 1G11G23G20G25
  -2962095.66849  -2304318.01246  21437296.6554   21437294.2724
       -90.6274
   1008812.78149    787359.22745  22058745.2104   22058742.6204
     -1495.3714
  -3290907.14547  -2553357.13343  24040780.1244   24040775.9404
      1859.1854
  -7254661.35248  -5652185.42244  22921021.4764   22921018.9834
      1787.7134
  -2216294.98449  -1723170.63346  21471805.8124   21471803.6444
      -747.3334
 04  9 14 16  4 30.0030000  0  5G 1G11G23G20G25
  -2960674.48849  -2303210.59446  21437567.5304   21437565.3004
       -94.7454
   1031363.05549    804930.85945  22063036.9444   22063034.0624
     -1503.3524
  -3318765.98447  -2575065.28143  24035479.4444   24035474.6514
      1857.2564
  -7281455.27348  -5673063.82444  22915923.7024   22915920.8044
      1786.2614
  -2204964.49249  -1714341.67246  21473961.7574   21473960.3004
      -755.3664
 04  9 14 16  4 45.0030000  0  5G 1G11G23G20G25
  -2959191.93449  -2302055.35246  21437849.7104   21437847.8514
       -98.8374
   1054032.62949    822595.44545  22067350.2654   22067347.6244
     -1511.3054
  -3346596.24247  -2596751.19943  24030182.7574   24030179.6324
      1855.3514
  -7308227.60548  -5693925.35244  22910829.0694   22910826.2654
      1784.8224
  -2193513.87549  -1705419.10546  21476140.8974   21476138.1874
      -763.3744
 04  9 14 16  5  0.0030000  0  5G 1G11G23G20G25
  -2957647.05949  -2300851.55946  21438143.2494   21438142.1514
      -102.9924
   1076822.20749    840353.55545  22071686.9994   22071684.4014
     -1519.3054
  -3374396.87946  -2618414.01243  24024892.9604   24024888.7884
      1853.3764
  -7334977.07848  -5714769.11744  22905737.9294   22905735.6634
      1783.2984
  -2181942.21149  -1696402.21146  21478342.9374   21478340.4724
      -771.4444
 04  9 14 16  5 15.0030000  0  5G 1G11G23G20G25
  -2956039.91449  -2299599.23446  21438449.3044   21438447.2764
      -107.1434
   1099731.93049    858205.26645  22076047.1874   22076044.1284
     -1527.3154
  -3402167.68747  -2640053.59043  24019607.4294   24019604.0814
      1851.3874
  -7361703.33648  -5735594.77044  22900651.7724   22900649.4604
      1781.7514
  -2170249.41049  -1687290.92246  21480567.4604   21480565.7884
      -779.5204
 04  9 14 16  5 30.0030000  0  5G 1G11G23G20G25
  -2954371.82049  -2298299.41046  21438766.6874   21438764.1244
      -111.2064
   1122760.27749    876149.43045  22080429.2104   22080426.7924
     -1535.2234
  -3429909.87547  -2661670.85943  24014329.0544   24014324.6634
      1849.4794
  -7388407.61348  -5756403.31244  22895570.5384   22895567.8234
      1780.2854
  -2158436.68449  -1678086.20346  21482815.1944   21482813.7804
      -787.5154
 04  9 14 16  5 45.0030000  0  5G 1G11G23G20G25
  -2952644.31649  -2296953.31246  21439095.8124   21439093.1244
      -115.1674
   1145905.75049    894184.84045  22084833.0934   22084830.9174
     -1543.0324
  -3457624.89847  -2683266.98043  24009055.1794   24009051.0894
      1847.6684
  -7415091.08648  -5777195.62944  22890492.7494   22890489.8664
      1778.8984
  -2146505.57849  -1668789.25846  21485086.2184   21485083.9174
      -795.4074
 04  9 14 16  6  0.0030000  0  5G 1G11G23G20G25
  -2950854.43449  -2295558.59446  21439436.5694   21439433.9684
      -119.3264
   1169171.21549    912313.76245  22089260.6014   22089257.0344
     -1551.0314
  -3485309.73447  -2704839.55143  24003786.6944   24003783.5504
      1845.6564
  -7441750.46148  -5797969.15244  22885419.8044   22885417.0814
      1777.2924
  -2134453.32049  -1659397.87146  21487379.8584   21487377.7534
      -803.4844
 04  9 14 16  6 15.0030000  0  5G 1G11G23G20G25
  -2949003.44549  -2294116.26246  21439787.8974   21439786.1554
      -123.3994
   1192555.39549    930535.19545  22093710.6474   22093707.1984
     -1558.9454
  -3512965.42247  -2726389.41043  23998523.2964   23998519.8084
      1843.7134
  -7468386.82448  -5818724.77044  22880351.4444   22880348.9334
      1775.7584
  -2122281.03149  -1649912.96946  21489695.9524   21489693.8314
      -811.4864
 04  9 14 16  6 30.0030000  0  5G 1G11G23G20G25
  -2947091.34449  -2292626.30946  21440152.1244   21440150.0624
      -127.4734
   1216058.40249    948849.23445  22098182.8124   22098180.2264
     -1566.8674
  -3540591.91047  -2747916.53143  23993267.1244   23993261.9214
      1841.7664
  -7494999.77749  -5839462.13345  22875287.1944   22875285.2334
      1774.1974
  -2109988.54349  -1640334.40246  21492034.7804   21492032.8194
      -819.4994
 04  9 14 16  6 45.0030000  0  5G 1G11G23G20G25
  -2945116.68449  -2291087.60546  21440527.9214   21440525.6244
      -131.6444
   1239681.49649    967256.82045  22102678.5074   22102675.4524
     -1574.8734
  -3568187.50447  -2769419.56643  23988015.5694   23988010.7804
      1839.7064
  -7521587.59449  -5860179.93744  22870227.9214   22870224.8394
      1772.5214
  -2097574.44149  -1630661.06646  21494397.6714   21494395.1874
      -827.6074
 04  9 14 16  7  0.0030000  0  5G 1G11G23G20G25
  -2943080.19549  -2289500.72746  21440915.0154   21440913.6084
      -135.7664
   1263423.99649    985757.45745  22107196.4134   22107193.9214
     -1582.8334
  -3595752.85947  -2790899.03943  23982769.5694   23982765.8084
      1837.6904
  -7548150.73449  -5880878.46944  22865172.4054   22865170.1904
      1770.8764
  -2085039.41449  -1620893.51246  21496782.7494   21496781.0224
      -835.6684
 04  9 14 16  7 15.0030000  0  6G 1G11G14G23G20G25
  -2940982.83249  -2287866.41046  21441313.9834   21441313.1124
      -139.8244
   1287284.80549   1004350.28945  22111736.8354   22111734.3864
     -1590.7214
                                  24211125.077

  -3623288.86347  -2812355.65643  23977529.6714   23977525.7764
      1835.7344
  -7574689.88749  -5901558.34844  22860122.4684   22860119.7924
      1769.2774
  -2072384.39849  -1611032.46547  21499190.7494   21499189.2574
      -843.6684
 04  9 14 16  7 30.0030000  0  6G 1G11G14G23G20G25
  -2938823.87149  -2286184.10546  21441725.0774   21441723.8744
      -143.9314
   1311264.57049   1023035.79745  22116300.1554   22116297.7764
     -1598.6514
                                  24221293.507

  -3650794.78947  -2833788.83243  23972295.7724   23972291.5114
      1833.7284
  -7601204.24248  -5922218.88744  22855076.7334   22855074.3154
      1767.6244
  -2059608.89149  -1601077.51647  21501622.2264   21501620.2144
      -851.7014
 04  9 14 16  7 45.0030000  0  5G 1G11G23G20G25
  -2936603.33249  -2284453.82846  21442147.7574   21442146.2374
      -148.0364
   1335363.32849   1041814.03545  22120886.5464   22120883.3044
     -1606.5844
  -3678270.24648  -2855198.28943  23967066.9764   23967062.5654
      1831.6974
  -7627693.48849  -5942859.86344  22850036.5074   22850033.1834
      1765.9504
  -2046712.83249  -1591028.64146  21504075.9134   21504073.5734
      -859.7374
 04  9 14 16  8  0.0030000  0  5G 1G11G23G20G25
  -2934321.64549  -2282675.87146  21442581.7184   21442579.7804
      -152.1124
   1359580.48849   1060684.55945  22125494.6714   22125491.6444
     -1614.4774
  -3705715.80947  -2876584.40643  23961844.0464   23961840.9484
      1829.7044
  -7654157.70349  -5963481.31244  22845000.2964   22844996.8824
      1764.2814
  -2033696.54349  -1580886.07446  21506553.1324   21506550.6084
      -867.7534
 04  9 14 16  8 15.0030000  0  5G 1G11G23G20G25
  -2931978.55549  -2280850.07446  21443027.8974   21443025.5384
      -156.2064
   1383916.22749   1079647.46945  22130125.4134   22130123.0384
     -1622.3834
  -3733131.01647  -2897946.90243  23956626.9764   23956622.9914
      1827.6804
  -7680596.28548  -5984082.80544  22839969.3584   22839966.0114
      1762.5724
  -2020559.71149  -1570649.56646  21509053.0774   21509050.5034
      -875.7894
 04  9 14 16  8 30.0030000  0  5G 1G11G23G20G25
  -2929573.21149  -2278975.78146  21443485.4684   21443483.4724
      -160.3564
   1408371.36749   1098703.40245  22134779.0304   22134777.1474
     -1630.3434
  -3760514.85947  -2919284.94943  23951416.2414   23951412.7224
      1825.5904
  -7707008.09848  -6004663.39844  22834942.8584   22834941.2574
      1760.7874
  -2007301.58249  -1560318.54346  21511575.9684   21511573.7224
      -883.8754
 04  9 14 16  8 45.0030000  0  6G 1G11G14G23G20G25
  -2927106.67649  -2277053.81646  21443955.1554   21443952.9374
      -164.4364
   1432944.84849   1117851.56345  22139455.8044   22139452.4914
     -1638.2324
     19938.35514                  24272132.882

  -3787868.32447  -2940599.30543  23946210.5694   23946207.2804
      1823.5644
  -7733393.95348  -6025223.81644  22829921.6794   22829920.7454
      1759.0574
  -1993923.12149  -1549893.75846  21514121.3744   21514119.4914
      -891.8974
 04  9 14 16  9  0.0030000  0  6G 1G11G14G23G20G25
  -2924577.96549  -2275083.38746  21444436.2104   21444433.8044
      -168.5814
   1457637.64149   1137092.70746  22144154.2724   22144151.1674
     -1646.1864
     73355.270 4                  24282297.601
     -3561.128
  -3815190.28146  -2961889.14843  23941011.6794   23941007.4484
      1821.4644
  -7759752.61748  -6045763.02744  22824906.0624   22824904.4374
      1757.2444
  -1980423.48449  -1539374.55546  21516690.3124   21516688.1714
      -899.9764
 04  9 14 16  9 15.0030000  0  6G 1G11G14G23G20G25
  -2921988.12549  -2273065.32846  21444928.9524   21444927.0584
      -172.6564
   1482448.50849   1156425.82445  22148875.6084   22148873.1404
     -1654.0584
    126766.910 3                  24292463.101
     -3560.776
  -3842481.68447  -2983155.13743  23935818.4684   23935814.5814
      1819.4274
  -7786084.87948  -6066281.67244  22819894.7964   22819893.3194
      1755.4844
  -1966803.55149  -1528761.62946  21519282.2724   21519280.4954
      -907.9964
 04  9 14 16  9 30.0030000  0  6G 1G11G14G23G20G25
  -2919337.01649  -2270999.53546  21445433.5074   21445431.6634
      -176.7414
   1507377.51249   1175851.02745  22153619.2724   22153617.1714
     -1661.9344
    180173.39112                  24302626.546
     -3560.424
  -3869742.14147  -3004397.04343  23930630.9914   23930626.7264
      1817.3644
  -7812390.23048  -6086779.34844  22814889.1164   22814886.9524
      1753.6904
  -1953063.23049  -1518054.86746  21521896.8354   21521895.4214
      -916.0214
 04  9 14 16  9 45.0030000  0  5G 1G11G23G20G25
  -2916623.39849  -2268885.02346  21445949.9134   21445948.3354
      -180.9084
   1532426.12949   1195369.41445  22158385.9054   22158383.5654
     -1669.9084
  -3896970.32846  -3025613.78543  23925449.7804   23925445.7024
      1815.2134
  -7838667.18747  -6107254.93044  22809888.4524   22809886.3474
      1751.7974
  -1939201.35249  -1507253.39547  21524534.4054   21524533.4834
      -924.1254
 04  9 14 16 10  0.0030000  0  5G 1G11G23G20G25
  -2913847.44149  -2266721.93046  21446478.1164   21446476.8154
      -185.0644
   1557594.08249   1214980.80545  22163174.8194   22163172.5934
     -1677.8644
  -3924166.41046  -3046805.51643  23920274.7264   23920269.8234
      1813.0724
  -7864915.57448  -6127708.21944  22804894.1554   22804891.9484
      1749.8924
  -1925218.15649  -1496357.41047  21527195.6164   21527193.7224
      -932.2134
 04  9 14 16 10 15.0030000  0  5G 1G11G23G20G25
  -2911010.56249  -2264511.37146  21447017.5774   21447016.4954
      -189.1254
   1582879.64849   1234683.83245  22167986.9914   22167983.8584
     -1685.7044
  -3951331.69547  -3067973.25443  23915104.9134   23915100.8354
      1811.0194
  -7891136.55148  -6148140.15244  22799904.0934   22799900.9764
      1748.0654
  -1911114.88349  -1485367.84047  21529879.6714   21529877.6514
      -940.2184
 04  9 14 16 10 30.0030000  0  5G 1G11G23G20G25
  -2908111.54349  -2262252.40646  21447569.3274   21447567.5584
      -193.2684
   1608284.18449   1254479.55945  22172821.1474   22172818.1834
     -1693.6364
  -3978464.73447  -3089115.86343  23909941.9914   23909938.0814
      1808.8694
  -7917328.56248  -6168549.49644  22794920.2654   22794916.9094
      1746.1344
  -1896890.29749  -1474283.75046  21532586.0544   21532584.6124
      -948.3064
 04  9 14 16 10 45.0030000  0  5G 1G11G23G20G25
  -2905149.55949  -2259944.35546  21448133.5224   21448131.2844
      -197.4664
   1633808.41049   1274368.55945  22177678.7334   22177675.4764
     -1701.6154
  -4005564.53548  -3110232.59443  23904785.2414   23904780.2964
      1806.6534
  -7943490.59448  -6188935.48044  22789941.8514   22789938.4684
      1744.1354
  -1882543.61749  -1463104.52046  21535316.4914   21535313.8664
      -956.4454
 04  9 14 16 11  0.0030000  0  5G 1G11G23G20G25
  -2902125.32049  -2257587.80546  21448708.5624   21448706.8704
      -201.6164
   1659451.50449   1294350.18445  22182558.6084   22182555.6204
     -1709.5404
  -4032631.73847  -3131323.89143  23899634.0304   23899628.9484
      1804.4804
  -7969622.91048  -6209298.35244  22784969.2334   22784966.8434
      1742.1544
  -1868075.46549  -1451830.64146  21538069.8044   21538067.0384
      -964.5434
 04  9 14 16 11 15.0030000  0  5G 1G11G23G20G25
  -2899038.79349  -2255182.71946  21449296.2264   21449294.1364
      -205.7684
   1685213.40249   1314424.39145  22187460.1324   22187457.6364
     -1717.4604
  -4059666.12547  -3152389.66043  23894489.7884   23894485.5734
      1802.2924
  -7995725.31648  -6229637.88344  22780001.7884   22779999.9254
      1740.1604
  -1853485.89849  -1440462.12146  21540846.1084   21540843.1044
      -972.6384
 04  9 14 16 11 30.0030000  0  5G 1G11G23G20G25
  -2895890.37149  -2252729.40246  21449895.0544   21449893.8194
      -209.8954
   1711093.68449   1334590.81645  22192384.9604   22192382.5894
     -1725.3524
  -4086668.14847  -3173430.15643  23889350.6164   23889347.6834
      1800.1354
  -8021797.80148  -6249954.11744  22775040.8584   22775038.8234
      1738.1664
  -1838775.23849  -1428999.24646  21543645.0544   21543642.6674
      -980.7114
 04  9 14 16 11 45.0030000  0  5G 1G11G23G20G25
  -2892679.98049  -2250227.80146  21450506.0464   21450504.8394
      -214.0264
   1737092.41849   1354849.56645  22197332.6164   22197330.3434
     -1733.2494
  -4113637.48847  -3194445.21543  23884219.1714   23884215.2724
      1797.9564
  -8047840.05149  -6270246.76244  22770084.6324   22770082.3664
      1736.1504
  -1823943.43749  -1417441.99246  21546467.7724   21546465.3354
      -988.7874
 04  9 14 16 12  0.0030000  0  5G 1G11G23G20G25
  -2889407.85949  -2247678.11746  21451128.8584   21451127.7844
      -218.1414
   1763209.22349   1375200.31645  22202302.7654   22202299.4524
     -1741.1204
  -4140574.37147  -3215434.99243  23879093.4764   23879089.0934
      1795.7924
  -8073852.00848  -6290515.82844  22765134.8584   22765132.6014
      1734.1304
  -1808990.81649  -1405790.59446  21549312.9604   21549310.5034
      -996.8414
 04  9 14 16 12 15.0030000  0  5G 1G11G23G20G25
  -2886074.06249  -2245080.35246  21451763.3354   21451761.2964
      -222.2534
   1789444.05549   1395643.02745  22207295.0694   22207292.1164
     -1748.9894
  -4167478.56646  -3236399.25843  23873973.6404   23873970.1834
      1793.6134
  -8099833.50448  -6310761.14144  22760190.2264   22760188.4374
      1732.1004
  -1793917.42649  -1394045.09046  21552180.9684   21552178.6014
     -1004.8934
 04  9 14 16 12 30.0030000  0  5G 1G11G23G20G25
  -2882678.03149  -2242434.08246  21452409.3664   21452407.4054
      -226.4024
   1815797.31649   1416178.03545  22212309.9294   22212307.3784
     -1756.8844
  -4194349.48047  -3257337.61343  23868859.7804   23868856.8544
      1791.3944
  -8125783.69148  -6330982.08244  22755252.3904   22755249.3194
      1730.0134
  -1778722.75849  -1382205.06646  21555072.2654   21555070.7144
     -1012.9784
 04  9 14 16 12 45.0030000  0  5G 1G11G23G20G25
  -2879218.91449  -2239738.65246  21453067.2724   21453065.5034
      -230.6084
   1842269.79749   1436805.94145  22217347.3124   22217345.3354
     -1764.8324
  -4221186.03147  -3278249.21543  23863753.0224   23863749.9444
      1789.1034
  -8151701.37548  -6351177.68444  22750320.4214   22750317.6444
      1727.8464
  -1763405.92649  -1370269.88346  21557986.9054   21557985.7294
     -1021.1224
 04  9 14 16 13  0.0030000  0  5G 1G11G23G20G25
  -2875698.16049  -2236995.21546  21453737.4834   21453735.8744
      -234.7174
   1868859.99649   1457525.55945  22222407.1474   22222404.9134
     -1772.6804
  -4247989.68047  -3299135.16044  23858653.8274   23858649.3124
      1786.9104
  -8177587.69548  -6371348.85244  22745394.7024   22745392.0304
      1725.7554
  -1747968.39549  -1358240.65246  21560924.8584   21560923.4644
     -1029.1694
 04  9 14 16 13 15.0030000  0  5G 1G11G23G20G25
  -2872114.77749  -2234202.95746  21454419.3354   21454417.7334
      -238.8924
   1895568.80149   1478337.60945  22227489.5304   22227487.7144
     -1780.5874
  -4274759.32847  -3319994.59843  23853558.6084   23853554.8274
      1784.6434
  -8203441.43447  -6391494.61344  22740474.7264   22740472.1474
      1723.5834
  -1732409.09049  -1346116.51646  21563885.8664   21563884.4644
     -1037.2874
 04  9 14 16 13 30.0030000  0  5G 1G11G23G20G25
  -2868469.44149  -2231362.44546  21455113.4524   21455111.2614
      -243.0224
   1922395.46549   1499241.50445  22232594.7184   22232592.8544
     -1788.4444
  -4301495.52747  -3340827.98443  23848471.4294   23848466.9874
      1782.4134
  -8229262.96948  -6411615.30145  22735561.7884   22735558.8784
      1721.4364
  -1716728.72749  -1333898.06246  21566869.7654   21566867.9914
     -1045.3584
 04  9 14 16 13 45.0030000  0  5G 1G11G23G20G25
  -2864761.68449  -2228473.28946  21455818.5934   21455816.5694
      -247.1844
   1949340.41049   1520237.56345  22237722.6244   22237719.9214
     -1796.3304
  -4328197.64848  -3361634.82443  23843390.0854   23843385.4564
      1780.1414
  -8255051.52049  -6431710.24644  22730653.8044   22730650.9564
      1719.2374
  -1700927.03549  -1321585.03946  21569876.6084   21569874.7614
     -1053.4464
 04  9 14 16 14  0.0030000  0  5G 1G11G23G20G25
  -2860992.26248  -2225536.07446  21456535.9444   21456534.0194
      -251.2954
   1976402.84449   1541325.16445  22242872.0624   22242869.6794
     -1804.1624
  -4354866.25848  -3382415.52343  23838314.6244   23838310.3624
      1777.9074
  -8280807.29748  -6451779.70344  22725752.6794   22725750.3084
      1717.0524
  -1685004.55949  -1309177.91446  21572906.7264   21572905.0584
     -1061.4984
 04  9 14 16 14 15.0030000  0  5G 1G11G23G20G25
  -2857162.06248  -2222551.50446  21457264.7724   21457263.1874
      -255.3474
   2003582.01249   1562503.73445  22248044.2264   22248041.4374
     -1811.9454
  -4381502.05547  -3403170.69543  23833246.3584   23833241.9954
      1775.7204
  -8306531.11747  -6471824.22344  22720857.3584   22720854.9644
      1714.9214
  -1668962.39149  -1296677.50846  21575959.6164   21575957.0464
     -1069.4784
 04  9 14 16 14 30.0030000  0  5G 1G11G23G20G25
  -2853267.48849  -2219516.77746  21458006.0854   21458004.4724
      -259.6384
   2030881.16049   1583775.78945  22253238.7724   22253235.9374
     -1819.9434
  -4408101.51248  -3423897.52043  23828184.6244   23828179.5694
      1773.2974
  -8332219.07848  -6491840.82044  22715969.4294   22715966.1404
      1712.5314
  -1652796.91449  -1284081.03546  21579035.9294   21579033.8864
     -1077.6984
 04  9 14 16 14 45.0030000  0  5G 1G11G23G20G25
  -2849310.02049  -2216433.03946  21458759.2654   21458757.3624
      -263.8314
   2058298.71549   1605140.10245  22258456.3904   22258453.4134
     -1827.8374
  -4434665.94147  -3444597.03543  23823129.3744   23823125.1754
      1770.9624
  -8357872.38749  -6511830.41044  22711087.8584   22711085.0694
      1710.2214
  -1636509.49649  -1271389.53946  21582134.8434   21582133.0584
     -1085.8284
 04  9 14 16 15  0.0030000  0  5G 1G11G23G20G25
  -2845290.89549  -2213301.23046  21459523.9914   21459521.9724
      -267.9424
   2085833.34449   1626595.64545  22263696.0694   22263692.6634
     -1835.6424
  -4461196.30947  -3465270.05143  23818080.6404   23818076.6444
      1768.6914
  -8383491.93048  -6531793.68445  22706212.4214   22706210.1944
      1707.9704
  -1620101.30949  -1258603.93046  21585256.9684   21585255.3044
     -1093.8794
 04  9 14 16 15 15.0030000  0  5G 1G11G23G20G25
  -2841208.55549  -2210120.19146  21460301.0224   21460298.9724
      -272.1564
   2113486.59849   1648143.62545  22268958.2654   22268955.2574
     -1843.5504
  -4487691.02047  -3485915.25443  23813039.3974   23813034.8434
      1766.3144
  -8409075.77048  -6551729.14544  22701343.9604   22701341.7024
      1705.5894
  -1603570.94149  -1245723.12146  21588402.8434   21588401.1714
     -1102.0244
 04  9 14 16 15 30.0030000  0  5G 1G11G23G20G25
  -2837063.03149  -2206889.91446  21461089.3904   21461087.6124
      -276.3684
   2141258.39849   1669783.99245  22274243.1324   22274240.1514
     -1851.4534
  -4514150.04746  -3506532.65243  23808003.6474   23807999.4094
      1763.9354
  -8434623.71948  -6571636.65244  22696482.3044   22696480.5114
      1703.1974
  -1586918.52049  -1232747.20746  21591571.8904   21591569.7024
     -1110.1614
 04  9 14 16 15 45.0030000  0  5G 1G11G23G20G25
  -2832854.68449  -2203610.69146  21461890.8194   21461888.5854
      -280.5574
   2169148.23049   1691516.31645  22279550.4374   22279547.6554
     -1859.3224
  -4540573.63747  -3527122.46144  23802976.1404   23802971.3944
      1761.5734
  -8460135.84448  -6591516.23844  22691627.2964   22691625.7454
      1700.8084
  -1570144.26649  -1219676.34846  21594763.9054   21594761.7534
     -1118.2844
 04  9 14 16 16  0.0030000  0  5G 1G11G23G20G25
  -2828583.80549  -2200282.73046  21462703.4604   21462700.4254
      -284.7254
   2197155.72349   1713340.32045  22284880.1014   22284877.0854
     -1867.1664
  -4566962.07448  -3547684.85944  23797955.1014   23797949.6834
      1759.2294
  -8485612.15248  -6611367.89545  22686779.2264   22686776.8514
      1698.4214
  -1553248.68449  -1206510.98446  21597978.8974   21597976.6984
     -1126.3724
 04  9 14 16 16 15.0030000  0  5G 1G11G23G20G25
  -2824248.85949  -2196904.85246  21463527.9134   21463525.5224
      -288.9964
   2225282.28949   1735257.12145  22290232.1554   22290229.2144
     -1875.1044
  -4593313.61748  -3568218.50843  23792939.5304   23792935.7574
      1756.7704
  -8511050.76649  -6631190.19545  22681938.8664   22681936.9604
      1695.9084
  -1536230.24649  -1193249.86746  21601217.5304   21601215.3904
     -1134.5624
 04  9 14 16 16 30.0030000  0  5G 1G11G23G20G25
  -2819849.86749  -2193477.06246  21464364.7804   21464362.7924
      -293.2664
   2253527.92649   1757266.68845  22295607.1874   22295605.0624
     -1883.0424
  -4619628.07447  -3588723.25443  23787932.2264   23787927.9134
      1754.2974
  -8536451.41449  -6650982.92645  22677105.4054   22677103.2724
      1693.3774
  -1519088.98049  -1179893.04346  21604479.5544   21604477.6834
     -1142.7514
 04  9 14 16 16 45.0030000  0  5G 1G11G23G20G25
  -2815387.25049  -2189999.71146  21465214.1714   21465212.4604
      -297.5084
   2281891.91049   1779368.50045  22301004.5384   22301001.4334
     -1890.9324
  -4645905.86747  -3609199.43743  23782931.7654   23782927.9334
      1751.8534
  -8561814.39849  -6670746.29345  22672278.7334   22672277.3394
      1690.8664
  -1501825.32849  -1166440.82446  21607764.4374   21607762.8194
     -1150.9104
 04  9 14 16 17  0.0030000  0  6G 1G11G14G23G20G25
  -2810860.35249  -2186472.25447  21466075.9134   21466074.5974
      -301.7934
   2310375.03149   1801563.14545  22306424.8664   22306421.5694
     -1898.8754
                                  24607115.991

  -4672146.09448  -3629646.33643  23777938.0384   23777933.8864
      1749.3484
  -8587138.56248  -6690479.41044  22667459.9054   22667457.6634
      1688.2784
  -1484438.46549  -1152892.62146  21611073.4294   21611071.1364
     -1159.1244
 04  9 14 16 17 15.0030000  0  6G 1G11G14G23G20G25
  -2806270.02349  -2182895.37946  21466949.7334   21466947.5734
      -306.0224
   2338976.22349   1823849.77745  22311867.0384   22311864.2654
     -1906.7464
     66754.914 4                  24617254.913
     -3551.627
  -4698349.52048  -3650064.59443  23772951.9994   23772948.0464
      1746.8954
  -8612424.41048  -6710182.66044  22662648.0624   22662645.9644
      1685.7234
  -1466929.32449  -1139249.12146  21614404.6714   21614402.8974
     -1167.2764
 04  9 14 16 17 30.0030000  0  6G 1G11G14G23G20G25
  -2801616.38749  -2179269.15646  21467834.5854   21467832.8664
      -310.2424
   2367695.41049   1846228.34845  22317332.3744   22317330.6754
     -1914.6124
    120025.539 3                  24627390.718
     -3551.375
  -4724516.01648  -3670454.04343  23767972.6404   23767967.1164
      1744.4334
  -8637671.75848  -6729855.89844  22657842.3354   22657841.4094
      1683.1574
  -1449298.01249  -1125510.43746  21617760.1714   21617757.7574
     -1175.4214
 04  9 14 16 17 45.0030000  0  5G 1G11G23G20G25
  -2796898.58649  -2175592.95746  21468732.6244   21468730.2614
      -314.5204
   2396533.35549   1868699.46545  22322820.1634   22322818.2294
     -1922.5304
  -4750644.73047  -3690814.03543  23762999.3584   23762995.6324
      1741.9144
  -8662879.54749  -6749498.32045  22653046.6404   22653044.1244
      1680.5194
  -1431544.00849  -1111676.14146  21621139.1324   21621136.6124
     -1183.6004
 04  9 14 16 18  0.0030000  0  5G 1G11G23G20G25
  -2792116.55949  -2171866.69546  21469642.1794   21469640.0624
      -318.8024
   2425489.96149   1891263.03945  22328330.7964   22328327.3354
     -1930.4404
  -4776735.52747  -3711144.53144  23758035.8744   23758031.2024
      1739.3864
  -8688047.32448  -6769109.56644  22648257.2654   22648255.0114
      1677.8524
  -1413667.14849  -1097746.10946  21624540.9134   21624538.4444
     -1191.7914
 04  9 14 16 18 15.0030000  0  5G 1G11G23G20G25
  -2787270.98849  -2168090.94146  21470564.3354   21470562.1714
      -323.0384
   2454564.28549   1913918.37945  22333862.9764   22333860.0584
     -1938.2884
  -4802789.11347  -3731445.99644  23753077.7264   23753074.3514
      1736.9064
  -8713175.63348  -6788690.05545  22643475.4834   22643473.0854
      1675.2214
  -1395668.25849  -1083721.01246  21627965.7724   21627963.0584
     -1199.9264
 04  9 14 16 18 30.0030000  0  5G 1G11G23G20G25
  -2782360.01649  -2164264.20346  21471499.2494   21471497.5154
      -327.3984
   2483758.47349   1936667.07045  22339418.4524   22339415.7224
     -1946.2794
  -4828803.34847  -3751716.84043  23748127.2414   23748123.0974
      1734.2824
  -8738262.25848  -6808238.09445  22638701.5304   22638699.1714
      1672.4424
  -1377545.53949  -1069599.40646  21631414.0384   21631412.3974
     -1208.1814
 04  9 14 16 18 45.0030000  0  5G 1G11G23G20G25
  -2777384.41449  -2160387.10546  21472445.9054   21472444.7764
      -331.7074
   2513071.44949   1959508.34445  22344996.6794   22344994.0814
     -1954.1984
  -4854778.85247  -3771957.44944  23743183.7724   23743180.0384
      1731.7004
  -8763307.54748  -6827753.89144  22633935.6554   22633932.6554
      1669.6864
  -1359299.59449  -1055381.78946  21634886.1084   21634884.4684
     -1216.3964
 04  9 14 16 19  0.0030000  0  6G 1G11G14G23G20G25
  -2772344.34049  -2156459.77746  21473405.2104   21473403.9214
      -336.0054
   2542502.90249   1982441.91445  22350597.3434   22350594.5224
     -1962.0974
                                  24688204.765

  -4880715.67647  -3792167.93744  23738248.7804   23738244.6084
      1729.1224
  -8788311.20749  -6847237.27045  22629178.1944   22629175.2614
      1666.9114
  -1340930.51649  -1041068.22346  21638381.4294   21638379.1044
     -1224.6054
 04  9 14 16 19 15.0030000  0  6G 1G11G14G23G20G25
  -2767238.93049  -2152481.53946  21474377.1874   21474375.6834
      -340.3614
   2572053.49649   2005468.35945  22356221.0694   22356217.6044
     -1970.0404
     72410.34014                  24698340.187

  -4906612.80946  -3812347.49644  23733319.6474   23733316.9834
      1726.4764
  -8813272.28948  -6866687.45745  22624427.7414   22624425.3004
      1664.0724
  -1322437.60549  -1026658.16046  21641900.8514   21641898.5224
     -1232.8614
 04  9 14 16 19 30.0030000  0  6G 1G11G14G23G20G25
  -2762067.49249  -2148451.83246  21475360.8274   21475359.0344
      -344.7624
   2601723.83649   2028588.09845  22361866.3354   22361864.6594
     -1978.0234
    125661.398 4                  24708469.812
     -3550.071
  -4932469.50447  -3832495.59043  23728400.1874   23728396.1014
      1723.7804
  -8838189.78149  -6886103.68045  22619686.3514   22619683.8704
      1661.1664
  -1303820.23449  -1012151.11346  21645443.6014   21645441.5074
     -1241.1584
 04  9 14 16 19 45.0030000  0  6G 1G11G14G23G20G25
  -2756830.68049  -2144371.20746  21476357.3434   21476355.5734
      -349.1214
   2631513.30549   2051800.66445  22367535.7804   22367533.2024
     -1985.9654
    178910.719 4                  24718602.577
     -3549.955
  -4958286.29747  -3852612.53943  23723488.0464   23723482.0114
      1721.1204
  -8863064.13348  -6905486.26245  22614952.0694   22614950.3084
      1658.2904
  -1285079.10249   -997547.64146  21649010.3044   21649008.2924
     -1249.4094
 04  9 14 16 20  0.0030000  0  6G 1G11G14G23G20G25
  -2751527.74249  -2140239.04746  21477366.5694   21477364.3824
      -353.5294
   2661422.52349   2075106.54745  22373226.7964   22373224.2574
     -1993.9484
    232158.949 4                  24728735.780
     -3549.882
  -4984062.33647  -3872697.75044  23718582.7884   23718577.9134
      1718.4034
  -8887894.10248  -6924834.28544  22610227.4374   22610225.6794
      1655.3314
  -1266213.58249   -982847.24246  21652600.0074   21652597.7654
     -1257.7014
 04  9 14 16 20 15.0030000  0  5G 1G11G23G20G25
  -2746159.71149  -2136056.17246  21478387.5544   21478386.0814
      -357.8694
   2691450.30549   2098504.80545  22378941.4764   22378938.5304
     -2001.8524
  -5009798.48047  -3892751.86743  23713684.8584   23713680.5544
      1715.7434
  -8912680.47348  -6944148.34445  22605510.9294   22605508.8474
      1652.4254
  -1247224.70349   -968050.69946  21656213.2574   21656211.9214
     -1265.9254
 04  9 14 16 20 30.0030000  0  5G 1G11G23G20G25
  -2740726.71549  -2131822.67646  21479421.8124   21479420.0974
      -362.2004
   2721596.49249   2121995.33645  22384677.1164   22384675.5894
     -2009.7464
  -5035494.75046  -3912774.90244  23708795.1324   23708790.7494
      1713.0854
  -8937423.18448  -6963428.37145  22600803.1014   22600800.1284
      1649.5144
  -1228112.56249   -953158.13746  21659850.1874   21659848.7024
     -1274.1434
 04  9 14 16 20 45.0030000  0  5G 1G11G23G20G25
  -2735227.88349  -2127537.85946  21480468.1164   21480466.5304
      -366.5894
   2751861.87949   2145578.74645  22390437.3044   22390435.1474
     -2017.6924
  -5061150.14146  -3932766.11743  23703913.9374   23703908.2334
      1710.3594
  -8962120.83648  -6982673.31645  22596102.9684   22596100.7104
      1646.5104
  -1208876.31249   -938168.85246  21663510.9374   21663508.5974
     -1282.4174
 04  9 14 16 21  0.0030000  0  5G 1G11G23G20G25
  -2729663.07049  -2123201.65646  21481527.8904   21481525.3864
      -370.9874
   2782246.43049   2169255.02045  22396219.0154   22396216.3194
     -2025.6374
  -5086764.31647  -3952725.19144  23699038.8744   23699034.5154
      1707.6124
  -8986773.06248  -7001882.82845  22591412.3274   22591409.3624
      1643.4824
  -1189515.87149   -923082.79746  21667195.2414   21667192.5734
     -1290.6964
 04  9 14 16 21 15.0030000  0  6G 1G11G14G23G20G25
  -2724032.37149  -2118814.09046  21482598.8354   21482596.9764
      -375.3804
   2812749.92249   2193023.98045  22402023.3744   22402020.1754
     -2033.5664
     29097.18414                  24779395.491

  -5112337.37147  -3972652.23443  23694171.3904   23694168.9794
      1704.8704
  -9011379.55948  -7021056.71945  22586729.4914   22586727.0894
      1640.4334
  -1170031.32449   -907900.01646  21670902.9214   21670900.5654
     -1298.9704
 04  9 14 16 21 30.0030000  0  5G 1G11G23G20G25
  -2718335.28949  -2114374.79746  21483682.9834   21483680.7184
      -379.8054
   2843372.86349   2216885.99245  22407850.7724   22407848.1904
     -2041.5294
  -5137868.60248  -3992546.69543  23689314.3664   23689309.6014
      1702.0824
  -9035939.60948  -7040194.39545  22582055.7654   22582053.4604
      1637.3374
  -1150422.17649   -892620.14846  21674634.8974   21674632.3154
     -1307.2774
 04  9 14 16 21 45.0030000  0  5G 1G11G23G20G25
  -2712573.43749  -2109885.03946  21484779.2024   21484777.2654
      -384.1234
   2874113.32849   2240839.58245  22413701.0224   22413698.7064
     -2049.3644
  -5163359.68048  -4012409.85944  23684463.7884   23684458.7144
      1699.4054
  -9060454.56648  -7059296.95345  22577390.4294   22577387.5694
      1634.3304
  -1130690.16849   -877244.57446  21678389.2654   21678387.2264
     -1315.4674
 04  9 14 16 22  0.0030000  0  5G 1G11G23G20G25
  -2706746.02049  -2105344.19946  21485888.5304   21485886.4484
      -388.4954
   2904972.26649   2264885.50445  22419573.2964   22419571.3044
     -2057.2624
  -5188809.48847  -4032240.84843  23679620.1084   23679614.2694
      1696.6544
  -9084923.25848  -7078363.47345  22572734.9604   22572731.8274
      1631.2464
  -1110834.62548   -861772.72346  21682167.3274   21682164.8864
     -1323.7034
 04  9 14 16 22 15.0030000  0  5G 1G11G23G20G25
  -2700852.59849  -2100751.92646  21487009.2414   21487007.3864
      -392.8954
   2935949.87149   2289023.88345  22425467.6084   22425466.0894
     -2065.1744
  -5214217.53148  -4052039.32843  23674785.6794   23674781.4914
      1693.8704
  -9109344.91048  -7097393.31245  22568087.2884   22568084.5894
      1628.1104
  -1090855.07448   -846204.25446  21685969.8974   21685967.2454
     -1331.9704
 04  9 14 16 22 30.0030000  0  5G 1G11G23G20G25
  -2694894.45348  -2096109.20746  21488143.6554   21488141.6714
      -397.2104
   2967044.69149   2313253.60945  22431385.4444   22431383.1044
     -2072.9884
  -5239585.07448  -4071806.22344  23669959.0544   23669953.5074
      1691.1704
  -9133720.43748  -7116387.23045  22563448.7494   22563446.0734
      1625.0354
  -1070752.91448   -830540.22346  21689794.8664   21689793.0934
     -1340.1444
 04  9 14 16 22 45.0030000  0  5G 1G11G23G20G25
  -2688871.08248  -2091415.66446  21489289.6014   21489287.9444
      -401.5584
   2998257.21149   2337575.04345  22437324.1324   22437321.6474
     -2080.8354
  -5264911.35247  -4091540.94944  23665138.4684   23665134.3044
      1688.4184
  -9158049.02048  -7135344.55145  22558818.3434   22558816.6754
      1621.9054
  -1050527.64548   -814780.26246  21693643.7414   21693641.2614
     -1348.3514
 04  9 14 16 23  0.0030000  0  5G 1G11G23G20G25
  -2682783.04348  -2086671.75046  21490447.7654   21490446.3394
      -405.8694
   3029586.63749   2361987.58245  22443286.3974   22443284.1874
     -2088.6284
  -5290196.90248  -4111243.96544  23660326.4294   23660323.0934
      1685.7034
  -9182331.01247  -7154265.55545  22554198.1244   22554196.1324
      1618.7994
  -1030179.97348   -798924.93746  21697515.8274   21697513.1244
     -1356.5114
 04  9 14 16 23 15.0030000  0  5G 1G11G23G20G25
  -2676629.77048  -2081876.98046  21491619.0304   21491617.2764
      -410.2184
   3061033.52049   2386491.63745  22449270.5934   22449268.3584
     -2096.4594
  -5315440.92646  -4130914.60543  23655522.0074   23655519.1124
      1682.9354
  -9206565.44948  -7173149.52345  22549586.3194   22549584.1124
      1615.6294
  -1009709.19149   -782973.66446  21701411.1944   21701408.5624
     -1364.7194
 04  9 14 16 23 30.0030000  0  5G 1G11G23G20G25
  -2670410.88348  -2077031.09846  21492802.7494   21492800.9604
      -414.5924
   3092598.13349   2411087.43445  22455277.1794   22455274.8584
     -2104.3084
  -5340642.99647  -4150552.57843  23650727.2104   23650723.4644
      1680.1384
  -9230751.53948  -7191995.83245  22544984.3584   22544981.6634
      1612.4064
   -989115.04348   -766926.27747  21705330.2494   21705328.3044
     -1372.9434
 04  9 14 16 23 45.0030000  0  5G 1G11G23G20G25
  -2664128.11748  -2072135.44146  21493998.1164   21493996.2224
      -418.8514
   3124278.60549   2435773.50445  22461305.7334   22461303.0154
     -2112.0324
  -5365804.77048  -4170159.14544  23645939.2654   23645934.7104
      1677.4524
  -9254890.85948  -7210805.69544  22540390.7024   22540387.3784
      1609.2884
   -968399.32049   -750784.16047  21709272.4764   21709270.1444
     -1381.0484
 04  9 14 16 24  0.0030000  0  5G 1G11G23G20G25
  -2657781.56648  -2067190.07846  21495205.3904   21495204.3124
      -423.1034
   3156074.68049   2460549.65645  22467356.5934   22467353.6714
     -2119.7384
  -5390926.22748  -4189734.30144  23641159.1164   23641153.9484
      1674.7644
  -9278983.22348  -7229578.96545  22535806.1084   22535803.3044
      1606.1584
   -947562.19948   -734547.43446  21713237.1554   21713235.3194
     -1389.1414
 04  9 14 16 24 15.0030000  0  5G 1G11G23G20G25
  -2651369.35548  -2062193.54746  21496425.9294   21496424.5304
      -427.4814
   3187988.19949   2485417.31345  22473429.7724   22473426.7224
     -2127.5684
  -5416005.35948  -4209276.45744  23636386.2884   23636381.9604
      1671.9424
  -9303026.36348  -7248313.84445  22531230.0304   22531228.5304
      1602.8764
   -926601.86349   -718214.70346  21717225.2964   21717223.9724
     -1397.3564
 04  9 14 16 24 30.0030000  0  5G 1G11G23G20G25
  -2644892.47348  -2057146.62146  21497658.2804   21497656.6904
      -431.7924
   3220017.95749   2510375.57045  22479524.5934   22479522.0734
     -2135.3174
  -5441042.94148  -4228786.23444  23631621.5224   23631616.1084
      1669.1724
  -9327020.97748  -7267010.92645  22526664.5854   22526662.5624
      1599.6414
   -905519.32849   -701786.76646  21721237.9054   21721235.6674
     -1405.5024
 04  9 14 16 24 45.0030000  0  5G 1G11G23G20G25
  -2638348.20348  -2052047.17246  21498903.5934   21498902.0384
      -436.2854
   3252166.46949   2535426.33645  22485642.3274   22485639.9014
     -2143.2344
  -5466036.23048  -4248261.48844  23626865.6164   23626861.7654
      1666.2194
  -9350964.04748  -7285667.85945  22522108.5154   22522105.6984
      1596.2054
   -884312.18448   -685261.70746  21725273.1014   21725271.3354
     -1413.8104
 04  9 14 16 25  0.0030000  0  5G 1G11G23G20G25
  -2631740.97348  -2046898.68746  21500161.1474   21500159.2104
      -440.4824
   3284429.18049   2560566.12545  22491781.5854   22491779.5894
     -2150.8474
  -5490989.46948  -4267705.57444  23622116.9294   23622113.3194
      1663.5494
  -9374859.71148  -7304287.85944  22517560.5694   22517559.1794
      1593.0444
   -862984.77048   -668642.95346  21729331.3434   21729330.3744
     -1421.8284
 04  9 14 16 25 15.0030000  0  5G 1G11G23G20G25
  -2625069.07849  -2041699.80546  21501430.0694   21501428.6874
      -444.7934
   3316807.92649   2585796.29745  22497943.0304   22497940.7764
     -2158.5834
  -5515900.91848  -4287117.09444  23617376.5934   23617372.3314
      1660.7634
  -9398705.86348  -7322869.27345  22513022.4524   22513021.6124
      1589.7434
   -841535.35549   -651929.12946  21733413.5694   21733411.8084
     -1429.9614
 04  9 14 16 25 30.0030000  0  5G 1G11G23G20G25
  -2618332.55948  -2036450.57446  21502712.3664   21502710.5694
      -449.1014
   3349302.29349   2611116.56345  22504126.7264   22504124.1904
     -2166.2914
  -5540770.42247  -4306495.91044  23612644.3434   23612640.3944
      1657.9674
  -9422502.26648  -7341411.94144  22508495.3044   22508492.9954
      1586.4274
   -819964.18049   -635120.44147  21737519.2724   21737516.8664
     -1438.0784
 04  9 14 16 25 45.0030000  0  5G 1G11G23G20G25
  -2611530.94149  -2031150.60246  21504006.5304   21504005.2534
      -453.4414
   3381912.69149   2636527.26645  22510331.7884   22510329.8544
     -2174.0274
  -5565597.49248  -4325841.66444  23607920.3354   23607917.0304
      1655.1384
  -9446248.16048  -7359915.23445  22503976.7024   22503973.4484
      1583.0604
   -798270.81649   -618216.50047  21741647.2414   21741644.3974
     -1446.2244
 04  9 14 16 26  0.0030000  0  5G 1G11G23G20G25
  -2604664.25049  -2025799.93746  21505312.9054   21505311.5734
      -457.7794
   3414639.03149   2662028.30545  22516559.5074   22516556.8864
     -2181.7564
  -5590381.99248  -4345154.22744  23603203.5224   23603199.1904
      1652.3004
  -9469943.18748  -7378378.86344  22499466.7884   22499464.1634
      1579.6684
   -776455.26649   -601217.35546  21745797.8584   21745795.1044
     -1454.3704
 04  9 14 16 26 15.0030000  0  5G 1G11G23G20G25
  -2597732.53949  -2020398.61346  21506632.3744   21506630.8544
      -462.1144
   3447481.14849   2687619.55545  22522809.0154   22522807.0934
     -2189.4744
  -5615123.77048  -4364433.50444  23598494.4764   23598490.9954
      1649.4524
  -9493586.99648  -7396802.60245  22494968.1014   22494964.8124
      1576.2544
   -754517.52349   -584123.02346  21749972.4444   21749969.9294
     -1462.5164
 04  9 14 16 26 30.0030000  0  5G 1G11G23G20G25
  -2590736.87949  -2014947.45746  21507963.9684   21507962.2264
      -466.3774
   3480437.82449   2713300.08645  22529080.1404   22529078.2804
     -2197.1124
  -5639823.80148  -4383680.30143  23593794.8354   23593790.3394
      1646.6694
  -9517180.38348  -7415187.05545  22490478.8744   22490475.3544
      1572.8924
   -732458.89149   -566934.48046  21754170.3514   21754168.4604
     -1470.5764
 04  9 14 16 26 45.0030000  0  5G 1G11G23G20G25
  -2583678.30149  -2009447.23446  21509306.8354   21509304.7614
      -470.5724
   3513507.98049   2739069.02045  22535373.9444   22535371.8354
     -2204.6774
  -5664483.07448  -4402895.30144  23589101.6944   23589098.1834
      1643.9524
  -9540724.01648  -7433532.74245  22485998.2724   22485995.1834
      1569.5764
   -710280.40649   -549652.54746  21758390.5934   21758388.9174
     -1478.5664
 04  9 14 16 27  0.0030000  0  5G 1G11G23G20G25
  -2576556.41848  -2003897.73046  21510662.1324   21510660.6714
      -474.7924
   3546691.69949   2764926.44945  22541688.6944   22541685.3194
     -2212.2484
  -5689101.14848  -4422078.21544  23584418.2184   23584413.3624
      1641.2054
  -9564217.31248  -7451839.19945  22481528.3044   22481525.0694
      1566.2204
   -687981.77349   -532276.98446  21762633.4374   21762632.0814
     -1486.5764
 04  9 14 16 27 15.0030000  0  5G 1G11G23G20G25
  -2569368.82449  -1998297.01646  21512030.3664   21512028.6044
      -479.1734
   3579991.36749   2790874.23045  22548025.0384   22548023.1244
     -2219.9784
  -5713675.41048  -4441226.97744  23579742.4134   23579737.4684
      1638.2844
  -9587657.53948  -7470104.28945  22477067.3744   22477064.8354
      1562.6824
   -665560.66049   -514805.98846  21766900.1404   21766898.0974
     -1494.7414
 04  9 14 16 27 30.0030000  0  5G 1G11G23G20G25
  -2562117.57448  -1992646.67246  21513409.4134   21513407.9214
      -483.4174
   3613404.80949   2816910.67645  22554383.3664   22554381.2294
     -2227.5634
  -5738207.73448  -4460343.04744  23575072.8824   23575068.4444
      1635.4884
  -9611046.37548  -7488329.37145  22472616.3904   22472613.7024
      1559.2564
   -643019.04348   -497241.07846  21771189.5224   21771187.6124
     -1502.7744
 04  9 14 16 27 45.0030000  0  5G 1G11G23G20G25
  -2554803.62549  -1986947.50846  21514801.7334   21514799.9564
      -487.5974
   3646930.71549   2843034.76245  22560762.9604   22560761.0424
     -2235.0604
  -5762698.98048  -4479427.11744  23570413.2024   23570408.5504
      1632.7504
  -9634384.51248  -7506514.91444  22468174.5934   22468172.1204
      1555.8764
   -620358.12149   -479583.21146  21775502.3124   21775500.0624
     -1510.7284
 04  9 14 16 28  0.0030000  0  5G 1G11G23G20G25
  -2547425.19949  -1981198.07046  21516206.1404   21516203.8514
      -491.8954
   3680570.80149   2869247.79345  22567164.7414   22567162.1364
     -2242.6724
  -5787147.34048  -4498477.77044  23565759.9994   23565755.7184
      1629.8914
  -9657669.73848  -7524659.24645  22463743.6164   22463741.9874
      1552.3484
   -597576.21549   -461831.09046  21779837.8514   21779835.9484
     -1518.7944
 04  9 14 16 28 15.0030000  0  5G 1G11G23G20G25
  -2539981.60548  -1975397.86746  21517622.5464   21517621.1044
      -496.2404
   3714325.73849   2895550.30945  22573587.8274   22573585.1674
     -2250.3294
  -5811552.05948  -4517494.41444  23561115.6014   23561111.2024
      1626.9814
  -9680901.14548  -7542761.63745  22459323.1634   22459320.6404
      1548.7604
   -574672.75848   -443984.25046  21784195.6634   21784193.9604
     -1526.8974
 04  9 14 16 28 30.0030000  0  5G 1G11G23G20G25
  -2532472.84448  -1969546.87546  21519051.3514   21519049.2184
      -500.5844
   3748195.41849   2921942.28945  22580033.4374   22580030.9914
     -2257.9794
  -5835912.81648  -4536476.78944  23556480.4914   23556475.4604
      1624.0514
  -9704078.37548  -7560821.81645  22454912.6084   22454910.9174
      1545.1494
   -551647.73049   -426042.68447  21788577.4524   21788575.6594
     -1535.0024
 04  9 14 16 28 45.0030000  0  5G 1G11G23G20G25
  -2524899.48848  -1963645.55946  21520491.9914   21520489.6554
      -504.8904
   3782179.06349   2948423.04745  22586499.7264   22586497.0694
     -2265.5764
  -5860230.31248  -4555425.45344  23551852.4604   23551849.3394
      1621.1664
  -9727201.64548  -7578839.94946  22450512.5854   22450510.6554
      1541.5514
   -528501.73849   -408006.85247  21792982.3274   21792979.1474
     -1543.0664
 04  9 14 16 29  0.0030000  0  5G 1G11G23G20G25
  -2517261.12948  -1957693.59046  21521945.7654   21521943.8154
      -509.2244
   3816276.76249   2974992.67245  22592988.5694   22592986.1044
     -2273.1804
  -5884503.88748  -4574339.93744  23547233.1084   23547229.7454
      1618.2384
  -9750270.20348  -7596815.43745  22446122.7654   22446120.6944
      1537.9044
   -505234.53949   -389876.55946  21797409.7024   21797407.3864
     -1551.1474
 04  9 14 16 29 15.0030000  0  5G 1G11G23G20G25
  -2509557.51648  -1951690.78146  21523411.8124   21523409.9954
      -513.5744
   3850488.87949   3001651.46145  22599498.8584   22599496.7804
     -2280.8084
  -5908733.09448  -4593219.83644  23542622.8584   23542619.0194
      1615.2804
  -9773283.46548  -7614747.83245  22441744.0384   22441740.9764
      1534.2174
   -481845.73849   -371651.51246  21801860.4214   21801858.0114
     -1559.2534
 04  9 14 16 29 30.0030000  0  5G 1G11G23G20G25
  -2501788.03948  -1945636.66047  21524890.5384   21524888.4724
      -517.9654
   3884815.81649   3028399.69545  22606031.3434   22606028.7334
     -2288.4624
  -5932917.35548  -4612064.69544  23538020.8434   23538016.6204
      1612.2844
  -9796240.57448  -7632636.48445  22437374.9764   22437372.2334
      1530.4744
   -458334.84849   -353331.32846  21806334.0154   21806331.9174
     -1567.3934
 04  9 14 16 29 45.0030000  0  5G 1G11G23G20G25
  -2493952.16048  -1939530.74646  21526381.1404   21526379.7294
      -522.3924
   3919257.88349   3055237.68045  22612585.2574   22612583.0154
     -2296.1384
  -5957055.93448  -4630873.95744  23533427.7804   23533421.5654
      1609.2394
  -9819140.62948  -7650480.67645  22433017.1874   22433014.6324
      1526.6704
   -434701.51249   -334915.72746  21810831.5154   21810829.4444
     -1575.5564
 04  9 14 16 30  0.0030000  0  5G 1G11G23G20G25
  -2486053.03948  -1933375.58246  21527884.3514   21527882.3354
      -526.6084
   3953811.95749   3082162.93445  22619160.2574   22619158.4214
     -2303.6054
  -5981151.71548  -4649649.86344  23528842.2724   23528836.8974
      1606.3854
  -9841986.46949  -7668282.63345  22428670.0464   22428666.8624
      1523.0564
   -410948.96549   -316407.26646  21815351.0624   21815349.5114
     -1583.5034
 04  9 14 16 30 15.0030000  0  5G 1G11G23G20G25
  -2478088.41448  -1927169.38346  21529400.3124   21529398.4724
      -530.9754
   3988480.02049   3109177.00445  22625757.8124   22625755.2884
     -2311.2044
  -6005202.57848  -4668390.77344  23524265.3974   23524261.3824
      1603.3914
  -9864775.44949  -7686040.27345  22424333.4054   22424330.8514
      1519.2654
   -387075.01648   -297804.17246  21819894.1324   21819892.3434
     -1591.5974
 04  9 14 16 30 30.0030000  0  5G 1G11G23G20G25
  -2470058.76648  -1920912.52746  21530927.8434   21530926.5464
      -535.3104
   4023261.44549   3136279.38745  22632376.4524   22632373.3434
     -2318.7624
  -6029208.95348  -4687097.03144  23519697.3744   23519693.4214
      1600.4254
  -9887507.84849  -7703753.82045  22420007.6554   22420005.0074
      1515.4934
   -363080.24649   -279106.95346  21824460.7334   21824458.1364
     -1599.6514
 04  9 14 16 30 45.0030000  0  5G 1G11G23G20G25
  -2461962.75848  -1914603.96146  21532468.6554   21532466.9564
      -539.7344
   4058157.37949   3163471.01245  22639016.9294   22639014.5264
     -2326.3964
  -6053169.26648  -4705767.39144  23515137.8044   23515133.6014
      1597.3544
  -9910181.99248  -7721421.94945  22415692.5624   22415689.7294
      1511.6104
   -338963.48049   -260314.66846  21829049.7884   21829047.9604
     -1607.7844
 04  9 14 16 31  0.0030000  0  5G 1G11G23G20G25
  -2453801.11349  -1908244.22746  21534021.8974   21534020.0424
      -544.1104
   4093167.07449   3190751.28545  22645679.5854   22645676.1124
     -2333.9804
  -6077083.97348  -4724402.22744  23510586.6714   23510582.0584
      1594.3144
  -9932798.26649  -7739045.02045  22411388.9604   22411386.2494
      1507.7524
   -314725.44149   -241427.87146  21833662.0304   21833660.4444
     -1615.8694
 04  9 14 16 31 15.0030000  0  5G 1G11G23G20G25
  -2445574.26249  -1901833.69546  21535587.3664   21535585.4374
      -548.4574
   4128289.85549   3218119.66045  22652363.4294   22652360.5264
     -2341.5194
  -6100953.60948  -4743001.92244  23506044.3354   23506038.9874
      1591.3094
  -9955356.70348  -7756623.01245  22407096.0154   22407093.5194
      1503.8964
   -290366.72349   -222447.04346  21838297.4834   21838295.1284
     -1623.9154
 04  9 14 16 31 30.0030000  0  6G 1G11G14G23G20G25
  -2437282.07449  -1895372.24646  21537165.3044   21537163.5384
      -552.8124
   4163525.68449   3245576.14545  22659068.4764   22659065.4294
     -2349.0554
                                  25194412.491

  -6124777.89548  -4761566.28144  23501511.0774   23501506.3354
      1588.2864
  -9977856.79348  -7774155.56645  22402815.0694   22402812.2724
      1500.0064
   -265887.12949   -203372.04346  21842955.5934   21842953.8154
     -1631.9734
 04  9 14 16 31 45.0030000  0  6G 1G11G14G23G20G25
  -2428926.02049  -1888861.04346  21538755.5544   21538753.6594
      -557.0704
   4198872.94149   3273119.46145  22665794.5694   22665792.2844
     -2356.4844
                                  25204526.851

  -6148558.18048  -4780096.35944  23496985.8664   23496981.3864
      1585.3524
 -10000299.78948  -7791643.59445  22398543.7104   22398541.6044
      1496.2004
   -241288.31249   -184204.14146  21847636.5544   21847634.8194
     -1639.9214
 04  9 14 16 32  0.0030000  0  6G 1G11G14G23G20G25
  -2420504.41049  -1882298.71946  21540357.9834   21540355.5624
      -561.4414
   4234333.21949   3300750.85245  22672542.3974   22672540.0304
     -2364.0184
    219682.074 4                  25214641.038
     -3543.176
  -6172292.54348  -4798590.64544  23492469.4684   23492464.7224
      1582.2914
 -10022683.64548  -7809085.55945  22394284.2264   22394281.6204
      1492.2574
   -216568.58649   -164942.01246  21852341.1634   21852338.1944
     -1647.9824
 04  9 14 16 32 15.0030000  0  6G 1G11G14G23G20G25
  -2412017.73049  -1875685.73046  21541972.7104   21541970.7964
      -565.7794
   4269905.82049   3328469.74645  22679311.8274   22679309.0344
     -2371.5074
    272827.969 4                  25224753.882
     -3543.060
  -6195981.53547  -4817049.59444  23487960.7414   23487956.0974
      1579.2664
 -10045008.54348  -7826481.58645  22390035.9684   22390032.7264
      1488.3274
   -191728.79349   -145586.31246  21857067.1714   21857064.7024
     -1655.9864
 04  9 14 16 32 30.0030000  0  6G 1G11G14G23G20G25
  -2403467.48049  -1869023.19146  21543600.2804   21543597.5384
      -570.0174
   4305589.04749   3356274.86745  22686101.6794   22686099.2224
     -2378.8824
    325970.605 4                  25234867.765
     -3542.842
  -6219626.48848  -4835474.22344  23483461.7804   23483457.3194
      1576.3304
 -10067275.63348  -7843832.57445  22385799.2104   22385795.7414
      1484.4734
   -166770.36749   -126138.19146  21861817.2184   21861814.8744
     -1663.8954
 04  9 14 16 32 45.0030000  0  6G 1G11G14G23G20G25
  -2394852.84049  -1862310.46546  21545239.5154   21545237.5774
      -574.3094
   4341383.64149   3384166.74245  22692913.3434   22692910.8624
     -2386.3064
    379111.05913                  25244980.343
     -3542.625
  -6243226.42648  -4853863.76244  23478970.9994   23478966.4444
      1573.3294
 -10089483.77048  -7861137.62145  22381572.8274   22381570.1944
      1480.5424
   -141692.53549   -106597.03147  21866589.2264   21866587.1754
     -1671.8554
 04  9 14 16 33  0.0030000  0  5G 1G11G23G20G25
  -2386173.41449  -1855547.29746  21546891.1404   21546889.2694
      -578.6284
   4377289.80148   3412145.53545  22699746.5544   22699743.2494
     -2393.7444
  -6266780.85248  -4872217.84844  23474488.4604   23474483.3584
      1570.2954
 -10111632.30548  -7878396.20745  22377358.1324   22377355.8514
      1476.5694
   -116495.07849    -86962.64146  21871383.9834   21871381.6874
     -1679.8304
 04  9 14 16 33 15.0030000  0  5G 1G11G23G20G25
  -2377428.98449  -1848733.45746  21548555.0934   21548553.5814
      -582.9624
   4413307.55948   3440211.32445  22706599.7334   22706597.1984
     -2401.1844
  -6290289.37947  -4890536.15243  23470014.3434   23470009.7454
      1567.2354
 -10133720.46948  -7895607.74245  22373154.8274   22373152.2374
      1472.5444
    -91177.75049    -67234.84446  21876201.8824   21876199.1514
     -1687.8224
 04  9 14 16 33 30.0030000  0  5G 1G11G23G20G25
  -2368619.90249  -1841869.23446  21550230.7334   21550229.2844
      -587.2724
   4449436.49649   3468363.74645  22713474.7884   22713472.0504
     -2408.5964
  -6313752.34847  -4908818.99644  23465550.8514   23465545.9764
      1564.1984
 -10155748.38348  -7912772.34445  22368962.3974   22368960.3004
      1468.5284
    -65741.03549    -47414.03146  21881042.3194   21881040.0384
     -1695.7814
 04  9 14 16 33 45.0030000  0  5G 1G11G23G20G25
  -2359744.87949  -1834953.62946  21551920.0154   21551918.3004
      -591.6684
   4485677.80949   3496603.71145  22720372.0464   22720369.3704
     -2416.0874
  -6337168.37148  -4927065.22344  23461094.2654   23461090.4874
      1561.0684
 -10177714.48448  -7929888.78945  22364782.1164   22364779.8084
      1464.4074
    -40183.72349    -27499.25846  21885905.4834   21885903.6444
     -1703.8214
 04  9 14 16 34  0.0030000  0  5G 1G11G23G20G25
  -2350802.47349  -1827985.52046  21553621.9834   21553619.4994
      -596.1604
   4522032.67649   3524932.16445  22727289.1474   22727287.7184
     -2423.6584
  -6360535.76648  -4945273.56644  23456647.1794   23456643.5424
      1557.8264
 -10199617.02349  -7946955.68445  22360614.7574   22360611.9134
      1460.1694
    -14504.50449     -7489.46946  21890792.0934   21890790.3124
     -1711.9484
 04  9 14 16 34 15.0030000  0  5G 1G11G23G20G25
  -2341794.87149  -1820966.59446  21555336.2184   21555333.7574
      -600.5074
   4558498.83649   3553347.35245  22734228.6084   22734227.1834
     -2431.0774
  -6383856.59048  -4963445.64144  23452209.2964   23452204.2614
      1554.7224
 -10221457.69948  -7963974.40645  22356458.4524   22356455.8664
      1456.0454
     11294.43849     12613.59046  21895701.6244   21895699.4404
     -1719.9294
 04  9 14 16 34 30.0030000  0  5G 1G11G23G20G25
  -2332720.32049  -1813895.51646  21557062.8194   21557060.5194
      -604.9704
   4595077.75049   3581850.38345  22741189.9994   22741186.9604
     -2438.5944
  -6407128.99648  -4981579.95744  23447780.6944   23447775.4524
      1551.4944
 -10243234.56248  -7980943.37545  22352314.8194   22352312.1794
      1451.7914
     37214.74249     32811.23846  21900634.3584   21900631.0424
     -1728.0204
 04  9 14 16 34 45.0030000  0  5G 1G11G23G20G25
  -2323578.64549  -1806772.12146  21558802.1944   21558800.7454
      -609.4454
   4631769.41449   3610441.27745  22748172.3044   22748169.8314
     -2446.1114
  -6430352.86748  -4999676.46944  23443361.7654   23443356.7144
      1548.2584
 -10264947.12148  -7997862.25845  22348183.0774   22348180.9214
      1447.5044
     63256.36349     53103.41846  21905589.8434   21905586.9174
     -1736.1084
 04  9 14 16 35  0.0030000  0  5G 1G11G23G20G25
  -2314370.03549  -1799596.58646  21560554.6324   21560552.7654
      -613.9074
   4668573.54349   3639119.81645  22755174.9524   22755173.1794
     -2453.6094
  -6453528.20748  -5017735.14844  23438951.6474   23438946.9724
      1545.0234
 -10286595.20748  -8014730.90245  22344063.9214   22344061.0774
      1443.2064
     89419.07049     73489.95746  21910568.1714   21910565.6554
     -1744.1804
 04  9 14 16 35 15.0030000  0  5G 1G11G23G20G25
  -2305096.44149  -1792370.40646  21562319.4294   21562317.7104
      -618.2404
   4705487.94949   3667884.27345  22762200.2574   22762197.8434
     -2460.9604
  -6476656.68448  -5035757.32844  23434550.4604   23434546.0774
      1541.8984
 -10308180.46548  -8031550.56645  22339956.4294   22339953.2294
      1439.0174
    115700.84849     93969.27746  21915569.4214   21915567.3704
     -1752.1184
 04  9 14 16 35 30.0030000  0  5G 1G11G23G20G25
  -2295757.01649  -1785092.92646  21564096.5384   21564094.4764
      -622.6284
   4742513.36749   3696735.25445  22769245.5544   22769243.4404
     -2468.3614
  -6499737.52048  -5053742.39143  23430158.2494   23430152.9914
      1538.7224
 -10329701.61748  -8048320.28145  22335860.9834   22335858.0034
      1434.7434
    142102.38349    114541.89146  21920593.2654   21920591.4834
     -1760.1024
 04  9 14 16 35 45.0030000  0  5G 1G11G23G20G25
  -2286350.73048  -1777763.35246  21565886.5464   21565884.7614
      -627.0864
   4779650.70349   3725673.42645  22776312.9294   22776309.8704
     -2475.8224
  -6522769.57048  -5071689.43444  23425775.2104   23425770.4874
      1535.4704
 -10351157.35248  -8065039.04345  22331777.9054   22331775.5034
      1430.3824
    168624.70749    135208.63746  21925640.8354   21925637.6514
     -1768.1554
 04  9 14 16 36  0.0030000  0  5G 1G11G23G20G25
  -2276880.07049  -1770383.64146  21567688.9604   21567686.8744
      -631.3774
   4816897.25849   3754696.69945  22783400.3974   22783398.3584
     -2483.1044
  -6545755.14848  -5089600.27044  23421401.2964   23421396.8394
      1532.3724
 -10372549.90649  -8081708.54745  22327706.8044   22327704.4954
      1426.1704
    195265.06649    155967.38746  21930709.9834   21930707.4134
     -1776.0244
 04  9 14 16 36 15.0030000  0  5G 1G11G23G20G25
  -2267344.35948  -1762953.21146  21569503.4134   21569501.4214
      -635.7144
   4854253.63749   3783805.55145  22790509.1324   22790506.6284
     -2490.4254
  -6568693.46148  -5107474.27344  23417036.6084   23417031.9874
      1529.2214
 -10393878.16048  -8098327.95746  22323648.0224   22323646.3944
      1421.8844
    222024.15249    176818.61746  21935801.9444   21935800.3154
     -1783.9394
 04  9 14 16 36 30.0030000  0  5G 1G11G23G20G25
  -2257745.25449  -1755473.37946  21571330.2724   21571327.5584
      -639.9404
   4891717.82449   3812998.40245  22797639.0464   22797636.5734
     -2497.6124
  -6591586.09448  -5125312.65244  23412679.7264   23412674.9724
      1526.1764
 -10415143.45348  -8114898.31646  22319601.2964   22319599.5934
      1417.6864
    248900.16449    197760.95746  21940916.3274   21940914.6594
     -1791.7344
 04  9 14 16 36 45.0040000  0  5G 1G11G23G20G25
  -2248081.62549  -1747943.27046  21573169.0904   21573166.4374
      -644.2424
   4929292.84048   3842277.64544  22804789.0984   22804785.0554
     -2505.0014
  -6614433.90248  -5143116.12944  23408332.0194   23408328.1414
      1523.1874
 -10436346.42249  -8131420.10946  22315566.6134   22315565.2734
      1413.5314
    275895.24649    218796.09046  21946053.6684   21946051.7664
     -1799.6724
 04  9 14 16 37  0.0040000  0  5G 1G11G23G20G25
  -2238354.25849  -1740363.50046  21575020.4264   21575018.0904
      -648.4914
   4966973.86748   3871639.46945  22811959.3714   22811957.1724
     -2512.0684
  -6637233.34448  -5160881.91844  23403993.5594   23403989.0434
      1519.9634
 -10457483.47748  -8147890.52345  22311544.2854   22311542.6914
      1409.1374
    303006.15649    239921.47346  21951212.9414   21951210.3014
     -1807.3944
 04  9 14 16 37 15.0040000  0  5G 1G11G23G20G25
  -2228562.56249  -1732733.60946  21576883.3794   21576881.2774
      -652.7804
   5004763.13348   3901085.66044  22819150.2304   22819147.7504
     -2519.2844
  -6659985.87948  -5178611.16044  23399663.7774   23399659.2734
      1516.8364
 -10478555.62948  -8164310.39545  22307534.5984   22307532.3984
      1404.8104
    330234.42649    261138.31646  21956393.8944   21956391.4454
     -1815.2184
 04  9 14 16 37 30.0040000  0  5G 1G11G23G20G25
  -2218706.87549  -1725053.84446  21578758.7854   21578757.1954
      -657.0464
   5042660.20748   3930615.84045  22826361.8244   22826360.5394
     -2526.4724
  -6682691.67647  -5196303.98444  23395343.3164   23395338.4264
      1513.7204
 -10499562.98048  -8180679.73445  22303536.8874   22303534.3554
      1400.4904
    357579.85949    282446.43846  21961597.7074   21961595.6374
     -1823.0294
 04  9 14 16 37 45.0040000  0  5G 1G11G23G20G25
  -2208788.77349  -1717325.44946  21580645.8324   21580644.5704
      -661.2074
   5080663.36348   3960228.67645  22833593.9184   22833591.0394
     -2533.5444
  -6705352.24247  -5213961.53544  23391030.3634   23391027.0394
      1510.7044
 -10520506.62948  -8196999.46945  22299551.8554   22299548.6174
      1396.2434
    385040.82449    303844.58646  21966823.1214   21966821.0594
     -1830.7314
 04  9 14 16 38  0.0040000  0  5G 1G11G23G20G25
  -2198806.12149  -1709546.76646  21582545.8484   21582544.2154
      -665.5104
   5118774.59849   3989925.73445  22840846.2694   22840844.6604
     -2540.7494
  -6727965.23048  -5231582.05944  23386728.3014   23386724.0624
      1507.5334
 -10541384.18448  -8213267.68745  22295579.0824   22295575.8594
      1391.8374
    412619.33649    325334.34046  21972071.4734   21972068.9224
     -1838.5674
 04  9 14 16 38 15.0040000  0  5G 1G11G23G20G25
  -2188758.55949  -1701717.49246  21584457.9494   21584455.9184
      -669.8374
   5156994.14149   4019707.18445  22848119.4574   22848116.7194
     -2547.9704
  -6750530.23448  -5249165.18044  23382434.0434   23382429.4694
      1504.3344
 -10562194.95748  -8229483.87545  22291618.7384   22291616.1764
      1387.3854
    440315.46949    346915.74246  21977341.8484   21977339.6334
     -1846.4094
 04  9 14 16 38 30.0040000  0  5G 1G11G23G20G25
  -2178647.16849  -1693838.48446  21586381.9184   21586379.9884
      -674.0934
   5195320.52749   4049571.89545  22855412.3164   22855410.2274
     -2555.0924
  -6773048.19148  -5266711.61744  23378149.9184   23378144.1374
      1501.1974
 -10582939.69148  -8245648.59845  22287670.5594   22287668.5664
      1382.9824
    468128.04749    368587.90646  21982633.8944   21982632.2894
     -1854.1724
 04  9 14 16 38 45.0040000  0  5G 1G11G23G20G25
  -2168471.69549  -1685909.54346  21588318.2774   21588315.9574
      -678.3654
   5233753.90248   4079519.94945  22862726.2154   22862722.9064
     -2562.2254
  -6795518.75848  -5284221.13344  23373872.5354   23373867.8444
      1498.0384
 -10603617.73048  -8261761.36345  22283735.5904   22283733.5594
      1378.5364
    496057.29349    390350.96146  21987948.5594   21987947.0004
     -1861.9504
 04  9 14 16 39  0.0040000  0  5G 1G11G23G20G25
  -2158231.97749  -1677930.54346  21590266.3244   21590264.7384
      -682.6484
   5272294.21549   4109551.36345  22870060.1374   22870057.4454
     -2569.3544
  -6817941.61348  -5301693.47344  23369605.8794   23369601.3164
      1494.8574
 -10624228.55948  -8277821.75045  22279813.5354   22279811.8094
      1374.0554
    524103.41049    412205.05546  21993285.6994   21993283.8914
     -1869.7414
 04  9 14 16 39 15.0040000  0  5G 1G11G23G20G25
  -2147928.02348  -1669901.50046  21592227.5594   21592225.4104
      -686.9304
   5310941.43848   4139666.06645  22877414.5194   22877411.8874
     -2576.4824
  -6840316.78548  -5319128.64844  23365347.7774   23365342.7544
      1491.6784
 -10644772.04748  -8293829.67645  22275904.9574   22275902.3594
      1369.5664
    552265.94149    434149.88746  21998644.8794   21998642.5044
     -1877.5024
 04  9 14 16 39 30.0040000  0  5G 1G11G23G20G25
  -2137559.64149  -1661822.24646  21594200.8634   21594198.5864
      -691.2264
   5349695.44148   4169863.97344  22884789.0514   22884786.4104
     -2583.6004
  -6862643.94548  -5336526.43044  23361099.6764   23361095.3164
      1488.4774
 -10665247.65648  -8309784.68445  22272008.1134   22272005.5194
      1365.0414
    580545.00049    456185.52346  22004026.4024   22004023.8164
     -1885.2714
 04  9 14 16 39 45.0040000  0  5G 1G11G23G20G25
  -2127126.26649  -1653692.33246  21596186.1294   21596183.9024
      -695.5584
   5388556.56648   4200145.37144  22892183.8944   22892181.0314
     -2590.7424
  -6884922.37148  -5353886.25044  23356859.7694   23356856.4694
      1485.2284
 -10685654.36748  -8325686.01645  22268124.9654   22268122.8444
      1360.4474
    608941.18849    478312.43446  22009429.7074   22009427.9414
     -1893.0794
 04  9 14 16 40  0.0040000  0  5G 1G11G23G20G25
  -2116627.10549  -1645511.14546  21598184.0824   21598181.3984
      -699.9444
   5427525.54748   4230510.79745  22899599.6134   22899597.1294
     -2597.9324
  -6907151.13348  -5371207.36344  23352630.2694   23352626.0864
      1481.9174
 -10705991.05548  -8341532.75845  22264254.3554   22264252.7274
      1355.7794
    637455.15649    500531.09846  22014855.7624   22014854.3984
     -1900.9314
 04  9 14 16 40 15.0040000  0  5G 1G11G23G20G25
  -2106062.35549  -1637278.84846  21600194.4264   21600192.6214
      -704.3174
   5466601.96148   4260959.94144  22907035.7154   22907032.3204
     -2605.0944
  -6929330.39849  -5388489.87944  23348409.3874   23348404.2624
      1478.6184
 -10726257.68048  -8357324.93745  22260398.1444   22260395.6684
      1351.1084
    666086.59849    522841.29346  22020304.2384   22020302.4024
     -1908.7634
 04  9 14 16 40 30.0040000  0  5G 1G11G23G20G25
  -2095431.90649  -1628995.37546  21602217.2464   21602215.4414
      -708.6974
   5505785.75048   4291492.76244  22914491.9654   22914489.4104
     -2612.2534
  -6951459.87949  -5405733.60244  23344197.9734   23344192.8834
      1475.2994
 -10746453.62948  -8373062.02046  22256555.1684   22256552.5434
      1346.3974
    694835.43049    545242.97346  22025775.1134   22025772.9184
     -1916.5894
 04  9 14 16 40 45.0040000  0  5G 1G11G23G20G25
  -2084736.59049  -1620661.37146  21604252.6444   21604250.8014
      -713.0214
   5545075.78948   4322108.37144  22921968.7234   22921965.9804
     -2619.3364
  -6973540.33248  -5422939.14544  23339996.3634   23339992.0234
      1472.0304
 -10766579.49248  -8388744.50846  22252725.8874   22252722.6844
      1341.7244
    723700.84049    567735.49646  22031268.4414   22031265.7774
     -1924.3614
 04  9 14 16 41  0.0040000  0  5G 1G11G23G20G25
  -2073975.01649  -1612275.74646  21606300.3874   21606298.7234
      -717.4384
   5584473.36748   4352807.76244  22929466.2544   22929464.0164
     -2626.5054
  -6995570.29748  -5440105.35544  23335803.8244   23335799.6874
      1468.6644
 -10786633.61348  -8404371.09846  22248909.2544   22248907.0474
      1336.9414
    752683.99249    590319.78946  22036783.2234   22036781.1724
     -1932.2104
 04  9 14 16 41 15.0040000  0  5G 1G11G23G20G25
  -2063148.23448  -1603839.30946  21608360.8164   21608358.8714
      -721.7854
   5623977.21548   4383589.99244  22936983.0824   22936980.5474
     -2633.5904
  -7017550.65648  -5457232.89844  23331621.8944   23331616.4144
      1465.3574
 -10806616.71148  -8419942.33246  22245106.6764   22245105.0354
      1332.2074
    781783.70349    612994.89846  22042320.3244   22042318.5664
     -1939.9814
 04  9 14 16 41 30.0040000  0  5G 1G11G23G20G25
  -2052255.02349  -1595351.09047  21610434.2544   21610431.3944
      -726.2144
   5663588.41448   4414455.83644  22944520.8794   22944519.0394
     -2640.7474
  -7039480.09048  -5474320.75444  23327448.5514   23327443.4264
      1461.9624
 -10826527.09448  -8435456.91846  22241317.7464   22241315.8674
      1327.3594
    811001.19549    635761.77046  22047880.0194   22047878.3834
     -1947.8334
 04  9 14 16 41 45.0040000  0  5G 1G11G23G20G25
  -2041294.73849  -1586810.60547  21612519.2074   21612517.1804
      -730.6864
   5703307.36348   4445405.66444  22952079.1604   22952076.3914
     -2647.9304
  -7061357.83649  -5491368.32844  23323285.5044   23323280.6414
      1458.5164
 -10846363.80148  -8450914.08245  22237543.1214   22237540.6684
      1322.4474
    840336.91849    658620.75046  22053463.2934   22053460.7034
     -1955.7154
 04  9 14 16 42  0.0040000  0  5G 1G11G23G20G25
  -2030268.88349  -1578219.02346  21614617.7774   21614615.0194
      -735.0574
   5743132.45348   4476438.17645  22959657.8874   22959655.4614
     -2655.0064
  -7083185.31648  -5508376.76244  23319131.6844   23319127.6484
      1455.1654
 -10866128.09848  -8466314.84046  22233781.8554   22233779.8444
      1317.6204
    869789.15249    681570.54746  22059067.3714   22059065.3554
     -1963.4824
 04  9 14 16 42 15.0040000  0  5G 1G11G23G20G25
  -2019175.86349  -1569575.11746  21616728.5824   21616726.6844
      -739.5354
   5783064.91848   4507554.37144  22967256.5744   22967253.0554
     -2662.1644
  -7104960.81648  -5525344.66044  23314987.6134   23314984.5354
      1451.7004
 -10885818.02748  -8481657.64146  22230034.8794   22230032.7034
      1312.6624
    899359.53549    704612.41046  22064695.1444   22064692.5784
     -1971.3594
 04  9 14 16 42 30.0040000  0  5G 1G11G23G20G25
  -2008016.41449  -1560879.43746  21618852.1914   21618850.1024
      -743.9634
   5823103.98848   4538753.65244  22974875.3484   22974873.1874
     -2669.2714
  -7126684.95748  -5542272.56244  23310854.0124   23310849.7734
      1448.2764
 -10905433.91048  -8496942.76246  22226302.3164   22226300.3634
      1307.7264
    929047.04349    727745.52746  22070344.1294   22070342.0194
     -1979.1674
 04  9 14 16 42 45.0040000  0  5G 1G11G23G20G25
  -1996790.62549  -1552132.06646  21620988.1294   21620985.8554
      -748.3864
   5863249.21948   4570035.63344  22982515.1684   22982512.1644
     -2676.3494
  -7148357.71549  -5559160.40244  23306729.5124   23306724.8164
      1444.8514
 -10924975.56248  -8512170.02045  22222583.9964   22222581.6334
      1302.7774
    958851.40649    750969.70746  22076015.6914   22076013.1684
     -1986.9584
 04  9 14 16 43  0.0040000  0  5G 1G11G23G20G25
  -1985498.17649  -1543332.75847  21623137.6684   21623134.9264
      -752.8304
   5903500.82848   4601400.51645  22990174.5664   22990172.5514
     -2683.4414
  -7169978.57848  -5576007.83244  23302614.4884   23302610.9144
      1441.3914
 -10944442.39148  -8527338.97345  22218879.4104   22218877.0554
      1297.7894
    988773.01649    774285.26646  22081709.1684   22081707.0124
     -1994.7744
 04  9 14 16 43 15.0040000  0  5G 1G11G23G20G25
  -1974140.30949  -1534482.45346  21625298.5274   21625296.6374
      -757.1914
   5943857.55148   4632847.29345  22997854.0824   22997852.3594
     -2690.4484
  -7191548.77048  -5592815.75044  23298510.9104   23298506.4494
      1438.0134
 -10963835.21148  -8542450.26645  22215189.3014   22215186.3594
      1292.8554
   1018810.50049    797691.09046  22087425.0194   22087423.0084
     -2002.4994
 04  9 14 16 43 30.0040000  0  5G 1G11G23G20G25
  -1962717.84048  -1525581.82446  21627471.3874   21627470.2854
      -761.4984
   5984318.34448   4664375.14844  23005554.6684   23005551.1604
     -2697.3864
  -7213069.10549  -5609584.82444  23294415.4494   23294411.3984
      1434.6894
 -10983154.45748  -8557504.21545  22211512.7934   22211509.5514
      1287.9504
   1048962.86349    821186.43446  22093163.3164   22093160.5274
     -2010.1584
 04  9 14 16 43 45.0040000  0  5G 1G11G23G20G25
  -1951229.14149  -1516629.60546  21629657.9024   21629656.4654
      -765.9134
   6024884.44548   4695985.10544  23013272.8484   23013271.0394
     -2704.4074
  -7234537.73448  -5626313.63344  23290330.1914   23290325.7544
      1431.2424
 -11002398.19149  -8572499.33245  22207850.6524   22207847.9774
      1282.9164
   1079231.59049    844772.45346  22098923.0664   22098921.0354
     -2017.9154
 04  9 14 16 44  0.0040000  0  5G 1G11G23G20G25
  -1939674.94549  -1507626.33646  21631856.9024   21631855.0044
      -770.2804
   6065554.93048   4727676.38344  23021012.5044   23021010.2774
     -2711.3664
  -7255955.30148  -5643002.63744  23286254.3164   23286249.6094
      1427.8384
 -11021566.89148  -8587435.97745  22204202.7624   22204200.2584
      1277.9134
   1109615.82849    868448.48846  22104705.4964   22104703.1644
     -2025.6164
 04  9 14 16 44 15.0040000  0  5G 1G11G23G20G25
  -1928056.14148  -1498572.72346  21634067.6764   21634066.1724
      -774.5874
   6106328.74648   4759448.18844  23028771.6374   23028769.0864
     -2718.2544
  -7277322.59048  -5659652.46544  23282188.5514   23282184.3794
      1424.4864
 -11040661.06248  -8602314.55146  22200569.0194   22200567.2504
      1272.9454
   1140114.65249    892213.80146  22110509.1524   22110507.1644
     -2033.2554
 04  9 14 16 44 30.0040000  0  5G 1G11G23G20G25
  -1916372.42248  -1489468.54347  21636291.5984   21636289.8874
      -778.9154
   6147206.09448   4791300.65644  23036550.1604   23036548.6094
     -2725.1574
  -7298639.07448  -5676262.68444  23278131.6134   23278128.0274
      1421.0994
 -11059680.11748  -8617134.59446  22196949.9654   22196948.5554
      1267.9374
   1170728.05549    916068.41046  22116334.5434   22116332.6874
     -2040.8934
 04  9 14 16 44 45.0040000  0  5G 1G11G23G20G25
  -1904622.96949  -1480313.11747  21638527.3324   21638525.6914
      -783.2974
   6188187.48048   4823234.19544  23044348.8014   23044346.2114
     -2732.0924
  -7319903.96948  -5692832.73844  23274085.4884   23274081.8524
      1417.6604
 -11078622.74648  -8631895.07846  22193345.4024   22193343.7074
      1262.8424
   1201456.82449    940012.91046  22122181.5434   22122180.4144
     -2048.5854
 04  9 14 16 45  0.0040000  0  5G 1G11G23G20G25
  -1892809.34449  -1471107.69947  21640775.1914   21640773.6954
      -787.5754
   6229271.18048   4855247.44944  23052166.5904   23052164.0984
     -2738.9134
  -7341118.75448  -5709363.73444  23270047.9884   23270044.0164
      1414.3194
 -11097490.39149  -8646597.14146  22189755.7464   22189753.6604
      1257.8434
   1232299.18449    964045.90246  22128050.9264   22128049.4774
     -2056.1574
 04  9 14 16 45 15.0040000  0  5G 1G11G23G20G25
  -1880930.14148  -1461851.16446  21643035.3794   21643034.0474
      -791.9474
   6270458.48048   4887341.45344  23060004.7774   23060001.6214
     -2745.8204
  -7362281.89148  -5725854.47744  23266021.1994   23266016.5474
      1410.8764
 -11116281.18049  -8661239.31646  22186179.4494   22186177.0434
      1252.7194
   1263256.50849    988168.46946  22133942.4104   22133940.2424
     -2063.8224
 04  9 14 16 45 30.0040000  0  5G 1G11G23G20G25
  -1868984.84848  -1452543.15646  21645308.0664   21645306.6844
      -796.3534
   6311749.53948   4919516.29744  23067862.3404   23067859.8444
     -2752.7374
  -7383392.71948  -5742304.45744  23262003.6994   23262000.0194
      1407.3894
 -11134994.38748  -8675821.03146  22182618.2234   22182616.7274
      1247.5474
   1294329.03149   1012380.81646  22139854.7464   22139853.4654
     -2071.5024
 04  9 14 16 45 45.0040000  0  5G 1G11G23G20G25
  -1856975.30548  -1443185.05546  21647593.4734   21647591.5784
      -800.6364
   6353142.35948   4951770.43444  23075738.3634   23075735.8984
     -2759.5214
  -7404453.00849  -5758715.07044  23257996.4104   23257991.7854
      1404.0194
 -11153631.40649  -8690343.36346  22179072.3874   22179069.6954
      1242.4684
   1325514.84049   1036681.43446  22145789.1134   22145787.3324
     -2079.0544
 04  9 14 16 46  0.0040000  0  5G 1G11G23G20G25
  -1844900.11348  -1433775.80946  21649891.6444   21649889.6444
      -805.0134
   6394638.16048   4984104.80944  23083635.0984   23083633.2234
     -2766.3874
  -7425461.39848  -5775085.23444  23253998.2234   23253993.6174
      1400.5594
 -11172190.47748  -8704804.98046  22175540.4264   22175537.3714
      1237.2714
   1356815.09849   1061071.23846  22151745.5044   22151743.2114
     -2086.6844
 04  9 14 16 46 15.0040000  0  5G 1G11G23G20G25
  -1832759.67648  -1424315.73846  21652202.0274   21652200.0434
      -809.3624
   6436236.32048   5016518.92644  23091551.0984   23091548.8014
     -2773.2114
  -7446418.02349  -5791415.05944  23250010.8404   23250005.5164
      1397.1084
 -11190671.76649  -8719205.97746  22172023.5594   22172020.2974
      1232.0864
   1388229.41049   1085549.93846  22157723.3944   22157721.3094
     -2094.2874
 04  9 14 16 46 30.0040000  0  5G 1G11G23G20G25
  -1820554.40248  -1414805.13746  21654524.6444   21654522.9304
      -813.6854
   6477936.21548   5049012.34044  23099486.4734   23099483.8634
     -2779.9934
  -7467323.22748  -5807704.80544  23246032.2624   23246028.2894
      1393.6804
 -11209075.28948  -8733546.38746  22168521.7304   22168518.5664
      1226.9024
   1419757.35249   1110117.16446  22163723.1604   22163720.8674
     -2101.8634
 04  9 14 16 46 45.0040000  0  5G 1G11G23G20G25
  -1808284.36349  -1405244.07847  21656859.7464   21656858.2154
      -818.0034
   6519737.52048   5081584.77344  23107440.6764   23107438.9414
     -2786.7544
  -7488176.81648  -5823954.34844  23242064.1524   23242059.3014
      1390.2394
 -11227400.82048  -8747826.02345  22165034.5904   22165031.1874
      1221.7024
   1451398.65249   1134772.70746  22169744.0984   22169742.2664
     -2109.4204
 04  9 14 16 47  0.0040000  0  5G 1G11G23G20G25
  -1795948.68448  -1395631.85246  21659207.0194   21659205.6644
      -822.3794
   6561641.00048   5114236.82844  23115415.1444   23115412.4964
     -2793.5654
  -7508977.82448  -5840162.94144  23238106.0514   23238101.4534
      1386.7344
 -11245647.07848  -8762043.89845  22161562.1444   22161559.3794
      1216.4174
   1483153.96949   1159517.13746  22175787.0044   22175785.1054
     -2117.0214
 04  9 14 16 47 15.0040000  0  5G 1G11G23G20G25
  -1783547.46948  -1385968.58646  21661566.6604   21661564.9924
      -826.7484
   6603646.27348   5146968.19144  23123408.2074   23123406.8244
     -2800.3524
  -7529726.48448  -5856330.70744  23234157.3634   23234153.3094
      1383.2444
 -11263813.87548  -8776199.84846  22158105.7384   22158102.5354
      1211.1204
   1515023.04749   1184350.18047  22181851.8714   22181849.9374
     -2124.6054
 04  9 14 16 47 30.0040000  0  5G 1G11G23G20G25
  -1771081.21149  -1376254.61746  21663938.8944   21663936.9884
      -831.0844
   6645752.60948   5179778.31644  23131420.5044   23131418.0554
     -2807.0894
  -7550423.14149  -5872457.96944  23230219.0744   23230214.8674
      1379.7774
 -11281901.45748  -8790294.04745  22154662.9414   22154660.4344
      1205.8394
   1547005.21949   1209271.35246  22187937.7074   22187935.9104
     -2132.1454
 04  9 14 16 47 45.0040000  0  5G 1G11G23G20G25
  -1758550.69148  -1366490.55946  21666323.4264   21666322.0004
      -835.3684
   6687959.07448   5212666.46144  23139452.4964   23139449.5824
     -2813.7644
  -7571068.36349  -5888545.14544  23226290.7304   23226285.7544
      1376.3484
 -11299910.07048  -8804326.73445  22151236.0124   22151233.2424
      1200.5744
   1579099.59449   1234279.94146  22194045.3244   22194042.7234
     -2139.6254
 04  9 14 16 48  0.0040000  0  5G 1G11G23G20G25
  -1745953.69149  -1356674.72346  21668720.2624   21668719.1134
      -839.8004
   6730267.69948   5245634.19944  23147503.8404   23147501.2814
     -2820.5754
  -7591659.89548  -5904590.49244  23222371.3944   23222366.9494
      1372.7694
 -11317837.24249  -8818295.96546  22147824.4804   22147822.3634
      1195.1454
   1611308.16849   1259377.53546  22200174.3164   22200172.1874
     -2147.2384
 04  9 14 16 48 15.0040000  0  5G 1G11G23G20G25
  -1733291.14848  -1346807.81246  21671130.1444   21671129.0394
      -844.1704
   6772677.31648   5278680.65244  23155573.5744   23155570.3944
     -2827.3084
  -7612198.51648  -5920594.59844  23218463.5664   23218458.9494
      1369.2414
 -11335683.58248  -8832202.21146  22144428.3164   22144425.9844
      1189.7564
   1643630.04749   1284563.39846  22206324.5434   22206322.5984
     -2154.7924
 04  9 14 16 48 30.0040000  0  5G 1G11G23G20G25
  -1720563.62148  -1336890.27346  21673551.9734   21673550.3674
      -848.5024
   6815187.20748   5311805.22744  23163662.7074   23163660.7234
     -2833.9934
  -7632684.66448  -5936557.82044  23214564.7074   23214560.9454
      1365.7434
 -11353449.31648  -8846045.64145  22141047.9414   22141044.7234
      1184.3824
   1676064.37949   1309836.87146  22212496.8944   22212494.6994
     -2162.2894
 04  9 14 16 48 45.0040000  0  5G 1G11G23G20G25
  -1707769.21949  -1326920.60546  21675986.8484   21675984.8524
      -852.9604
   6857799.02348   5345009.22344  23171771.7854   23171769.0744
     -2840.7884
  -7653116.36748  -5952478.62144  23210676.7774   23210672.6484
      1362.1144
 -11371132.25049  -8859824.53946  22137682.9884   22137680.1954
      1178.8624
   1708612.89849   1335199.35246  22218691.1994   22218688.2344
     -2169.9014
 04  9 14 16 49  0.0040000  0  5G 1G11G23G20G25
  -1694909.32848  -1316899.90646  21678434.1994   21678432.2384
      -857.3264
   6900511.04748   5378291.31644  23179899.6844   23179897.4144
     -2847.4684
  -7673494.95348  -5968358.03944  23206799.5194   23206795.1764
      1358.5724
 -11388733.43048  -8873539.75046  22134333.6294   22134331.2624
      1173.4124
   1741274.06349   1360649.60946  22224906.4024   22224903.5394
     -2177.4114
 04  9 14 16 49 15.0040000  0  5G 1G11G23G20G25
  -1681985.50448  -1306829.39546  21680893.4104   21680891.1874
      -861.5884
   6943321.46148   5411650.07044  23188046.0984   23188043.9844
     -2854.0284
  -7693821.91049  -5984197.22744  23202931.7774   23202927.4224
      1355.1304
 -11406254.11748  -8887192.21946  22130999.3164   22130996.8054
      1168.0464
   1774046.22749   1386186.36346  22231141.5124   22231140.1174
     -2184.8114
 04  9 14 16 49 30.0040000  0  5G 1G11G23G20G25
  -1668995.27349  -1296707.14546  21683365.3094   21683363.6844
      -866.0154
   6986232.61348   5445087.31644  23196211.9344   23196210.0314
     -2860.7434
  -7714094.64849  -5999994.14844  23199073.1054   23199068.0474
      1351.5164
 -11423691.41448  -8900779.73446  22127680.8484   22127679.1334
      1162.4864
   1806931.73449   1411811.41446  22237400.3714   22237397.8834
     -2192.3674
 04  9 14 16 49 45.0040000  0  5G 1G11G23G20G25
  -1655940.11748  -1286534.28546  21685849.4344   21685848.0784
      -870.3444
   7029242.78548   5478601.73844  23204396.2934   23204393.6684
     -2867.3454
  -7734314.52348  -6015749.88744  23195225.2854   23195220.4304
      1347.9924
 -11441046.50848  -8914303.19146  22124378.9494   22124376.1254
      1157.0064
   1839929.04349   1437523.60546  22243679.4734   22243677.4414
     -2199.8214
 04  9 14 16 50  0.0040000  0  5G 1G11G23G20G25
  -1642818.69949  -1276309.80546  21688346.4264   21688345.2694
      -874.7614
   7072353.08648   5512194.15644  23212600.0194   23212598.5274
     -2874.0204
  -7754480.15249  -6031463.34044  23191387.6214   23191383.9144
      1344.3754
 -11458317.69148  -8927761.25046  22121091.9964   22121089.6254
      1151.4124
   1873039.14549   1463323.68846  22249979.9804   22249978.2424
     -2207.3404
 04  9 14 16 50 15.0040000  0  5G 1G11G23G20G25
  -1629631.40249  -1266033.99246  21690856.1844   21690854.5354
      -879.1534
   7115563.01248   5545864.19944  23220822.4024   23220820.3204
     -2880.6624
  -7774591.68048  -6047134.64844  23187560.5904   23187556.9104
      1340.7684
 -11475505.06648  -8941154.00846  22117821.6604   22117819.2034
      1145.8254
   1906261.50049   1489211.24246  22256302.1374   22256299.9924
     -2214.8244
 04  9 14 16 50 30.0040000  0  6G 1G11G16G23G20G25
  -1616378.66449  -1255707.19546  21693377.8944   21693375.9184
      -883.5164
   7158872.09448   5579611.52344  23229064.0824   23229061.7154
     -2887.2724
    -78785.94156    -48023.90252  25272416.8484   25272415.5664

  -7794649.43048  -6062764.07844  23183744.2544   23183739.7114
      1337.1834
 -11492608.79349  -8954481.59046  22114566.8714   22114564.3914
      1140.2484
   1939595.65249   1515185.91847  22262645.5514   22262643.6914
     -2222.2774
 04  9 14 16 50 45.0040000  0  6G 1G11G16G23G20G25
  -1603062.08649  -1245330.64546  21695912.3324   21695910.5704
      -887.7724
   7202278.23448   5613434.46944  23237323.8794   23237322.0824
     -2893.7434
   -112054.63347    -73947.48442  25266086.0434   25266084.2234
      2217.9134
  -7814655.05548  -6078352.86744  23179937.5594   23179933.0474
      1333.7084
 -11509629.96548  -8967744.83245  22111327.5124   22111324.5784
      1134.7454
   1973039.89549   1541246.34446  22269009.3164   22269007.6294
     -2229.6164
 04  9 14 16 51  0.0040000  0  6G 1G11G16G23G20G25
  -1589681.50049  -1234904.22346  21698458.7154   21698456.8404
      -892.0394
   7245781.35548   5647333.00044  23245602.6134   23245599.5554
     -2900.2084
   -145300.71147    -99853.46142  25259759.5274   25259757.5084
      2216.4054
  -7834608.22748  -6093900.78544  23176140.3164   23176136.3094
      1330.2114
 -11526568.14548  -8980943.40645  22108104.0044   22108101.7734
      1129.2124
   2006594.20349   1567392.55546  22275394.8324   22275392.1484
     -2236.9544
 04  9 14 16 51 15.0040000  0  6G 1G11G16G23G20G25
  -1576237.09449  -1224428.06647  21701016.9964   21701014.7624
      -896.2944
   7289381.03548   5681306.75444  23253899.5354   23253897.2034
     -2906.6454
   -178523.77347   -125741.50042  25253437.0594   25253436.0824
      2214.8714
  -7854509.00848  -6109407.86744  23172353.3014   23172348.9454
      1326.7194
 -11543423.24648  -8994077.24645  22104896.9574   22104894.0194
      1123.6734
   2040258.19149   1593624.21545  22281800.9414   22281798.3634
     -2244.2664
 04  9 14 16 51 30.0040000  0  6G 1G11G16G23G20G25
  -1562729.87149  -1213902.95746  21703586.8874   21703585.2664
      -900.4824
   7333076.06348   5715354.81344  23262214.3714   23262212.2894
     -2913.0024
   -211724.39147   -151612.08242  25247119.5434   25247118.9574
      2213.3744
  -7874358.39148  -6124874.92244  23168576.5274   23168571.6214
      1323.2924
 -11560195.93449  -9007146.87146  22101705.3484   22101702.7074
      1118.1794
   2074030.65249   1619940.45746  22288227.0044   22288224.5394
     -2251.4974
 04  9 14 16 51 45.0040000  0  6G 1G11G16G23G20G25
  -1549156.21949  -1203326.09446  21706169.9414   21706168.5594
      -904.9104
   7376869.93848   5749479.91444  23270547.6604   23270546.3244
     -2919.5924
   -244898.59447   -177462.09042  25240806.0824   25240805.6804
      2211.6144
  -7894152.64149  -6140299.01244  23164809.4964   23164804.2194
      1319.6174
 -11576882.34448  -9020149.27746  22098530.0744   22098528.0824
      1112.4274
   2107915.14849   1646343.94945  22294674.9414   22294672.4024
     -2258.9664
 04  9 14 16 52  0.0040000  0  6G 1G11G16G23G20G25
  -1535518.28148  -1192699.13746  21708764.8944   21708763.8874
      -909.1964
   7420760.19548   5783680.08644  23278899.9574   23278898.9844
     -2926.0174
   -278047.98047   -203292.73442  25234498.1994   25234497.4494
      2209.9594
  -7913893.60949  -6155681.57044  23161052.2074   23161047.9804
      1316.0654
 -11593484.21548  -9033085.79346  22095370.8094   22095368.7894
      1106.7914
   2141909.22349   1672832.85246  22301144.1214   22301141.9454
     -2266.2724
 04  9 14 16 52 15.0040000  0  6G 1G11G16G23G20G25
  -1521815.73448  -1182021.82446  21711372.3244   21711370.9414
      -913.5034
   7464746.91448   5817955.44944  23287270.5744   23287268.4024
     -2932.4484
   -311171.75047   -229103.43742  25228194.8094   25228194.8324
      2208.2514
  -7933580.98448  -6171022.37144  23157305.6684   23157302.4264
      1312.4924
 -11610000.77348  -9045955.84046  22092227.9964   22092226.1334
      1101.1044
   2176013.20349   1699407.36346  22307633.9414   22307631.7464
     -2273.5994
 04  9 14 16 52 30.0040000  0  6G 1G11G16G23G20G25
  -1508047.77349  -1171293.53946  21713993.1684   21713990.4184
      -917.8644
   7508830.66848   5852306.39544  23295659.7774   23295657.6524
     -2938.9174
   -344268.62947   -254893.18742  25221897.1134   25221896.4304
      2206.4594
  -7953213.93049  -6186320.78544  23153571.0124   23153566.5944
      1308.8634
 -11626431.00449  -9058758.60546  22089101.5824   22089098.9964
      1095.3494
   2210227.75449   1726068.03146  22314144.9804   22314142.4804
     -2280.9704
 04  9 14 16 52 45.0040000  0  6G 1G11G16G23G20G25
  -1494214.97349  -1160514.73046  21716624.9804   21716622.5664
      -922.1874
   7553010.71948   5886732.40644  23304066.3404   23304064.0554
     -2945.3374
   -377338.69547   -280662.00442  25215604.1844   25215602.8404
      2204.6714
  -7972792.86349  -6201577.07044  23149844.3324   23149840.0554
      1305.2624
 -11642775.00849  -9071494.19146  22085991.6524   22085988.1604
      1089.6004
   2244552.21149   1752814.36346  22320676.8554   22320674.6174
     -2288.2974
 04  9 14 16 53  0.0040000  0  6G 1G11G16G23G20G25
  -1480315.11349  -1149683.66446  21719270.0664   21719268.1024
      -926.6574
   7597289.24648   5921235.13344  23312492.5744   23312489.1484
     -2951.9024
   -410379.32447   -306407.91042  25209316.2234   25209314.8524
      2202.7094
  -7992315.45349  -6216789.47744  23146129.8244   23146124.4734
      1301.5064
 -11659030.37948  -9084160.71146  22082897.4494   22082895.1994
      1083.6914
   2278988.43849   1779647.78546  22327229.5514   22327227.1844
     -2295.7484
 04  9 14 16 53 15.0040000  0  6G 1G11G16G23G20G25
  -1466349.07849  -1138801.03946  21721927.6684   21721926.1444
      -931.0694
   7641664.88347   5955813.54344  23320936.3944   23320933.6604
     -2958.3764
   -443390.94146   -332131.16442  25203034.1764   25203031.6604
      2200.7744
  -8011782.54348  -6231958.62544  23142424.6914   23142421.2274
      1297.8064
 -11675197.58249  -9096758.52746  22079821.0274   22079818.5744
      1077.8144
   2313535.39549   1806567.46947  22333803.5274   22333801.9924
     -2303.1304
 04  9 14 16 53 30.0040000  0  6G 1G11G16G23G20G25
  -1452316.59849  -1127866.65246  21724597.9104   21724595.9494
      -935.4994
   7686137.65648   5990467.64144  23329399.6054   23329397.0984
     -2964.8524
   -476372.89546   -357831.32442  25196757.0594   25196755.5164
      2198.7974
  -8031193.77048  -6247084.24644  23138731.3714   23138726.8164
      1294.0824
 -11691276.15249  -9109287.28546  22076761.4494   22076758.3834
      1071.9054
   2348193.14549   1833573.48846  22340398.4884   22340396.9374
     -2310.5174
 04  9 14 16 53 45.0040000  0  6G 1G11G16G23G20G25
  -1438219.42249  -1116881.85246  21727280.5044   21727279.0004
      -939.8124
   7730705.59848   6025195.89544  23337880.4494   23337878.8014
     -2971.1964
   -509326.21146   -383509.18442  25190487.2934   25190485.3484
      2196.8884
  -8050550.77048  -6262167.63344  23135047.7544   23135043.4774
      1290.4674
 -11707267.48049  -9121748.06646  22073718.4654   22073716.3914
      1066.0894
   2382959.93049   1860664.47747  22347014.6914   22347012.5664
     -2317.7864
 04  9 14 16 54  0.0040000  0  6G 1G11G16G23G20G25
  -1424056.36349  -1105845.72746  21729975.7934   21729974.4654
      -944.2044
   7775369.78548   6059999.12144  23346379.9654   23346377.4224
     -2977.6124
   -542249.51246   -409163.64142  25184222.0594   25184220.8244
      2194.8874
  -8069852.21948  -6277207.71944  23131375.2544   23131370.5084
      1286.7634
 -11723170.00849  -9134139.64846  22070692.3944   22070689.7464
      1060.1684
   2417836.74649   1887841.20746  22353651.5274   22353649.3054
     -2325.1214
 04  9 14 16 54 15.0040000  0  6G 1G11G16G23G20G25
  -1409828.92249  -1094759.41046  21732683.0044   21732682.0004
      -948.4964
   7820128.31348   6094875.89844  23354897.4654   23354895.2774
     -2983.9024
   -575143.66446   -434795.42242  25177962.2304   25177962.2894
      2192.9434
  -8089099.51648  -6292205.60944  23127711.6844   23127706.8674
      1283.1534
 -11738984.90249  -9146462.92646  22067682.6524   22067680.7624
      1054.3264
   2452821.94549   1915102.39546  22360308.7774   22360306.2114
     -2332.3474
 04  9 14 16 54 30.0040000  0  6G 1G11G16G23G20G25
  -1395536.30549  -1083622.31247  21735403.6604   21735401.6414
      -952.8414
   7864981.85948   6129826.69544  23363432.6604   23363430.4494
     -2990.2364
   -608007.39847   -460403.48842  25171708.1444   25171708.2624
      2190.9164
  -8108291.85248  -6307160.65644  23124060.1214   23124054.1024
      1279.4894
 -11754710.96948  -9158717.02046  22064690.0514   22064687.9494
      1048.4044
   2487916.14549   1942448.51246  22366987.3714   22366984.9494
     -2339.6134
 04  9 14 16 54 45.0040000  0  6G 1G11G16G23G20G25
  -1381175.66849  -1072432.19546  21738135.6134   21738133.5744
      -957.3764
   7909932.92247   6164853.47744  23371986.3554   23371984.1174
     -2996.7374
   -640837.48846   -485985.37942  25165461.2464   25165461.3714
      2188.6734
  -8127426.26249  -6322070.56244  23120419.6054   23120413.3674
      1275.6274
 -11770345.05549  -9170899.40646  22061714.9964   22061712.6414
      1042.2724
   2523121.95749   1969881.61346  22373686.6764   22373684.2814
     -2347.0544
 04  9 14 16 55  0.0040000  0  6G 1G11G16G23G20G25
  -1366748.23449  -1061190.02746  21740880.7464   21740878.6374
      -961.8294
   7954980.25048   6199955.27344  23380558.5514   23380555.5234
     -3003.1554
   -673634.64147   -511541.64842  25159219.8554   25159219.6484
      2186.4774
  -8146503.82049  -6336936.19544  23116788.4344   23116784.5044
      1271.8374
 -11785888.12149  -9183010.88746  22058757.6524   22058754.8524
      1036.2044
   2558438.01249   1997400.61346  22380406.9104   22380404.9964
     -2354.4044
 04  9 14 16 55 15.0040000  0  6G 1G11G16G23G20G25
  -1352255.85948  -1049897.27046  21743638.6214   21743636.6804
      -966.1584
   8000121.84448   6235130.52044  23389148.7384   23389146.4184
     -3009.4404
   -706400.31247   -537073.32442  25152985.4964   25152983.7384
      2184.3784
  -8165526.27349  -6351758.87144  23113168.4414   23113164.7464
      1268.1644
 -11801341.54349  -9195052.51246  22055816.9184   22055813.6724
      1030.2284
   2593862.35549   2025003.98846  22387147.6994   22387146.1094
     -2361.6234
 04  9 14 16 55 30.0040000  0  6G 1G11G16G23G20G25
  -1337697.44149  -1038553.07846  21746408.8554   21746407.4184
      -970.5614
   8045358.23048   6270379.64144  23397757.2464   23397753.7974
     -3015.7594
   -739132.89547   -562579.18042  25146756.3874   25146754.8874
      2182.1724
  -8184492.40248  -6366537.67644  23109559.9734   23109554.6094
      1264.4094
 -11816703.98449  -9207023.25046  22052893.6914   22052889.9264
      1024.1634
   2629395.94149   2052692.49646  22393909.7154   22393907.7034
     -2368.9064
 04  9 14 16 55 45.0040000  0  6G 1G11G16G23G20G25
  -1323072.30548  -1027156.85546  21749192.1054   21749190.2664
      -975.0094
   8090689.87948   6305702.99244  23406383.5274   23406380.2774
     -3022.1104
   -771831.28146   -588058.39542  25140533.9024   25140532.4774
      2179.8924
  -8203401.41048  -6381271.95744  23105961.0194   23105956.5864
      1260.6014
 -11831974.51649  -9218922.36745  22049987.2074   22049983.8554
      1018.0354
   2665039.31349   2080466.54346  22400692.3634   22400689.9264
     -2376.2254
 04  9 14 16 56  0.0040000  0  6G 1G11G16G23G20G25
  -1308380.96949  -1015709.06646  21751988.4024   21751985.7854
      -979.4224
   8136116.16847   6341100.09044  23415027.6134   23415025.0314
     -3028.4194
   -804495.43446   -613510.94142  25134318.0434   25134316.5784
      2177.6104
  -8222253.89848  -6395962.19544  23102373.5664   23102369.4884
      1256.8334
 -11847153.21149  -9230749.91445  22047098.9344   22047095.5354
      1011.9134
   2700791.69549   2108325.53545  22407495.9884   22407493.6844
     -2383.4924
 04  9 14 16 56 15.0040000  0  6G 1G11G16G23G20G25
  -1293623.85949  -1004210.02046  21754795.9804   21754794.3444
      -983.8074
   8181636.42248   6376570.38744  23423689.7694   23423687.6684
     -3034.6844
   -837125.46946   -638936.87142  25128108.4654   25128107.4734
      2175.3364
  -8241050.12549  -6410608.59044  23098796.8164   23098792.2114
      1253.0824
 -11862240.23448  -9242506.03146  22044228.0044   22044225.4064
      1005.8024
   2736652.50849   2136268.99646  22414320.0514   22414317.8714
     -2390.7214
 04  9 14 16 56 30.0040000  0  6G 1G11G16G23G20G25
  -1278800.05949   -992659.01246  21757616.8244   21757615.3324
      -988.2534
   8227251.34048   6412114.46544  23432369.8014   23432367.9804
     -3040.9954
   -869719.76647   -664334.99642  25121906.4884   25121905.2424
      2172.9534
  -8259788.95749  -6425210.27044  23095230.9494   23095226.0394
      1249.2554
 -11877234.32048  -9254189.72746  22041373.8794   22041371.9694
       999.6064
   2772622.35249   2164297.46145  22421165.3484   22421162.5164
     -2397.9904
 04  9 14 16 56 45.0040000  0  6G 1G11G16G23G20G25
  -1263910.25049   -981056.56246  21760450.6374   21760448.3484
      -992.6544
   8272959.84848   6447731.45744  23441068.5044   23441065.9964
     -3047.2344
   -902278.68747   -689705.52742  25115711.3324   25115709.4374
      2170.5954
  -8278471.10248  -6439767.77744  23091675.6994   23091671.6564
      1245.4764
 -11892135.84848  -9265801.30546  22038538.8244   22038536.8164
       993.4354
   2808700.57849   2192410.35945  22428030.4024   22428027.6644
     -2405.2154
 04  9 14 16 57  0.0040000  0  6G 1G11G16G23G20G25
  -1248953.35949   -969401.85546  21763296.3634   21763294.4574
      -997.1264
   8318762.92248   6483422.14544  23449784.2234   23449781.5864
     -3053.5384
   -934800.72347   -715047.33242  25109521.9104   25109520.7344
      2168.1364
  -8297095.44148  -6454280.23045  23088131.7154   23088127.9414
      1241.6234
 -11906943.47348  -9277339.69946  22035721.2774   22035719.0514
       987.1754
   2844888.10949   2220608.44945  22434916.4494   22434914.1804
     -2412.5024
 04  9 14 16 57 15.0040000  0  6G 1G11G16G23G20G25
  -1233930.33249   -957695.59846  21766155.6444   21766153.5824
     -1001.5354
   8364659.39148   6519185.61744  23458517.7854   23458515.4414
     -3059.7654
   -967286.30546   -740360.73442  25103339.5904   25103337.6484
      2165.7054
  -8315662.63749  -6468748.18045  23084598.8634   23084594.0004
      1237.8134
 -11921657.75048  -9288805.37146  22032921.3014   22032918.7274
       980.9524
   2881183.82849   2248890.82045  22441823.2384   22441821.4694
     -2419.7154
 04  9 14 16 57 30.0040000  0  6G 1G11G16G23G20G25
  -1218840.39848   -945937.22746  21769027.5664   21769025.1764
     -1005.9964
   8410649.80948   6555022.28544  23467269.2384   23467266.5904
     -3066.0284
   -999734.08246   -765644.68442  25097165.0044   25097163.4494
      2163.1854
  -8334171.88749  -6483170.96145  23081076.5664   23081071.3124
      1233.9504
 -11936277.41448  -9300197.30946  22030138.9024   22030136.9654
       974.6444
   2917588.20349   2277257.84046  22448751.1134   22448749.1844
     -2426.9584
 04  9 14 16 57 45.0040000  0  6G 1G11G16G23G20G25
  -1203683.76649   -934126.86346  21771911.7544   21771908.8874
     -1010.4424
   8456733.54748   6590931.69544  23476039.2774   23476036.1414
     -3072.2494
  -1032143.96946   -790899.07842  25090997.5514   25090996.7974
      2160.6594
  -8352623.38749  -6497548.74645  23077565.4024   23077560.3364
      1230.1004
 -11950802.52348  -9311515.57046  22027375.3244   22027372.6764
       968.3414
   2954100.96949   2305709.35246  22455699.4734   22455697.6994
     -2434.1844
 04  9 14 16 58  0.0040000  0  6G 1G11G16G23G20G25
  -1188460.57849   -922264.62146  21774808.2074   21774805.5394
     -1014.8794
   8502910.38747   6626913.62544  23484826.3634   23484823.9734
     -3078.4564
  -1064515.48846   -816123.66042  25084837.0274   25084837.2034
      2158.1014
  -8371017.04348  -6511881.47344  23074064.5274   23074061.0664
      1226.2444
 -11965232.76248  -9322759.91046  22024629.8164   22024625.7384
       962.0164
   2990721.81349   2334245.07446  22462668.2624   22462665.9804
     -2441.3904
 04  9 14 16 58 15.0040000  0  6G 1G11G16G23G20G25
  -1173170.65649   -910350.38746  21777717.5434   21777715.1994
     -1019.3284
   8549180.23848   6662968.03544  23493631.5664   23493629.2664
     -3084.6574
  -1096848.08246   -841317.83242  25078685.2624   25078684.7894
      2155.5064
  -8389352.64548  -6526168.94144  23070575.4264   23070571.8284
      1222.3734
 -11979567.68748  -9333929.97745  22021901.4414   22021897.8014
       955.6624
   3027450.78149   2362865.03546  22469657.5664   22469654.9654
     -2448.5984
 04  9 14 16 58 30.0040000  0  6G 1G11G16G23G20G25
  -1157812.84049   -898383.25846  21780639.7934   21780638.1684
     -1023.8544
   8595543.91048   6699095.57044  23502454.0354   23502451.6214
     -3090.9114
  -1129140.08247   -866480.41842  25072539.7624   25072539.3164
      2152.8004
  -8407628.95748  -6540410.22744  23067097.9734   23067092.3594
      1218.4214
 -11993805.93448  -9345024.71545  22019191.9574   22019188.4614
       949.2164
   3064288.63349   2391569.87146  22476667.0044   22476665.5234
     -2455.8574
 04  9 14 16 58 45.0040000  0  6G 1G11G16G23G20G25
  -1142387.42648   -886363.46546  21783575.0824   21783573.8284
     -1028.3614
   8642000.94548   6735295.82044  23511294.4884   23511291.3714
     -3097.1364
  -1161391.41846   -891611.31242  25066402.9654   25066401.6724
      2150.0894
  -8425846.30948  -6554605.53544  23063631.1604   23063625.1724
      1214.4904
 -12007947.44948  -9356044.06645  22016500.9804   22016497.4964
       942.7684
   3101234.93049   2420359.19146  22483697.5664   22483696.2504
     -2463.0864
 04  9 14 16 59  0.0040000  0  6G 1G11G16G23G20G25
  -1126894.63348   -874291.16846  21786523.4104   21786522.3094
     -1032.8534
   8688550.85948   6771568.48444  23520152.1684   23520150.2814
     -3103.3284
  -1193601.87947   -916710.33242  25060273.9654   25060272.5594
      2147.3644
  -8444004.57848  -6568754.82044  23060175.8874   23060170.6954
      1210.5514
 -12021992.05948  -9366987.91446  22013827.6684   22013825.0394
       936.3074
   3138289.51249   2449232.86346  22490749.0904   22490747.3524
     -2470.3054
 04  9 14 16 59 15.0040000  0  6G 1G11G16G23G20G25
  -1111332.37149   -862164.74246  21789484.8484   21789483.4454
     -1037.4844
   8735195.52048   6807914.94544  23529028.9344   23529026.5554
     -3109.6444
  -1225768.78946   -941775.41042  25054152.2464   25054150.6374
      2144.4614
  -8462101.68448  -6582856.44544  23056731.8484   23056727.9374
      1206.4744
 -12035937.32048  -9377854.34046  22011174.6054   22011171.3674
       929.6844
   3175454.20349   2478192.35546  22497821.6294   22497819.4264
     -2477.6464
 04  9 14 16 59 30.0040000  0  6G 1G11G16G23G20G25
  -1095701.33248   -849984.71946  21792459.2774   21792457.3594
     -1042.0694
   8781933.94147   6844334.46544  23537922.9104   23537921.0084
     -3115.8954
  -1257892.46947   -966806.82042  25048039.1054   25048036.6444
      2141.5794
  -8480138.34048  -6596911.00045  23053299.9964   23053296.0474
      1202.4444
 -12049783.59048  -9388643.64146  22008539.8944   22008536.7854
       923.0854
   3212728.10949   2507236.94946  22504914.6844   22504912.1134
     -2484.9274
 04  9 14 16 59 45.0040000  0  6G 1G11G16G23G20G25
  -1080002.16448   -837751.60246  21795447.0744   21795445.1374
     -1046.6114
   8828765.21948   6880826.36344  23546834.9104   23546832.3524
     -3122.0854
  -1289973.09847   -991804.64842  25041934.0904   25041932.0124
      2138.7094
  -8498115.04348  -6610918.80945  23049878.7304   23049874.3674
      1198.4474
 -12063531.25048  -9399356.10246  22005923.4494   22005920.6484
       916.5114
   3250110.44949   2536366.04346  22512028.1444   22512025.6994
     -2492.1564
 04  9 14 17  0  0.0040000  0  6G 1G11G16G23G20G25
  -1064236.16449   -825466.40646  21798447.2154   21798445.2344
     -1051.0674
   8875687.87948   6917389.44544  23555764.2694   23555762.5704
     -3128.1774
  -1322011.48047  -1016769.59442  25035837.6844   25035835.6764
      2135.8924
  -8516032.89849  -6624880.76245  23046469.0124   23046464.5354
      1194.5244
 -12077181.27348  -9409992.49246  22003326.1374   22003323.0084
       910.0024
   3287599.64849   2565578.39546  22519162.0904   22519159.8284
     -2499.2804
 04  9 14 17  0 15.0040000  0  6G 1G11G16G23G20G25
  -1048401.59849   -813127.78946  21801460.8484   21801458.8674
     -1055.6384
   8922703.25448   6954024.81344  23564710.7854   23564708.7694
     -3134.3584
  -1354005.28547  -1041699.83242  25029749.7774   25029747.5004
      2132.9204
  -8533890.13349  -6638795.48445  23043071.2694   23043066.3554
      1190.4824
 -12090731.62949  -9420551.21946  22000747.9264   22000744.5124
       903.3574
   3325197.15249   2594875.14546  22526316.1054   22526314.5164
     -2506.5004
 04  9 14 17  0 30.0040000  0  6G 1G11G16G23G20G25
  -1032499.44548   -800736.49646  21804486.7934   21804485.1874
     -1060.1434
   8969810.23448   6990731.51644  23573674.1994   23573673.7624
     -3140.4654
  -1385955.10947  -1066595.77742  25023669.8634   25023667.2934
      2129.9884
  -8551687.63349  -6652663.63745  23039684.2694   23039679.4574
      1186.5004
 -12104182.84048  -9431032.67646  21998188.0044   21998184.9414
       896.7474
   3362902.08249   2624255.60945  22533490.9654   22533489.6054
     -2513.6624
 04  9 14 17  0 45.0040000  0  6G 1G11G16G23G20G25
  -1016529.25048   -788292.18046  21807525.6914   21807524.7854
     -1064.6804
   9017009.06648   7027509.80144  23582656.5744   23582655.0944
     -3146.5894
  -1417860.12546  -1091456.80542  25017598.1374   25017596.0354
      2127.0014
  -8569424.93749  -6666484.92245  23036309.1054   23036305.0554
      1182.4874
 -12117534.27348  -9441436.39546  21995647.0194   21995644.3944
       890.0964
   3400714.63349   2653719.89546  22540686.7854   22540684.9144
     -2520.8374
 04  9 14 17  1  0.0040000  0  6G 1G11G16G23G20G25
  -1000489.52349   -775793.70346  21810577.6684   21810576.6054
     -1069.3154
   9064300.87148   7064360.55144  23591655.3094   23591653.9654
     -3152.7874
  -1449718.25847  -1116281.35542  25011536.1994   25011533.9454
      2123.8764
  -8587100.40248  -6680257.99645  23032945.8554   23032941.4804
      1178.3644
 -12130784.03548  -9451760.87546  21993126.0044   21993123.1134
       883.3174
   3438636.11349   2683269.11746  22547903.3094   22547901.6054
     -2528.0994
 04  9 14 17  1 15.0040000  0  6G 1G11G16G23G20G25
   -984380.66449   -763241.34446  21813643.1604   21813641.7344
     -1073.9244
   9111685.03548   7101283.25444  23600672.6604   23600669.6294
     -3158.9444
  -1481529.44147  -1141069.23042  25005482.4344   25005481.1334
      2120.7464
  -8604714.29349  -6693983.11745  23029593.6214   23029588.8984
      1174.2594
 -12143932.16448  -9462006.16046  21990623.8404   21990620.9654
       876.5424
   3476665.95349   2712902.72346  22555140.4804   22555138.5944
     -2535.3234
 04  9 14 17  1 30.0040000  0  6G 1G11G16G23G20G25
   -968202.79748   -750635.23446  21816721.4184   21816720.0084
     -1078.5244
   9159161.24248   7138277.68444  23609707.2624   23609704.2034
     -3165.0804
  -1513293.43046  -1165820.35242  24999437.9184   24999436.4374
      2117.5994
  -8622266.60249  -6707660.21945  23026253.6764   23026248.8284
      1170.1544
 -12156978.56648  -9472172.16846  21988140.5124   21988138.6804
       869.7604
   3514803.81349   2742620.52046  22562397.4964   22562395.5124
     -2542.5244
 04  9 14 17  1 45.0040000  0  6G 1G11G16G23G20G25
   -951956.46548   -737975.76646  21819812.9414   21819811.6914
     -1083.0894
   9206728.68848   7175343.21944  23618758.6054   23618756.7854
     -3171.1634
  -1545010.28546  -1190534.73842  24993402.5664   24993401.1954
      2114.4574
  -8639757.85549  -6721289.77345  23022924.9734   23022920.2274
      1166.0844
 -12169923.36348  -9482259.00446  21985676.8014   21985675.1684
       862.9864
   3553048.94149   2772421.90646  22569675.1994   22569673.3324
     -2549.6754
 04  9 14 17  2  0.0040000  0  6G 1G11G16G23G20G25
   -935641.16049   -725262.55146  21822918.0044   21822916.2424
     -1087.6874
   9254387.62148   7212480.00444  23627828.3094   23627826.2504
     -3177.2624
  -1576679.00446  -1215211.64842  24987376.4494   24987375.3054
      2111.2484
  -8657187.52749  -6734871.29345  23019608.1374   23019603.8164
      1161.9784
 -12182765.75848  -9492266.05946  21983233.6054   21983231.8244
       856.1604
   3591401.60949   2802307.09846  22576973.5124   22576971.5164
     -2556.8454
 04  9 14 17  2 15.0040000  0  6G 1G11G16G23G20G25
   -919256.50048   -712495.30146  21826036.0434   21826033.6214
     -1092.3114
   9302138.11348   7249688.16044  23636914.7464   23636912.8524
     -3183.3664
  -1608298.78147  -1239850.37542  24981359.1524   24981358.2274
      2107.9854
  -8674554.99248  -6748404.39144  23016303.3634   23016298.8674
      1157.8314
 -12195505.00448  -9502192.75446  21980809.5664   21980806.9534
       849.2834
   3629862.17249   2832276.35246  22584291.9734   22584290.1604
     -2564.0374
 04  9 14 17  2 30.0040000  0  6G 1G11G16G23G20G25
   -902802.99249   -699674.37946  21829167.0274   21829165.0664
     -1096.9014
   9349979.33248   7286967.00844  23646019.0194   23646017.2154
     -3189.4154
  -1639869.59047  -1264450.96142  24975351.0744   24975349.5274
      2104.7214
  -8691860.78949  -6761889.41845  23013010.5744   23013005.9224
      1153.7204
 -12208141.32848  -9512039.23446  21978404.5904   21978402.2774
       842.4224
   3668429.73849   2862328.98446  22591631.6764   22591629.2664
     -2571.1714
 04  9 14 17  2 45.0040000  0  6G 1G11G16G23G20G25
   -886280.57449   -686799.76246  21832311.2234   21832309.1684
     -1101.4954
   9397911.11748   7324316.44143  23655140.1054   23655137.7344
     -3195.4524
  -1671390.99646  -1289013.05542  24969352.4024   24969351.1994
      2101.4274
  -8709104.58249  -6775326.13345  23009729.2234   23009724.5274
      1149.5864
 -12220674.41448  -9521805.27746  21976020.0124   21976017.6254
       835.5394
   3707104.25849   2892464.99246  22598991.3634   22598988.7424
     -2578.3014
 04  9 14 17  3  0.0040000  0  6G 1G11G16G23G20G25
   -869688.83649   -673871.12546  21835468.5044   21835466.8874
     -1106.1164
   9445933.76648   7361736.69543  23664278.0824   23664275.5274
     -3201.5104
  -1702861.92246  -1313535.78542  24963363.9964   24963362.7814
      2098.0624
  -8726286.02749  -6788714.25845  23006459.5124   23006455.0864
      1145.4304
 -12233103.53149  -9531490.30946  21973655.0434   21973652.2504
       828.6084
   3745886.12549   2922684.60246  22606370.9104   22606369.4534
     -2585.4584
 04  9 14 17  3 15.0040000  0  6G 1G11G16G23G20G25
   -853027.00849   -660887.87546  21838638.8324   21838637.7774
     -1110.7894
   9494047.69548   7399228.05543  23673434.0434   23673431.1174
     -3207.5954
  -1734281.28546  -1338018.37142  24957384.9494   24957384.2154
      2094.6244
  -8743404.29348  -6802053.17245  23003202.3944   23003196.9184
      1141.2184
 -12245427.49649  -9541093.40246  21971309.9884   21971307.1294
       821.5984
   3784775.81649   2952988.24246  22613771.3634   22613769.6804
     -2592.6464
 04  9 14 17  3 30.0040000  0  6G 1G11G16G23G20G25
   -836295.13349   -647850.04746  21841823.1844   21841821.2774
     -1115.4584
   9542252.77748   7436790.42644  23682607.1134   23682605.1174
     -3213.6724
  -1765648.57447  -1362460.40642  24951415.4964   24951415.1874
      2091.1534
  -8760459.20749  -6815342.69545  22999956.1684   22999952.5164
      1136.9944
 -12257646.01648  -9550614.32846  21968984.7074   21968981.9344
       814.5684
   3823773.05149   2983375.68446  22621192.7234   22621190.9144
     -2599.8164
 04  9 14 17  3 45.0040000  0  6G 1G11G16G23G20G25
   -819493.18449   -634757.60946  21845020.6374   21845018.5514
     -1120.1304
   9590548.81348   7474423.68844  23691797.6844   23691795.7274
     -3219.7364
  -1796963.39847  -1386861.55542  24945457.5194   24945457.3874
      2087.6554
  -8777450.69949  -6828582.79745  22996722.5984   22996718.6294
      1132.7664
 -12269758.76649  -9560052.83246  21966679.5744   21966676.6444
       807.5174
   3862877.85549   3013846.96546  22628633.7624   22628632.0194
     -2606.9874
 04  9 14 17  4  0.0040000  0  6G 1G11G16G23G20G25
   -802620.84849   -621610.33646  21848231.2074   21848229.6444
     -1124.8224
   9638935.49248   7512127.58644  23701005.1374   23701002.9344
     -3225.7794
  -1828225.03947  -1411221.27042  24939508.1524   24939509.0704
      2084.1094
  -8794378.35948  -6841773.16845  22993501.1684   22993496.7034
      1128.5114
 -12281765.20349  -9569408.48846  21964394.8634   21964392.1254
       800.4294
   3902090.28949   3044402.10246  22636096.3404   22636094.4304
     -2614.1624
 04  9 14 17  4 15.0040000  0  6G 1G11G16G23G20G25
   -785679.25049   -608409.09446  21851454.5434   21851453.5864
     -1129.4404
   9687411.46548   7549901.03944  23710228.9574   23710227.2694
     -3231.7324
  -1859434.04747  -1435539.94942  24933569.6054   24933569.3524
      2080.6014
  -8811243.17248  -6854914.56645  22990292.5124   22990287.3014
      1124.3214
 -12293666.03949  -9578681.86346  21962130.3554   21962127.2344
       793.3894
   3941408.94949   3075040.00846  22643578.1994   22643576.1174
     -2621.2444
 04  9 14 17  4 30.0040000  0  6G 1G11G16G23G20G25
   -768667.22749   -595152.98046  21854692.0664   21854690.4534
     -1134.1354
   9735977.78148   7587744.88344  23719471.2234   23719469.2974
     -3237.7544
  -1890588.88347  -1459816.42242  24927641.0354   24927639.7304
      2076.9894
  -8828043.94949  -6868006.08245  22987095.3244   22987090.4304
      1120.0524
 -12305459.84449  -9587871.84446  21959886.1054   21959882.9064
       786.2544
   3980834.77749   3105761.44145  22651080.6294   22651078.3284
     -2628.3894
 04  9 14 17  4 45.0040000  0  6G 1G11G16G23G20G25
   -751585.94149   -581842.90646  21857942.8944   21857941.6374
     -1138.7524
   9784633.03948   7625658.02744  23728731.0194   23728728.2934
     -3243.6844
  -1921690.25047  -1484051.19542  24921722.3714   24921720.6954
      2073.4244
  -8844781.80948  -6881048.54345  22983909.9654   22983906.4884
      1115.8574
 -12317147.45749  -9596979.07046  21957662.3874   21957658.8594
       779.1744
   4020366.57449   3136565.43845  22658603.2624   22658600.5864
     -2635.4534
 04  9 14 17  5  0.0040000  0  6G 1G11G16G23G20G25
   -734435.35549   -568478.82046  21861206.3484   21861204.4374
     -1143.3724
   9833376.91848   7663640.27743  23738006.1844   23738004.7464
     -3249.5924
  -1952737.50447  -1508243.79742  24915814.7774   24915812.3014
      2069.8174
  -8861456.55949  -6894041.85245  22980737.0194   22980732.9064
      1111.6504
 -12328728.36349  -9606003.14546  21955458.0984   21955455.2464
       772.0604
   4060004.16849   3167451.85545  22666145.7154   22666143.4374
     -2642.5064
 04  9 14 17  5 15.0040000  0  6G 1G11G16G23G20G25
   -717216.28549   -555061.36746  21864483.2074   21864481.1524
     -1147.9384
   9882208.58648   7701690.89544  23747298.7074   23747297.3094
     -3255.4454
  -1983730.93746  -1532394.48842  24909916.3014   24909913.7774
      2066.2294
  -8878068.87148  -6906986.51645  22977575.9574   22977570.8164
      1107.4884
 -12340203.17249  -9614944.55146  21953274.6994   21953271.9104
       764.9874
   4099746.43849   3198419.85945  22673708.3404   22673706.7624
     -2649.4854
 04  9 14 17  5 30.0040000  0  6G 1G11G16G23G20G25
   -699927.90249   -541589.89846  21867772.7934   21867770.8444
     -1152.5594
   9931128.49648   7739810.28144  23756608.0514   23756605.5434
     -3261.3274
  -2014669.40646  -1556502.35542  24904028.0044   24904026.5394
      2062.5654
  -8894617.86348  -6919881.83245  22974426.5274   22974421.9614
      1103.2664
 -12351570.70749  -9623802.37146  21951111.5044   21951108.9264
       757.8364
   4139594.19149   3229470.04345  22681291.6684   22681289.7154
     -2656.5174
 04  9 14 17  5 45.0040000  0  6G 1G11G16G23G20G25
   -682569.39549   -528063.78146  21871075.9734   21871074.3554
     -1157.2344
   9980137.00048   7777998.70344  23765933.8714   23765931.5554
     -3267.2344
  -2045551.55947  -1580566.40242  24898152.7154   24898149.6444
      2058.8104
  -8911102.69949  -6932727.14145  22971290.1214   22971285.6254
      1098.9894
 -12362829.93449  -9632575.78946  21948969.0124   21948966.1684
       750.6154
   4179547.83649   3260602.77045  22688894.1764   22688892.3874
     -2663.5764
 04  9 14 17  6  0.0040000  0  6G 1G11G16G23G20G25
   -665141.81249   -514483.85946  21874392.4414   21874390.7814
     -1161.8394
  10029232.97748   7816255.28144  23775277.0664   23775274.2384
     -3273.0654
  -2076378.09447  -1604587.05142  24892286.0594   24892282.8754
      2055.1024
  -8927524.26249  -6945523.15245  22968165.6294   22968160.0004
      1094.7714
 -12373981.50049  -9641265.32046  21946846.5354   21946844.5084
       743.4384
   4219606.21949   3291817.06645  22696516.5434   22696514.6804
     -2670.5594
 04  9 14 17  6 15.0040000  0  6G 1G11G16G23G20G25
   -647643.34049   -500848.68746  21877722.0904   21877720.6914
     -1166.5654
  10078417.85948   7854581.16444  23784636.3404   23784633.4614
     -3278.9924
  -2107146.73847  -1628562.53542  24886431.0904   24886428.4884
      2051.2434
  -8943880.66849  -6958268.38744  22965051.9414   22965047.5664
      1090.4274
 -12385023.37149  -9649869.36346  21944745.4804   21944743.3714
       736.1254
   4259770.93449   3323114.25845  22704160.1134   22704158.3944
     -2677.6484
 04  9 14 17  6 30.0040000  0  6G 1G11G16G23G20G25
   -630075.53949   -487159.49646  21881065.1844   21881063.4374
     -1171.1874
  10127689.91848   7892974.93443  23794012.3094   23794010.3794
     -3284.8044
  -2137858.48847  -1652493.72342  24880587.0044   24880584.9774
      2047.4504
  -8960173.34048  -6970963.97345  22961951.7234   22961947.6994
      1086.1784
 -12395956.75449  -9658388.88746  21942664.8634   21942662.5744
       728.8924
   4300040.31649   3354492.98445  22711822.5984   22711820.5434
     -2684.6264
 04  9 14 17  6 45.0040000  0  6G 1G11G16G23G20G25
   -612438.81249   -473416.59446  21884421.3874   21884419.6564
     -1175.7824
  10177048.40248   7931436.08643  23803405.4654   23803403.0784
     -3290.5664
  -2168513.35247  -1676380.60242  24874753.0824   24874751.1764
      2043.6584
  -8976402.77348  -6983610.27345  22958863.5354   22958860.3914
      1081.9624
 -12406781.81249  -9666823.98846  21940604.5594   21940602.5624
       721.6714
   4340413.88349   3385952.89545  22719505.9964   22719503.4774
     -2691.5714
 04  9 14 17  7  0.0040000  0  6G 1G11G16G23G20G25
   -594733.30149   -459620.10946  21887790.2774   21887788.8484
     -1180.3674
  10226492.90248   7969964.25043  23812813.2694   23812813.4224
     -3296.3004
  -2199110.98447  -1700222.89142  24868930.3554   24868928.7034
      2039.8424
  -8992568.95749  -6996207.30145  22955787.3484   22955783.8554
      1077.7464
 -12417498.27749  -9675174.47346  21938565.4654   21938563.1684
       714.4314
   4380891.07049   3417493.55145  22727208.6764   22727206.1914
     -2698.4794
 04  9 14 17  7 15.0040000  0  6G 1G11G16G23G20G25
   -576958.10549   -445769.28546  21891173.6214   21891171.2734
     -1185.0134
  10276024.10548   8008559.98443  23822239.3634   23822237.3324
     -3302.0804
  -2229650.07847  -1724019.57042  24863118.6524   24863117.8054
      2035.9404
  -9008670.82448  -7008754.19545  22952722.9024   22952719.1724
      1073.4584
 -12428105.00449  -9683439.46946  21936547.3554   21936544.6644
       707.1154
   4421472.70349   3449115.60246  22734931.3324   22734929.2814
     -2705.4424
 04  9 14 17  7 30.0040000  0  6G 1G11G16G23G20G25
   -559115.30949   -431865.82446  21894568.7384   21894567.0664
     -1189.5204
  10325639.60248   8047221.37543  23831680.7154   23831678.7894
     -3307.7004
  -2260132.25847  -1747771.87142  24857318.9184   24857316.7034
      2032.1454
  -9024710.47348  -7021252.60545  22949670.8634   22949665.3794
      1069.3104
 -12438603.77349  -9691620.31246  21934549.6214   21934546.6874
       699.9184
   4462156.37549   3480817.14546  22742673.2384   22742671.0194
     -2712.2454
 04  9 14 17  7 45.0040000  0  6G 1G11G16G23G20G25
   -541204.13349   -417909.07046  21897977.2074   21897975.0554
     -1194.0784
  10375339.91848   8085948.86743  23841139.0124   23841135.7034
     -3313.3544
  -2290556.32447  -1771478.87542  24851528.6294   24851527.6334
      2028.2714
  -9040686.95348  -7033701.80145  22946630.6054   22946625.0044
      1065.0994
 -12448993.34449  -9699716.09846  21932572.2774   21932569.9064
       692.6384
   4502942.77349   3512598.76646  22750434.4494   22750432.3164
     -2719.0934
 04  9 14 17  8  0.0040000  0  6G 1G11G16G23G20G25
   -523223.60949   -403898.26246  21901398.4264   21901396.6994
     -1198.7024
  10425125.87948   8124743.10943  23850612.5824   23850609.1954
     -3319.0644
  -2320920.63347  -1795139.35542  24845751.1684   24845750.0624
      2024.2874
  -9056599.29749  -7046101.00845  22943602.9804   22943597.5744
      1060.8234
 -12459272.44549  -9707725.78946  21930616.1994   21930613.2424
       685.2734
   4543832.78949   3544461.10246  22758215.3634   22758213.5784
     -2726.0014
 04  9 14 17  8 15.0040000  0  6G 1G11G16G23G20G25
   -505174.40249   -389833.95746  21904833.1914   21904831.3524
     -1203.2804
  10474996.38348   8163603.23043  23860102.5124   23860099.9884
     -3324.7004
  -2351225.52047  -1818753.51642  24839984.2304   24839983.3324
      2020.3264
  -9072447.93749  -7058450.61345  22940587.0904   22940582.9774
      1056.5764
 -12469441.51249  -9715649.73446  21928681.5744   21928678.1724
       677.9384
   4584825.44949   3576403.42245  22766016.0124   22766013.8444
     -2732.8444
 04  9 14 17  8 30.0040000  0  6G 1G11G16G23G20G25
   -487058.22349   -375717.45346  21908280.7464   21908279.0314
     -1207.7454
  10524949.45748   8202527.66444  23869609.0434   23869605.8364
     -3330.2054
  -2381472.27346  -1842322.39842  24834228.2384   24834227.2154
      2016.4504
  -9088234.65649  -7070751.93445  22937582.3484   22937578.4774
      1052.4484
 -12479501.98449  -9723489.07046  21926767.1294   21926764.3674
       670.6984
   4625918.68449   3608424.10945  22773835.6604   22773833.4694
     -2739.5494
 04  9 14 17  8 45.0040000  0  6G 1G11G16G23G20G25
   -468873.91049   -361547.87146  21911740.7544   21911739.2624
     -1212.2874
  10574986.07048   8241517.18444  23879130.3554   23879128.7814
     -3335.7744
  -2411659.21146  -1865844.66442  24828483.3244   24828482.5474
      2012.4634
  -9103958.08249  -7083003.92645  22934590.6134   22934586.5664
      1048.2284
 -12489452.36749  -9731242.63346  21924873.8164   21924870.4064
       663.3594
   4667113.65649   3640524.08645  22781674.8874   22781672.8714
     -2746.3324
 04  9 14 17  9  0.0040000  0  6G 1G11G16G23G20G25
   -450622.79349   -347326.22746  21915214.0194   21915211.8554
     -1216.7414
  10625104.50048   8280570.51243  23888666.7854   23888666.0314
     -3341.2294
  -2441787.31647  -1889321.08242  24822751.0124   24822749.6804
      2008.5404
  -9119619.48849  -7095207.62545  22931610.5194   22931606.0354
      1044.0944
 -12499293.66449  -9738911.18046  21923000.9414   21922997.8714
       656.0864
   4708408.71549   3672702.04745  22789533.1914   22789530.3674
     -2753.0044
 04  9 14 17  9 15.0040000  0  6G 1G11G16G23G20G25
   -432303.87549   -333051.76246  21918699.9804   21918697.8244
     -1221.2614
  10675305.57048   8319688.22343  23898220.2544   23898218.9104
     -3346.7384
  -2471854.98047  -1912750.40642  24817029.0744   24817027.9414
      2004.5114
  -9135217.79748  -7107362.14145  22928641.5594   22928637.5084
      1039.8874
 -12509024.59849  -9746493.70346  21921148.8944   21921146.7304
       648.7294
   4749804.71949   3704958.66445  22797410.7464   22797407.4884
     -2759.7344
 04  9 14 17  9 30.0040000  0  6G 1G11G16G23G20G25
   -413917.51249   -318724.71546  21922199.0984   21922197.0434
     -1225.7584
  10725588.69148   8358869.84843  23907789.0124   23907786.9344
     -3352.2084
  -2501862.25047  -1936132.67242  24811318.7934   24811318.3014
      2000.4854
  -9150753.22749  -7119467.66045  22925685.8094   22925680.3834
      1035.6954
 -12518645.16049  -9753990.23846  21919318.3554   21919315.4414
       641.3714
   4791301.23049   3737293.63345  22805306.9574   22805303.8244
     -2766.4344
 04  9 14 17  9 45.0040000  0  6G 1G11G16G23G20G25
   -395463.46149   -304344.93047  21925710.4414   21925709.3634
     -1230.2704
  10775953.74248   8398115.32043  23917372.7304   23917371.6914
     -3357.6704
  -2531808.30547  -1959467.23842  24805620.2624   24805620.4264
      1996.4044
  -9166225.55148  -7131524.03145  22922741.3554   22922736.5164
      1031.4884
 -12528154.78549  -9761400.32846  21917508.4734   21917505.6764
       633.9754
   4832898.24249   3769706.89845  22813222.7544   22813219.5664
     -2773.1344
 04  9 14 17 10  0.0040000  0  6G 1G11G16G23G20G25
   -376943.34449   -289913.66447  21929234.9414   21929233.5474
     -1234.6744
  10826399.01248   8437423.30544  23926972.1374   23926970.9734
     -3363.0184
  -2561694.40647  -1982755.07042  24799932.1914   24799932.1684
      1992.4074
  -9181636.22348  -7143532.34445  22919808.7774   22919804.6374
      1027.3784
 -12537554.81649  -9768725.02346  21915719.8944   21915717.0194
       626.6694
   4874593.83649   3802196.94945  22821157.1214   22821154.5004
     -2779.7064
 04  9 14 17 10 15.0040000  0  6G 1G11G16G23G20G25
   -358356.43749   -275430.36746  21932771.4964   21932770.3014
     -1239.1274
  10876924.77348   8476794.00844  23936587.2074   23936585.7304
     -3368.3844
  -2591519.34047  -2005995.22742  24794257.4024   24794255.6374
      1988.3294
  -9196984.50849  -7155492.02745  22916887.8094   22916883.4064
      1023.2194
 -12546844.25049  -9775963.54746  21913951.8404   21913949.0394
       619.2964
   4916388.71149   3834764.37145  22829109.8324   22829107.9924
     -2786.3254
 04  9 14 17 10 30.0040000  0  6G 1G11G16G23G20G25
   -339703.16049   -260895.39146  21936321.6374   21936319.7894
     -1243.5524
  10927530.36748   8516226.91443  23946216.4804   23946215.3014
     -3373.7064
  -2621282.92647  -2029187.60542  24788593.5744   24788591.1724
      1984.2394
  -9212270.67249  -7167403.32045  22913978.6844   22913974.0594
      1019.0784
 -12556023.25849  -9783116.00846  21912205.3094   21912202.0004
       611.9344
   4958282.18848   3867408.63744  22837082.2854   22837079.5004
     -2792.8984
 04  9 14 17 10 45.0040000  0  6G 1G11G16G23G20G25
   -320983.93449   -246308.95746  21939883.6764   21939881.1334
     -1247.9484
  10978215.18848   8555721.53944  23955862.2854   23955860.2504
     -3378.9884
  -2650985.26647  -2052332.24242  24782941.1214   24782938.8244
      1980.1564
  -9227495.10549  -7179266.48845  22911082.5594   22911076.8094
      1014.9624
 -12565091.81249  -9790182.42247  21910480.2384   21910477.8124
       604.5704
   5000273.67648   3900129.28144  22845072.6214   22845070.6334
     -2799.4334
 04  9 14 17 11  0.0040000  0  6G 1G11G16G23G20G25
   -302197.24649   -231669.98846  21943458.2854   21943456.4574
     -1252.4464
  11028980.28548   8595278.74643  23965522.0514   23965520.7814
     -3384.3404
  -2680624.40247  -2075427.67642  24777300.8484   24777299.4574
      1975.9424
  -9242656.17248  -7191080.31645  22908196.5824   22908192.3124
      1010.7384
 -12574048.14549  -9797161.38746  21908775.7074   21908772.2734
       597.0894
   5042364.33649   3932927.16845  22853082.6214   22853080.2734
     -2806.0444
 04  9 14 17 11 15.0040000  0  6G 1G11G16G23G20G25
   -283345.54749   -216980.32846  21947045.5744   21947043.8594
     -1256.7804
  11079822.96948   8634896.38743  23975197.2934   23975195.7974
     -3389.5124
  -2710202.32046  -2098475.36342  24771671.8404   24771671.1214
      1971.8614
  -9257756.31649  -7202846.64845  22905323.2544   22905318.9734
      1006.6764
 -12582894.49249  -9804054.63746  21907091.6214   21907089.1214
       589.7574
   5084551.62149   3965800.41045  22861110.8714   22861108.8634
     -2812.4864
 04  9 14 17 11 30.0050000  0  6G 1G11G16G23G20G25
   -264426.03549   -202237.87946  21950646.2284   21950643.9974
     -1261.3014
  11130747.96148   8674578.14843  23984888.4154   23984886.3844
     -3394.9994
  -2739719.02047  -2121475.39842  24766056.3214   24766054.5994
      1967.7804
  -9272794.82448  -7214564.96945  22902461.7744   22902456.5994
      1002.5674
 -12591629.48449  -9810861.10946  21905429.5404   21905426.9854
       582.3334
   5126839.67648   3998752.12545  22869158.1964   22869156.0914
     -2819.2044
 04  9 14 17 11 45.0050000  0  6G 1G11G16G23G20G25
   -245441.37549   -187444.61346  21954258.9314   21954256.7944
     -1265.6444
  11181748.02348   8714318.43043  23994593.4234   23994591.7824
     -3400.0044
  -2769170.15247  -2144424.28542  24760451.5874   24760450.7944
      1963.4094
  -9287769.73849  -7226233.72745  22899613.0174   22899607.1034
       998.3284
 -12600251.82849  -9817579.81246  21903789.1184   21903786.2554
       574.8234
   5169222.42648   4031777.62945  22877222.4784   22877221.3254
     -2825.5174
 04  9 14 17 12  0.0050000  0  6G 1G11G16G23G20G25
   -226390.07049   -172599.44946  21957884.1494   21957881.7864
     -1270.0874
  11232826.64148   8754119.92643  24004312.8684   24004311.9424
     -3405.2414
  -2798556.96947  -2167323.07042  24754859.7594   24754857.6924
      1959.1214
  -9302681.80149  -7237853.50445  22896774.4154   22896769.8024
       994.1384
 -12608761.50849  -9824210.75046  21902169.8994   21902166.5954
       567.3124
   5211702.72748   4064879.19144  22885306.5794   22885304.9624
     -2832.0204
 04  9 14 17 12 15.0050000  0  6G 1G11G16G23G20G25
   -207273.06649   -157703.07446  21961521.9704   21961520.0094
     -1274.4674
  11283982.44148   8793981.56643  24014047.7984   24014046.5874
     -3410.3874
  -2827880.16847  -2190172.28142  24749279.2594   24749278.2084
      1954.8804
  -9317531.85549  -7249424.96145  22893948.1104   22893944.5874
       990.0044
 -12617159.21148  -9830754.41446  21900571.7824   21900568.3844
       559.8474
   5254279.55548   4098055.89844  22893408.6184   22893407.3764
     -2838.4554
 04  9 14 17 12 30.0050000  0  6G 1G11G16G23G20G25
   -188090.95349   -142755.98046  21965172.2984   21965170.8104
     -1278.8084
  11335214.53548   8833902.67643  24023796.8924   24023795.1384
     -3415.4734
  -2857139.69546  -2212971.89542  24743711.1884   24743710.7394
      1950.6354
  -9332320.36349  -7260948.46945  22891134.5634   22891129.8414
       985.9014
 -12625445.28149  -9837211.07046  21898994.5634   21898991.4664
       552.4054
   5296952.13748   4131307.23044  22901529.5634   22901527.5874
     -2844.8394
 04  9 14 17 12 45.0050000  0  6G 1G11G16G23G20G25
   -168845.05549   -127759.18046  21968834.4934   21968833.0244
     -1283.0604
  11386521.36748   8873881.98444  24033560.0324   24033558.5634
     -3420.4554
  -2886336.45346  -2235722.59043  24738155.3374   24738154.9194
      1946.4514
  -9347048.59049  -7272424.99245  22888331.7984   22888327.3804
       981.8824
 -12633620.68749  -9843581.52746  21897438.8604   21897436.2514
       545.0274
   5339718.70348   4164631.81344  22909667.7514   22909665.8954
     -2851.1044
 04  9 14 17 13  0.0050000  0  6G 1G11G16G23G20G25
   -149533.72349   -112711.39546  21972509.6574   21972507.8254
     -1287.4224
  11437904.24648   8913920.58243  24043338.3064   24043336.1064
     -3425.5254
  -2915468.34847  -2258422.72742  24732611.6814   24732610.5174
      1942.1264
  -9361714.83249  -7283853.26245  22885541.0014   22885536.2394
       977.7494
 -12641683.41449  -9849864.17246  21895904.8844   21895902.3064
       537.5154
   5382580.86748   4198030.89144  22917824.0634   22917822.2284
     -2857.4784
 04  9 14 17 13 15.0050000  0  6G 1G11G16G23G20G25
   -130156.37549    -97612.18046  21976197.0014   21976195.7824
     -1291.8234
  11489363.55948   8954018.72744  24053130.6964   24053128.5954
     -3430.6214
  -2944534.41447  -2281071.56642  24727079.6654   24727078.6454
      1937.7384
  -9376318.46149  -7295232.69545  22882762.0404   22882757.0014
       973.5754
 -12649632.69549  -9856058.41846  21894392.3294   21894389.7044
       529.9524
   5425539.05148   4231504.78944  22925999.0244   22925996.3534
     -2863.8794
 04  9 14 17 13 30.0050000  0  6G 1G11G16G23G20G25
   -110714.23449    -82462.45746  21979896.6034   21979895.1614
     -1296.1434
  11540897.91048   8994175.32043  24062937.5244   24062935.3764
     -3435.6234
  -2973535.26647  -2303669.60242  24721561.2904   24721559.7474
      1933.3904
  -9390860.54349  -7306564.18045  22879994.9074   22879990.2744
       969.4724
 -12657469.39549  -9862164.93046  21892900.8134   21892898.7784
       522.4474
   5468591.77049   4265052.35545  22934191.7824   22934190.0054
     -2870.1814
 04  9 14 17 13 45.0050000  0  6G 1G11G16G23G20G25
    -91207.38749    -67262.32046  21983608.4854   21983606.8804
     -1300.4574
  11592506.85948   9034390.05943  24072758.0714   24072756.0134
     -3440.5974
  -3002470.63347  -2326216.62142  24716056.0794   24716052.8604
      1929.0244
  -9405340.96149  -7317847.60545  22877238.6884   22877234.4464
       965.3614
 -12665193.35549  -9868183.61346  21891431.1574   21891428.1734
       514.9314
   5511738.79348   4298673.43844  22942401.6814   22942400.4504
     -2876.4684
 04  9 14 17 14  0.0050000  0  6G 1G11G16G23G20G25
    -71636.39149    -52012.22346  21987332.1964   21987331.1734
     -1304.7334
  11644189.31648   9074662.06644  24082593.0634   24082591.1534
     -3445.4974
  -3031340.70746  -2348712.78942  24710562.2204   24710559.6064
      1924.6724
  -9419760.45349  -7329083.58245  22874495.5874   22874490.6264
       961.2994
 -12672804.87949  -9874114.67246  21889982.7514   21889980.4624
       507.4354
   5554979.34448   4332367.32844  22950630.1574   22950628.4894
     -2882.7034
 04  9 14 17 14 15.0050000  0  6G 1G11G16G23G20G25
    -52000.84049    -36711.78946  21991068.6574   21991067.4154
     -1309.0374
  11695945.64148   9114991.65643  24092441.6424   24092440.1854
     -3450.4224
  -3060144.58247  -2371157.31642  24705080.2674   24705080.2394
      1920.2584
  -9434118.34849  -7340271.54745  22871762.9314   22871758.0054
       957.1934
 -12680303.12549  -9879957.46546  21888555.2824   21888553.3454
       499.8834
   5598313.59848   4366134.29344  22958876.2354   22958874.5014
     -2888.9504
 04  9 14 17 14 30.0050000  0  6G 1G11G16G23G20G25
    -32301.53149    -21361.68445  21994817.8684   21994816.0364
     -1313.2874
  11747774.72348   9155377.92643  24102305.0174   24102303.4544
     -3455.2724
  -3088882.55546  -2393550.52342  24699610.9784   24699611.9194
      1915.8654
  -9448415.47749  -7351412.16045  22869042.3764   22869037.8134
       953.1424
 -12687688.64549  -9885712.39847  21887150.3844   21887148.2244
       492.3684
   5641740.64847   4399973.55943  22967139.6574   22967138.3804
     -2895.1374
 04  9 14 17 14 45.0050000  0  6G 1G11G16G23G20G25
    -12536.69949     -5960.52746  21998579.7204   21998577.4074
     -1317.6554
  11799678.09048   9195822.08643  24112181.5714   24112179.8884
     -3460.2244
  -3117552.34847  -2415890.62142  24694156.1734   24694156.0404
      1911.3204
  -9462649.88349  -7362503.89845  22866333.4544   22866329.3294
       948.9604
 -12694959.44149  -9891377.95746  21885766.5404   21885764.2004
       484.7204
   5685261.96548   4433886.27343  22975422.4704   22975420.7164
     -2901.4214
 04  9 14 17 15  0.0050000  0  6G 1G11G16G23G20G25
      7291.35249      9489.90646  22002352.7124   22002350.3494
     -1321.8704
  11851653.09447   9236322.04743  24122072.1184   24122070.7634
     -3465.0004
  -3146155.80947  -2438178.96142  24688712.7124   24688712.2784
      1906.8974
  -9476823.80949  -7373548.50445  22863636.2124   22863631.8374
       944.9284
 -12702117.35249  -9896955.55946  21884404.7984   21884402.2594
       477.1944
   5728874.92648   4467870.37144  22983721.1734   22983720.0564
     -2907.5314
 04  9 14 17 15 15.0050000  0  6G 1G11G16G23G20G25
     27183.39149     24990.21146  22006137.8844   22006136.0094
     -1326.1364
  11903700.16448   9276878.18443  24131977.0484   24131974.2984
     -3469.8054
  -3174691.89847  -2460414.86342  24683283.2044   24683280.7904
      1902.4064
  -9490936.44949  -7384545.35545  22860951.3924   22860946.1064
       940.8434
 -12709161.44949  -9902444.47746  21883064.5324   21883061.5484
       469.6074
   5772580.24648   4501926.43844  22992039.0244   22992036.9154
     -2913.6884
 04  9 14 17 15 30.0050000  0  6G 1G11G16G23G20G25
     47140.04749     40540.83246  22009934.9934   22009933.6694
     -1330.4444
  11955819.62948   9317490.74243  24141894.3994   24141892.9974
     -3474.6314
  -3203159.41447  -2482597.30942  24677865.5404   24677863.1774
      1897.8344
  -9504987.05149  -7395493.86745  22858277.2594   22858272.0794
       936.7074
 -12716090.87949  -9907844.03546  21881745.5874   21881742.4384
       461.9624
   5816378.34448   4536054.82444  23000373.0174   23000371.1264
     -2919.8734
 04  9 14 17 15 45.0050000  0  6G 1G11G16G23G20G25
     67161.19949     56141.73846  22013744.2904   22013743.8994
     -1334.7434
  12008011.23848   9358159.48443  24151826.3534   24151824.8764
     -3479.4414
  -3231557.95348  -2504726.02043  24672461.9784   24672459.6144
      1893.2364
  -9518975.80549  -7406394.18745  22855615.2904   22855610.4664
       932.5844
 -12722905.31649  -9913153.98846  21880448.8064   21880445.7354
       454.2964
   5860268.94948   4570255.25443  23008725.3214   23008723.2634
     -2926.0404
 04  9 14 17 16  0.0050000  0  6G 1G11G16G23G20G25
     87246.43849     71792.55946  22017566.7824   22017565.4194
     -1339.0164
  12060274.07448   9398883.73043  24161771.3844   24161769.8214
     -3484.1894
  -3259887.62147  -2526801.03542  24667070.4234   24667068.4584
      1888.6454
  -9532902.84849  -7417246.42645  22852964.3924   22852959.8534
       928.4704
 -12729604.97349  -9918374.48846  21879173.8454   21879171.4424
       446.6444
   5904251.25447   4604527.22743  23017094.3924   23017092.5834
     -2932.1544
 04  9 14 17 16 15.0050000  0  6G 1G11G16G23G20G25
    107396.73049     87494.07047  22021401.6814   22021399.7204
     -1343.3534
  12112609.15248   9439664.29343  24171730.3064   24171728.5834
     -3489.0054
  -3288146.87947  -2548821.21542  24661692.6964   24661691.3334
      1883.9514
  -9546767.12549  -7428049.75445  22850326.9384   22850322.5284
       924.2854
 -12736188.62549  -9923504.59446  21877920.9934   21877918.5054
       438.9104
   5948326.15648   4638871.32842  23025481.6104   23025479.2744
     -2938.3274
 04  9 14 17 16 30.0050000  0  6G 1G11G16G23G20G25
    127610.12549    103244.77047  22025248.3214   22025246.2204
     -1347.5604
  12165014.03548   9480499.23443  24181702.8764   24181701.1614
     -3493.6594
  -3316337.23848  -2570787.71542  24656328.6814   24656326.9274
      1879.3574
  -9560570.66449  -7438805.76245  22847700.8374   22847695.8604
       920.2364
 -12742657.77349  -9928545.49246  21876689.6264   21876687.4894
       431.2774
   5992491.55148   4673285.94143  23033886.4784   23033883.8254
     -2944.3604
 04  9 14 17 16 45.0050000  0  6G 1G11G16G23G20G25
    147886.41449    119044.48047  22029107.1494   22029104.7084
     -1351.7534
  12217488.21548   9521388.18843  24191689.1034   24191686.7474
     -3498.2794
  -3344458.62146  -2592700.48442  24650977.0094   24650976.4544
      1874.7594
  -9574313.45349  -7449514.41445  22845084.8844   22845080.1034
       916.1864
 -12749012.46149  -9933497.20346  21875480.7744   21875478.4314
       423.6464
   6036746.94948   4707770.63743  23042306.7594   23042305.6774
     -2950.3604
 04  9 14 17 17  0.0050000  0  6G 1G11G16G23G20G25
    168225.50849    134893.11747  22032977.5634   22032975.4074
     -1355.9404
  12270031.25448   9562330.79743  24201686.7284   24201685.8294
     -3502.8694
  -3372510.64547  -2614559.18442  24645639.2984   24645638.6884
      1870.1354
  -9587995.52749  -7460175.76245  22842480.8844   22842475.8604
       912.1384
 -12755252.44549  -9938359.53546  21874293.7044   21874291.0564
       415.9994
   6081091.93447   4742325.18443  23050746.1104   23050744.9074
     -2956.3324
 04  9 14 17 17 15.0050000  0  6G 1G11G16G23G20G25
    188628.02349    150791.16047  22036859.4624   22036858.2004
     -1360.1684
  12322643.64848   9603327.43443  24211698.4784   24211696.8294
     -3507.4934
  -3400492.14147  -2636362.91842  24640314.8064   24640313.3924
      1865.4334
  -9601616.37149  -7470789.39845  22839889.2744   22839884.4854
       908.0564
 -12761376.89149  -9943131.82446  21873127.8844   21873125.5404
       408.2964
   6125527.02747   4776949.93442  23059201.1184   23059199.9854
     -2962.3404
 04  9 14 17 17 30.0050000  0  6G 1G11G16G23G20G25
    209094.13349    166738.77347  22040754.4784   22040752.7864
     -1364.4074
  12375325.15648   9644377.93843  24221723.9384   24221721.2904
     -3512.1014
  -3428402.59847  -2658111.30542  24635003.3214   24635002.7004
      1860.6974
  -9615175.57049  -7481354.99645  22837308.6344   22837304.3644
       903.9474
 -12767385.24649  -9947813.64546  21871984.2824   21871981.8414
       400.5574
   6170051.98047   4811644.71942  23067674.3994   23067673.1734
     -2968.3304
 04  9 14 17 17 45.0050000  0  6G 1G11G16G23G20G25
    229623.28949    182735.51247  22044661.0714   22044659.3294
     -1368.6104
  12428074.85248   9685481.58243  24231761.5794   24231759.5714
     -3516.6464
  -3456242.11347  -2679804.39142  24629705.2284   24629702.7084
      1855.9684
  -9628673.68048  -7491873.00445  22834740.0404   22834735.9814
       899.8744
 -12773277.80149  -9952405.24646  21870863.4234   21870859.7984
       392.8374
   6214666.17647   4846408.98042  23076164.9314   23076163.4854
     -2974.2804
 04  9 14 17 18  0.0050000  0  6G 1G11G16G23G20G25
    250215.59049    198781.45747  22048579.4234   22048577.5054
     -1372.8204
  12480892.73448   9726638.37143  24241812.7204   24241810.4424
     -3521.1924
  -3484009.94147  -2701441.65243  24624421.7824   24624419.2674
      1851.1894
  -9642110.22749  -7502343.07445  22832184.3454   22832179.1184
       895.7704
 -12779054.11349  -9956906.27046  21869764.3534   21869760.8214
       385.0874
   6259369.58648   4881242.82842  23084671.6574   23084670.3534
     -2980.2274
 04  9 14 17 18 15.0050000  0  6G 1G11G16G23G20G25
    270871.39149    214876.89147  22052510.0244   22052508.5244
     -1377.0534
  12533778.71148   9767848.18443  24251876.4854   24251874.7474
     -3525.7324
  -3511705.44547  -2723022.49243  24619150.8994   24619150.5954
      1846.3674
  -9655484.98449  -7512764.93046  22829639.0874   22829633.7594
       891.6514
 -12784713.62549  -9961316.27746  21868687.2354   21868683.5604
       377.3014
   6304162.35548   4916146.27342  23093195.5094   23093193.3994
     -2986.1854
